Date StartTime U_cm/s V_cm/s W_cm/s Ustd_cm/s Vstd_cm/s Wstd_cm/s Uvar_(cm/s)^2 Vvar_(cm/s)^2 Wvar_(cm/s)^2 KE_(m/s)^2 TurbulentKE_(m/s)^2 HorizWindSpeed_cm/s FrictionSpeec_cm/s DragCoef SpeedOfSound_m/s SonicTemperature_C Pressure_mb 
05/23/2014  00:00:00      -61.050      -21.845       -0.061       14.479       14.135       10.891      209.656      199.786      118.613        0.237        0.026       64.841        9.172        0.020      340.508       14.577      863.798
05/23/2014  00:01:00      -89.069      -17.166       -2.729       18.563       19.396       11.781      344.576      376.216      138.791        0.455        0.043       90.708        6.880        0.006      340.565       14.674      863.803
05/23/2014  00:02:00      -83.857      -19.450       -4.029       26.250       20.481       15.466      689.069      419.477      239.188        0.439        0.067       86.083       15.252        0.031      340.552       14.652      863.811
05/23/2014  00:03:00      -75.917      -18.724        2.619       25.734       27.918       14.986      662.243      779.437      224.572        0.389        0.083       78.192       14.832        0.036      340.486       14.540      863.809
05/23/2014  00:04:00      -98.684      -37.512      -10.542       26.875       26.006       12.584      722.267      676.309      158.363        0.641        0.078      105.573        6.664        0.004      340.497       14.558      863.809
05/23/2014  00:05:00     -100.428      -30.237       -3.793       21.611       22.602       14.646      467.033      510.846      214.509        0.610        0.060      104.881       12.506        0.014      340.478       14.527      863.798
05/23/2014  00:06:00      -90.801       -9.608       -9.698       23.969       17.997       14.911      574.508      323.893      222.336        0.478        0.056       91.308       10.044        0.012      340.456       14.488      863.790
05/23/2014  00:07:00      -61.983      -18.440       -7.078       30.585       25.849       14.236      935.449      668.170      202.656        0.302        0.090       64.668       16.416        0.064      340.459       14.493      863.795
05/23/2014  00:08:00      -63.868      -19.434       -9.395       27.391       22.041       12.079      750.281      485.788      145.911        0.296        0.069       66.759       13.394        0.040      340.455       14.488      863.797
05/23/2014  00:09:00      -47.525      -38.621        2.102       22.831       18.320       13.535      521.275      335.633      183.200        0.240        0.052       61.239       14.213        0.054      340.481       14.530      863.795
05/23/2014  00:10:00      -19.131      -20.190        5.164       18.651       11.331        5.697      347.871      128.392       32.452        0.065        0.025       27.814        5.907        0.045      340.490       14.546      863.784
05/23/2014  00:11:00       33.935       30.224       -1.054       22.282       22.762       21.028      496.501      518.110      442.192        0.176        0.073       45.443       12.573        0.077      340.199       14.053      863.785
05/23/2014  00:12:00       66.588       30.536       -4.000       21.518       14.319       17.703      463.033      205.041      313.398        0.318        0.049       73.256        8.688        0.014      340.246       14.133      863.790
05/23/2014  00:13:00       34.403        9.879        9.617       23.732       10.176       10.967      563.191      103.550      120.278        0.108        0.039       35.793       12.461        0.121      340.257       14.152      863.788
05/23/2014  00:14:00       38.928        2.220       11.092       21.912       27.410       17.568      480.143      751.300      308.620        0.159        0.077       38.991       10.964        0.079      340.107       13.900      863.797
05/23/2014  00:15:00       34.144        6.593        8.637       23.615       16.581       14.315      557.654      274.929      204.916        0.116        0.052       34.774        8.939        0.066      340.140       13.955      863.806
05/23/2014  00:16:00       10.249        1.659       -7.673       18.557       20.792       11.788      344.358      432.301      138.955        0.054        0.046       10.382        8.189        0.622      339.908       13.565      863.818
05/23/2014  00:17:00       -2.839      -12.011       -7.199       12.546       16.484        7.735      157.390      271.713       59.833        0.035        0.024       12.342        7.684        0.388      340.151       13.973      863.821
05/23/2014  00:18:00      -19.311        5.184        3.223       11.600       22.504        9.354      134.566      506.441       87.497        0.057        0.036       19.995       11.169        0.312      340.153       13.977      863.824
05/23/2014  00:19:00      -55.749        5.858       -5.488       20.552       24.612       15.565      422.391      605.774      242.259        0.222        0.064       56.056       11.175        0.040      340.275       14.182      863.826
05/23/2014  00:20:00      -71.493      -24.254       -5.186       25.643       17.277       12.652      657.539      298.486      160.085        0.342        0.056       75.495        8.056        0.011      340.095       13.878      863.820
05/23/2014  00:21:00      -61.503      -25.819       -1.876       31.993       21.238       16.781     1023.533      451.069      281.606        0.310        0.088       66.703       17.698        0.070      339.986       13.695      863.819
05/23/2014  00:22:00      -63.189      -21.081       -1.633       23.792       19.116       11.800      566.064      365.407      139.232        0.276        0.054       66.612       10.680        0.026      339.965       13.660      863.815
05/23/2014  00:23:00       11.794       -4.337       13.472       18.187       16.854       14.074      330.775      284.046      198.084        0.058        0.041       12.567       13.443        1.144      339.867       13.495      863.818
05/23/2014  00:24:00        6.370        3.190        2.844       13.682       10.045        9.873      187.204      100.900       97.472        0.022        0.019        7.124        8.126        1.301      340.113       13.910      863.817
05/23/2014  00:25:00      -28.901       19.975      -15.960       16.202       14.467        7.835      262.493      209.287       61.384        0.101        0.027       35.133        6.736        0.037      340.109       13.903      863.816
05/23/2014  00:26:00      -64.675       -3.372      -10.821       35.913       13.466       10.672     1289.776      181.342      113.895        0.295        0.079       64.763        5.127        0.006      340.253       14.146      863.818
05/23/2014  00:27:00      -59.857       12.085       -9.155       39.376       28.335       24.581     1550.501      802.887      604.202        0.338        0.148       61.065       18.029        0.087      340.117       13.915      863.822
05/23/2014  00:28:00      -50.928       44.481      -15.540       39.017       49.802       18.074     1522.331     2480.263      326.677        0.457        0.216       67.619       15.314        0.051      340.193       14.046      863.825
05/23/2014  00:29:00     -107.259        9.669      -10.811       32.782       46.567       23.174     1074.690     2168.483      537.037        0.775        0.189      107.694       19.928        0.034      340.230       14.106      863.822
05/23/2014  00:30:00      -98.915       43.621      -22.212       46.078       45.083       24.800     2123.203     2032.518      615.062        0.847        0.239      108.107       23.675        0.048      340.371       14.347      863.822
05/23/2014  00:31:00      -78.906       52.063       -5.834       40.042       34.560       24.864     1603.370     1194.381      618.224        0.619        0.171       94.534       12.309        0.017      340.329       14.273      863.805
05/23/2014  00:32:00      -86.018      104.036      -21.869       37.508       49.316       25.401     1406.814     2432.097      645.224        1.159        0.224      134.991       26.441        0.038      340.347       14.304      863.789
05/23/2014  00:33:00      -77.109       96.475      -16.945       40.861       47.736       24.534     1669.602     2278.707      601.894        1.004        0.228      123.504       25.983        0.044      340.372       14.345      863.770
05/23/2014  00:34:00      -85.506       59.266      -16.972       25.892       45.635       22.936      670.387     2082.516      526.068        0.719        0.164      104.038       19.936        0.037      340.410       14.411      863.755
05/23/2014  00:35:00      -49.807      117.078      -23.264       52.152       71.087       34.763     2719.858     5053.303     1208.486        1.285        0.449      127.232       43.237        0.115      340.376       14.353      863.746
05/23/2014  00:36:00      -77.891       26.722       -6.123       40.668       35.464       27.699     1653.860     1257.692      767.220        0.525        0.184       82.347       18.049        0.048      340.457       14.490      863.746
05/23/2014  00:37:00      -93.774       40.928      -13.925       49.675       51.299       32.208     2467.599     2631.578     1037.348        0.840        0.307      102.316       29.956        0.086      340.372       14.347      863.747
05/23/2014  00:38:00      -27.709      131.155      -22.004       43.628       77.623       27.344     1903.384     6025.325      747.699        1.356        0.434      134.050       35.414        0.070      340.347       14.304      863.739
05/23/2014  00:39:00      -37.871      146.413      -19.230       48.976       67.287       36.674     2398.642     4527.588     1345.007        1.575        0.414      151.231       36.706        0.059      340.317       14.252      863.744
05/23/2014  00:40:00      -82.193      143.150      -29.480       49.157       75.070       31.219     2416.460     5635.451      974.633        1.857        0.451      165.068       32.328        0.038      340.348       14.306      863.744
05/23/2014  00:41:00      -37.884      117.607       -8.284       53.505       55.628       31.538     2862.806     3094.471      994.635        1.114        0.348      123.559       22.812        0.034      340.305       14.235      863.740
05/23/2014  00:42:00      -63.651      130.269      -13.970       60.498       51.470       30.893     3659.971     2649.177      954.352        1.424        0.363      144.987       27.160        0.035      340.282       14.196      863.734
05/23/2014  00:43:00      -48.049      167.049      -28.921       48.369       49.557       27.953     2339.607     2455.941      781.350        1.831        0.279      173.822       26.892        0.024      340.342       14.296      863.719
05/23/2014  00:44:00      -34.373      110.281      -16.077       31.460       60.586       21.871      989.711     3670.719      478.340        0.937        0.257      115.514       27.307        0.056      340.334       14.283      863.714
05/23/2014  00:45:00      -65.510      125.820      -22.839       50.850       73.593       29.101     2585.696     5415.915      846.879        1.474        0.442      141.853       27.527        0.038      340.353       14.314      863.704
05/23/2014  00:46:00      -68.774       78.647      -21.224       38.710       45.358       24.759     1498.485     2057.347      613.015        0.777        0.208      104.476       24.741        0.056      340.359       14.326      863.704
05/23/2014  00:47:00      -73.425      103.042       -9.156       56.461       58.624       34.471     3187.810     3436.808     1188.243        1.195        0.391      126.526       21.384        0.029      340.390       14.377      863.685
05/23/2014  00:48:00      -57.300      117.437      -10.599       47.106       58.370       33.311     2218.963     3407.078     1109.625        1.196        0.337      130.670       24.432        0.035      340.339       14.291      863.682
05/23/2014  00:49:00      -56.570      125.657      -13.551       38.771       39.507       30.252     1503.157     1560.832      915.156        1.158        0.199      137.803       21.672        0.025      340.308       14.239      863.680
05/23/2014  00:50:00      -43.543      154.554      -22.310       46.079       56.510       26.168     2123.314     3193.335      684.757        1.614        0.300      160.571       24.737        0.024      340.331       14.276      863.681
05/23/2014  00:51:00      -42.037      219.290      -32.695       56.054       57.838       27.380     3142.077     3345.228      749.675        2.908        0.362      223.283       25.335        0.013      340.347       14.302      863.690
05/23/2014  00:52:00      -58.395      189.842      -32.703       50.078       53.755       26.889     2507.821     2889.575      723.000        2.332        0.306      198.620       18.175        0.008      340.325       14.266      863.689
05/23/2014  00:53:00      -61.194      180.902      -29.915       61.021       58.341       35.579     3723.619     3403.686     1265.850        2.288        0.420      190.972       35.994        0.036      340.300       14.224      863.688
05/23/2014  00:54:00      -10.610      197.702      -36.486       59.809       48.611       22.256     3577.136     2363.006      495.325        2.348        0.322      197.986       22.729        0.013      340.237       14.117      863.700
05/23/2014  00:55:00      -17.030      214.048      -39.000       58.947       45.085       22.803     3474.699     2032.654      519.966        2.683        0.301      214.724       12.562        0.003      340.225       14.096      863.702
05/23/2014  00:56:00      -20.323      169.727      -28.493       60.601       59.897       25.996     3672.489     3587.655      675.786        1.898        0.397      170.940       26.088        0.023      340.191       14.040      863.693
05/23/2014  00:57:00      -28.291      105.688      -16.714       44.849       51.956       23.898     2011.445     2699.391      571.111        0.876        0.264      109.409       26.337        0.058      340.236       14.115      863.691
05/23/2014  00:58:00      -28.758      164.807      -22.963       48.261       39.892       24.978     2329.119     1591.362      623.901        1.653        0.227      167.297       14.702        0.008      340.228       14.104      863.685
05/23/2014  00:59:00      -24.399      208.153      -33.422       36.567       64.791       20.691     1337.152     4197.925      428.134        2.550        0.298      209.578       19.882        0.009      340.284       14.195      863.676
05/23/2014  01:00:00       -5.204      185.940      -26.353       57.207       57.452       29.697     3272.628     3300.789      881.932        2.137        0.373      186.013       36.012        0.037      340.268       14.169      863.668
05/23/2014  01:01:00      -73.426      129.756      -30.473       51.596       72.146       35.976     2662.150     5205.056     1294.296        1.616        0.458      149.090       39.225        0.069      340.427       14.439      863.660
05/23/2014  01:02:00      -72.590      119.290      -25.973       43.622       59.649       30.623     1902.886     3557.980      937.775        1.329        0.320      139.640       27.442        0.039      340.374       14.350      863.649
05/23/2014  01:03:00      -73.550      107.745      -11.161       63.896       61.776       30.830     4082.659     3816.312      950.473        1.299        0.442      130.456       31.898        0.060      340.356       14.321      863.651
05/23/2014  01:04:00      -81.002      113.684      -26.549       28.630       36.644       23.764      819.697     1342.782      564.711        1.146        0.136      139.590       10.406        0.006      340.332       14.281      863.644
05/23/2014  01:05:00     -114.396      146.704      -33.377       37.279       70.691       29.299     1389.693     4997.184      858.411        2.148        0.362      186.033       32.979        0.031      340.399       14.391      863.636
05/23/2014  01:06:00      -67.968      156.427      -25.352       38.305       29.762       22.668     1467.251      885.762      513.832        1.630        0.143      170.555       18.757        0.012      340.356       14.319      863.636
05/23/2014  01:07:00      -87.404      143.886      -20.057       44.993       88.037       34.793     2024.328     7750.557     1210.546        1.986        0.549      168.352       37.022        0.048      340.369       14.340      863.637
05/23/2014  01:08:00     -134.218      114.373      -29.327       35.319       45.460       26.245     1247.445     2066.634      688.791        1.798        0.200      176.340       18.132        0.011      340.372       14.346      863.648
05/23/2014  01:09:00     -133.809       73.811      -28.224       41.445       43.619       27.802     1717.668     1902.577      772.925        1.427        0.220      152.817       16.263        0.011      340.370       14.343      863.654
05/23/2014  01:10:00     -128.614       81.046      -21.112       40.647       50.809       33.672     1652.173     2581.558     1133.783        1.446        0.268      152.020       35.861        0.056      340.284       14.196      863.663
05/23/2014  01:11:00     -114.904      111.594      -30.579       57.132       46.506       36.320     3264.063     2162.775     1319.148        1.667        0.337      160.175       39.758        0.062      340.216       14.083      863.670
05/23/2014  01:12:00      -92.886       95.909      -17.868       45.727       39.108       27.261     2090.948     1529.433      743.153        1.125        0.218      133.515       29.315        0.048      340.176       14.015      863.677
05/23/2014  01:13:00     -122.593       55.307       -8.571       49.020       32.290       27.827     2402.932     1042.649      774.350        1.119        0.211      134.491       25.381        0.036      340.207       14.068      863.683
05/23/2014  01:14:00      -98.637       54.661      -16.790       37.348       37.750       24.823     1394.840     1425.048      616.170        0.822        0.172      112.770       23.122        0.042      340.168       14.002      863.689
05/23/2014  01:15:00      -60.405       24.822       -7.740       27.633       26.710       18.445      763.560      713.407      340.213        0.307        0.091       65.307       17.517        0.072      340.222       14.094      863.681
05/23/2014  01:16:00      -98.985       53.735      -23.400       47.079       36.150       23.114     2216.421     1306.855      534.264        0.864        0.203      112.630       29.371        0.068      340.187       14.035      863.680
05/23/2014  01:17:00      -94.986       38.520      -11.058       22.487       24.220       16.001      505.678      586.596      256.047        0.599        0.067      102.499        8.701        0.007      340.315       14.251      863.670
05/23/2014  01:18:00      -20.076       -7.966        7.314       39.624       25.058       16.956     1570.031      627.898      287.518        0.150        0.124       21.599       19.948        0.853      340.250       14.143      863.665
05/23/2014  01:19:00      -89.563      -20.629       -8.953       18.883       18.196       13.912      356.585      331.106      193.557        0.470        0.044       91.908        9.744        0.011      340.066       13.831      863.670
05/23/2014  01:20:00      -52.809       13.089       -9.530       32.998       28.649       16.246     1088.897      820.764      263.928        0.261        0.109       54.407       11.765        0.047      340.050       13.804      863.674
05/23/2014  01:21:00      -64.988       50.392      -20.465       30.356       40.838       21.040      921.499     1667.721      442.697        0.511        0.152       82.236       14.851        0.033      340.201       14.058      863.667
05/23/2014  01:22:00      -92.252        9.024      -15.021       25.105       38.418       12.741      630.243     1475.938      162.326        0.554        0.113       92.692       12.072        0.017      340.041       13.787      863.661
05/23/2014  01:23:00      -74.872      -10.869      -10.196       29.640       20.189       15.670      878.552      407.581      245.543        0.368        0.077       75.656       18.027        0.057      339.966       13.661      863.657
05/23/2014  01:24:00      -40.023       15.966       -1.294       19.214       31.280       13.631      369.172      978.419      185.794        0.170        0.077       43.090       15.711        0.133      340.036       13.778      863.652
05/23/2014  01:25:00      -42.997       14.263       -2.872       21.885       31.398       17.340      478.937      985.813      300.679        0.191        0.088       45.301       17.657        0.152      340.113       13.908      863.639
05/23/2014  01:26:00      -68.438        1.467       -6.602       38.911       28.938       20.994     1514.039      837.393      440.739        0.376        0.140       68.453       20.145        0.087      340.079       13.851      863.634
05/23/2014  01:27:00      -88.930       26.318      -19.929       20.250       18.537       12.698      410.044      343.603      161.231        0.496        0.046       92.743        9.196        0.010      340.071       13.839      863.619
05/23/2014  01:28:00      -83.064       57.566      -16.481       24.623       28.239       18.113      606.316      797.416      328.074        0.611        0.087      101.062       10.172        0.010      340.173       14.010      863.609
05/23/2014  01:29:00     -106.572       68.354      -22.329       30.445       33.137       19.898      926.900     1098.079      395.913        0.947        0.121      126.609       19.719        0.024      340.089       13.869      863.596
05/23/2014  01:30:00      -89.215       30.204      -11.519       34.214       33.836       18.996     1170.604     1144.872      360.837        0.584        0.134       94.189       22.375        0.056      340.243       14.129      863.583
05/23/2014  01:31:00      -45.483       20.200       -4.814       22.230       18.257       15.238      494.169      333.317      232.212        0.178        0.053       49.767       10.065        0.041      340.156       13.981      863.583
05/23/2014  01:32:00      -58.938       -5.507       -7.205       34.507       32.135       18.794     1190.763     1032.666      353.211        0.307        0.129       59.195       18.447        0.097      340.133       13.942      863.581
05/23/2014  01:33:00      -61.377       26.992      -13.110       21.006       25.479       14.077      441.271      649.180      198.155        0.298        0.064       67.050       11.675        0.030      340.045       13.795      863.583
05/23/2014  01:34:00      -65.640       42.396      -12.444       26.434       21.103       20.810      698.779      445.349      433.041        0.392        0.079       78.141       17.826        0.052      340.079       13.852      863.585
05/23/2014  01:35:00      -63.559       30.309       -7.926       21.438       20.340       17.898      459.607      413.726      320.329        0.311        0.060       70.416       11.492        0.027      340.135       13.946      863.593
05/23/2014  01:36:00      -72.505       49.963      -15.769       25.167       28.718       17.511      633.357      824.717      306.633        0.488        0.088       88.052       17.815        0.041      340.152       13.975      863.601
05/23/2014  01:37:00      -49.640       16.401       -4.289       31.938       32.165       16.809     1020.047     1034.574      282.535        0.254        0.117       52.280       18.933        0.131      340.167       14.000      863.601
05/23/2014  01:38:00      -40.818       19.280       -8.460       19.224       16.889       15.210      369.547      285.223      231.337        0.150        0.044       45.142       14.083        0.097      340.002       13.722      863.600
05/23/2014  01:39:00      -37.758        1.093       -0.260       17.758       27.295       14.036      315.333      745.012      196.999        0.134        0.063       37.774        6.413        0.029      340.049       13.801      863.601
05/23/2014  01:40:00      -49.435       21.603      -14.770       23.702       19.267       12.832      561.794      371.211      164.649        0.211        0.055       53.949       12.472        0.053      340.028       13.766      863.597
05/23/2014  01:41:00      -28.687       -6.939        1.726       23.057       14.395       11.563      531.643      207.202      133.698        0.087        0.044       29.514        8.707        0.087      339.998       13.716      863.594
05/23/2014  01:42:00      -24.188      -14.894       -3.547       11.437       11.415        7.079      130.812      130.292       50.107        0.057        0.016       28.406        2.432        0.007      339.913       13.571      863.597
05/23/2014  01:43:00      -21.133      -15.710       -5.987       10.399        9.890        5.964      108.140       97.810       35.569        0.049        0.012       26.332        4.297        0.027      339.872       13.507      863.597
05/23/2014  01:44:00      -10.850       -3.926       -5.419       10.362        7.649        4.611      107.375       58.512       21.266        0.017        0.009       11.539        3.609        0.098      339.881       13.518      863.608
05/23/2014  01:45:00      -18.759       10.253       -8.719       13.352       16.333        9.255      178.278      266.769       85.648        0.053        0.027       21.378        8.217        0.148      340.016       13.746      863.617
05/23/2014  01:46:00      -37.201       15.197      -11.692       14.536       10.817       10.671      211.294      117.004      113.868        0.110        0.022       40.186        1.979        0.002      340.056       13.814      863.622
05/23/2014  01:47:00      -17.234       15.151        5.674       12.699       14.135        7.622      161.270      199.786       58.100        0.049        0.021       22.947        6.058        0.070      340.076       13.846      863.633
05/23/2014  01:48:00      -63.256      -15.251       -7.986       32.128        9.551       12.462     1032.216       91.228      155.297        0.279        0.064       65.068       15.152        0.054      339.883       13.521      863.644
05/23/2014  01:49:00      -98.155      -29.771      -12.087       12.557       11.342        7.721      157.668      128.635       59.610        0.551        0.017      102.570        5.199        0.003      339.734       13.270      863.653
05/23/2014  01:50:00      -97.648      -26.819      -10.563       12.984       13.624       10.245      168.586      185.602      104.960        0.541        0.023      101.264        6.375        0.004      339.729       13.263      863.658
05/23/2014  01:51:00      -86.279      -46.536       -6.339       22.860       14.329       13.335      522.571      205.332      177.823        0.528        0.045       98.029       11.339        0.013      339.680       13.178      863.655
05/23/2014  01:52:00      -43.918      -29.687        0.032       19.379       12.412       13.255      375.547      154.069      175.698        0.176        0.035       53.010        7.736        0.021      339.700       13.215      863.652
05/23/2014  01:53:00      -77.567      -32.664      -10.154       17.643       11.312        8.023      311.293      127.967       64.366        0.385        0.025       84.164        1.620        0.000      339.706       13.224      863.645
05/23/2014  01:54:00      -65.358      -35.811       -9.724        9.817        8.569        8.735       96.375       73.431       76.298        0.295        0.012       74.526        5.712        0.006      339.726       13.257      863.642
05/23/2014  01:55:00      -41.419      -38.768       -7.592       27.769       23.860       18.622      771.130      569.277      346.777        0.248        0.084       56.732       17.109        0.091      339.752       13.302      863.640
05/23/2014  01:56:00      -57.624      -47.004        9.060       35.983       17.080       20.501     1294.749      291.722      420.301        0.381        0.100       74.363       20.847        0.079      339.732       13.268      863.631
05/23/2014  01:57:00      -71.400      -52.206       -0.281       19.483       16.812       12.507      379.594      282.643      156.437        0.432        0.041       88.450        6.581        0.006      339.693       13.201      863.625
05/23/2014  01:58:00      -52.123      -33.257       -3.350       25.142       13.196       13.880      632.101      174.127      192.652        0.242        0.050       61.829       13.850        0.050      339.710       13.229      863.616
05/23/2014  01:59:00      -55.102      -30.672        5.168       39.173       28.984       19.392     1534.489      840.089      376.069        0.338        0.138       63.064        6.972        0.012      339.828       13.429      863.600
05/23/2014  02:00:00      -67.844      -22.466       -8.815       22.142       29.419       14.252      490.247      865.462      203.120        0.337        0.078       71.467        8.030        0.013      339.841       13.451      863.584
05/23/2014  02:01:00      -70.240      -33.444       -2.586       38.226       24.793       15.280     1461.245      614.683      233.464        0.418        0.115       77.796       17.701        0.052      339.744       13.288      863.568
05/23/2014  02:02:00      -98.570      -16.854      -12.828       36.767       53.220       23.622     1351.831     2832.333      557.982        0.745        0.237      100.000       19.575        0.038      339.901       13.552      863.541
05/23/2014  02:03:00     -107.824      -62.632        1.204       29.623       43.074       21.274      877.543     1855.408      452.576        0.937        0.159      124.695       17.277        0.019      339.795       13.372      863.520
05/23/2014  02:04:00      -97.077      -30.651      -11.448       26.126       25.943       22.395      682.569      673.018      501.542        0.618        0.093      101.801       12.358        0.015      339.721       13.248      863.506
05/23/2014  02:05:00      -74.545      -64.879       -8.424       29.659       34.376       16.928      879.628     1181.700      286.554        0.609        0.117       98.824       17.706        0.032      339.648       13.126      863.494
05/23/2014  02:06:00      -68.026      -36.244       -4.385       37.919       29.743       19.498     1437.854      884.660      380.176        0.433        0.135       77.079       22.732        0.087      339.635       13.104      863.482
05/23/2014  02:07:00      -39.127      -22.033       -1.353       41.614       14.539       12.110     1731.691      211.376      146.643        0.205        0.104       44.904       15.183        0.114      339.645       13.120      863.473
05/23/2014  02:08:00      -15.843        0.203        4.170       36.685       30.646       17.962     1345.808      939.204      322.638        0.144        0.130       15.845       17.984        1.288      339.681       13.182      863.481
05/23/2014  02:09:00      -35.087       31.078       -5.596       33.202       30.668       20.444     1102.400      940.540      417.975        0.234        0.123       46.872       17.269        0.136      339.784       13.354      863.510
05/23/2014  02:10:00      -28.914       83.436       -6.901       39.568       37.752       23.586     1565.664     1425.200      556.310        0.570        0.177       88.304       14.943        0.029      339.824       13.421      863.545
05/23/2014  02:11:00       -5.817       31.809       -7.195       26.895       21.670       15.306      723.328      469.591      234.275        0.126        0.071       32.337        5.254        0.026      339.799       13.380      863.570
05/23/2014  02:12:00      -12.076       12.599       13.728       15.243       22.851       33.289      232.358      522.170     1108.177        0.118        0.093       17.452       22.645        1.684      339.714       13.238      863.599
05/23/2014  02:13:00       -6.609       17.822       59.009       15.961       40.376       23.309      254.767     1630.256      543.308        0.314        0.121       19.008       26.626        1.962      339.503       12.880      863.632
05/23/2014  02:14:00       48.840      -73.771       -7.059       40.695       50.037       34.828     1656.074     2503.737     1212.998        0.662        0.269       88.473       38.381        0.188      339.487       12.855      863.667
05/23/2014  02:15:00       93.486     -111.336      -21.595       18.311       20.580       13.305      335.302      423.518      177.030        1.127        0.047      145.379        8.230        0.003      339.393       12.696      863.694
05/23/2014  02:16:00       72.546      -88.774      -26.102       34.868       39.649       22.483     1215.752     1572.078      505.503        0.856        0.165      114.646        7.101        0.004      339.343       12.610      863.719
05/23/2014  02:17:00      -13.268      -44.958      -10.721       46.676       34.638       23.197     2178.627     1199.765      538.123        0.311        0.196       46.875       16.133        0.118      339.267       12.482      863.743
05/23/2014  02:18:00      -19.897      -13.885        2.665       18.861       17.196       12.657      355.751      295.692      160.207        0.070        0.041       24.263       12.821        0.279      339.326       12.583      863.761
05/23/2014  02:19:00      -39.409      -34.705       -3.142       28.665       14.697       13.671      821.659      216.016      186.898        0.200        0.061       52.512        8.217        0.024      339.525       12.919      863.770
05/23/2014  02:20:00      -73.238      -32.969        4.531       44.759       30.418       20.768     2003.369      925.275      431.311        0.491        0.168       80.317       13.659        0.029      339.333       12.596      863.770
05/23/2014  02:21:00      -81.748      -73.649        0.488       38.555       31.528       20.741     1486.474      994.036      430.205        0.751        0.146      110.031       17.434        0.025      339.283       12.510      863.775
05/23/2014  02:22:00      -76.046      -76.575        4.498       57.752       40.700       23.234     3335.336     1656.485      539.808        0.860        0.277      107.920       25.791        0.057      339.235       12.428      863.782
05/23/2014  02:23:00      -44.135      -66.039      -15.305       59.279       44.970       17.458     3513.960     2022.317      304.797        0.619        0.292       79.429       12.252        0.024      339.283       12.510      863.781
05/23/2014  02:24:00        4.398        0.614       17.250       21.920       21.299       23.259      480.505      453.662      540.968        0.090        0.074        4.441       16.512       13.826      339.332       12.592      863.788
05/23/2014  02:25:00       -2.532      -46.992        4.766       17.279       43.438       23.373      298.569     1886.876      546.309        0.248        0.137       47.061       12.013        0.065      339.446       12.785      863.786
05/23/2014  02:26:00      -12.209      -82.873        4.624       28.882       34.936       16.964      834.192     1220.494      287.774        0.469        0.117       83.768       11.043        0.017      339.557       12.970      863.772
05/23/2014  02:27:00      -94.456      -73.746      -20.230       26.698       52.219       20.430      712.784     2726.871      417.382        0.931        0.193      119.835       12.344        0.011      339.416       12.734      863.759
05/23/2014  02:28:00      -84.986      -21.777       -3.800       48.794       29.305       15.699     2380.871      858.768      246.470        0.560        0.174       87.732       10.372        0.014      339.428       12.752      863.768
05/23/2014  02:29:00      -24.104      -27.822        7.557       56.534       19.458       19.438     3196.122      378.611      377.841        0.268        0.198       36.812       29.374        0.637      339.302       12.541      863.777
05/23/2014  02:30:00      -41.922      -51.161       -5.105       31.821       25.438       17.044     1012.576      647.072      290.488        0.318        0.098       66.143       14.497        0.048      339.339       12.605      863.767
05/23/2014  02:31:00      -73.962      -10.579        3.457       29.295       41.929       21.227      858.214     1758.047      450.597        0.433        0.153       74.715       15.170        0.041      339.326       12.584      863.745
05/23/2014  02:32:00      -88.486      -48.863       -1.203       24.659       24.934       19.429      608.072      621.710      377.492        0.591        0.080      101.081       15.328        0.023      339.283       12.509      863.717
05/23/2014  02:33:00     -109.332      -68.972       -5.089       58.789       42.040       22.857     3456.088     1767.401      522.439        1.124        0.287      129.270       23.421        0.033      339.264       12.477      863.686
05/23/2014  02:34:00     -109.728      -91.475       -0.177       46.008       40.849       32.772     2116.728     1668.619     1074.034        1.263        0.243      142.856       25.448        0.032      339.209       12.385      863.662
05/23/2014  02:35:00     -114.866      -78.052        4.750       60.625       35.544       28.977     3675.358     1263.351      839.685        1.254        0.289      138.875       30.347        0.048      339.197       12.366      863.639
05/23/2014  02:36:00      -94.617      -59.066        7.334       59.306       44.577       32.048     3517.208     1987.107     1027.066        0.951        0.327      111.540       32.278        0.084      339.183       12.343      863.619
05/23/2014  02:37:00      -94.657      -70.640       10.691       61.377       36.789       26.677     3767.117     1353.427      711.687        0.995        0.292      118.110       27.727        0.055      339.175       12.327      863.611
05/23/2014  02:38:00      -38.169      -34.179        7.252       48.170       36.628       24.221     2320.311     1341.601      586.639        0.346        0.212       51.236       29.148        0.324      339.208       12.383      863.608
05/23/2014  02:39:00     -108.988       29.244       -9.021       53.477       32.616       17.714     2859.805     1063.787      313.783        0.853        0.212      112.844       17.024        0.023      339.311       12.557      863.605
05/23/2014  02:40:00     -116.382       -5.057      -11.418       56.573       29.887       24.358     3200.519      893.252      593.311        0.919        0.234      116.492       28.832        0.061      339.292       12.525      863.606
05/23/2014  02:41:00      -83.197        2.869       -8.428       35.563       43.880       16.166     1264.707     1925.455      261.347        0.523        0.173       83.247       18.185        0.048      339.285       12.513      863.601
05/23/2014  02:42:00      -75.344       94.042      -21.323       27.668       28.834       20.770      765.497      831.393      431.399        0.850        0.101      120.501       17.233        0.020      339.442       12.778      863.601
05/23/2014  02:43:00      -92.856       79.785      -18.201       32.060       30.165       23.044     1027.848      909.914      531.012        0.889        0.123      122.425       22.021        0.032      339.314       12.563      863.602
05/23/2014  02:44:00      -68.805       44.167       -4.109       32.782       29.589       22.460     1074.687      875.483      504.461        0.458        0.123       81.761       18.436        0.051      339.560       12.977      863.609
05/23/2014  02:45:00      -69.295       48.683      -15.908       22.573       20.750       16.501      509.531      430.548      272.298        0.432        0.061       84.687       12.136        0.021      339.477       12.837      863.612
05/23/2014  02:46:00      -95.966       53.615       -8.683       31.718       34.113       22.115     1006.047     1163.670      489.056        0.741        0.133      109.927       17.433        0.025      339.548       12.956      863.620
05/23/2014  02:47:00      -78.012       20.931       -1.240       35.502       32.852       18.190     1260.378     1079.252      330.881        0.460        0.134       80.771        3.045        0.001      339.629       13.094      863.629
05/23/2014  02:48:00      -32.981       20.398       -0.410       29.725       26.066       14.595      883.584      679.438      213.021        0.164        0.089       38.779       16.229        0.175      339.428       12.753      863.640
05/23/2014  02:49:00      -16.533      -13.829       -4.175       14.314       15.352       10.737      204.886      235.698      115.276        0.052        0.028       21.554        9.107        0.179      339.413       12.728      863.648
05/23/2014  02:50:00      -20.369      -13.154        5.364       18.501        8.714        9.526      342.302       75.932       90.750        0.056        0.025       24.247        8.152        0.113      339.530       12.925      863.651
05/23/2014  02:51:00      -19.508      -27.309       -3.578       26.706       18.596       14.680      713.195      345.816      215.504        0.121        0.064       33.560       12.352        0.135      339.488       12.855      863.659
05/23/2014  02:52:00      -14.202      -24.217        2.198       16.167       19.940       13.460      261.361      397.587      181.165        0.082        0.042       28.075       11.898        0.180      339.422       12.743      863.673
05/23/2014  02:53:00       -9.979        6.449        0.709        9.692       11.571        8.360       93.928      133.890       69.887        0.022        0.015       11.882        5.447        0.210      339.351       12.624      863.682
05/23/2014  02:54:00       27.813       28.381        5.549       11.961       13.291       12.926      143.068      176.652      167.085        0.105        0.024       39.737        4.747        0.014      339.247       12.449      863.694
05/23/2014  02:55:00       39.737       35.405       16.486       12.603        8.095       11.009      158.846       65.537      121.202        0.172        0.017       53.222        6.556        0.015      339.201       12.373      863.700
05/23/2014  02:56:00       42.392       25.866        6.186        7.650        7.210        8.692       58.517       51.980       75.559        0.135        0.009       49.660        3.843        0.006      339.199       12.369      863.701
05/23/2014  02:57:00       27.128       13.834        6.912       16.821       15.978       10.453      282.933      255.297      109.266        0.081        0.032       30.452        9.625        0.100      339.290       12.521      863.712
05/23/2014  02:58:00       14.525       10.844        6.640       14.794       14.957        9.722      218.872      223.712       94.521        0.045        0.027       18.127       10.093        0.310      339.288       12.517      863.720
05/23/2014  02:59:00       14.978        6.970        0.151       11.293       16.527       16.267      127.535      273.141      264.602        0.047        0.033       16.520       14.946        0.819      339.277       12.499      863.739
05/23/2014  03:00:00      -11.663       -1.302       -0.483        7.277        8.253        5.821       52.951       68.118       33.890        0.015        0.008       11.736        2.866        0.060      339.262       12.475      863.753
05/23/2014  03:01:00      -49.916       -8.965       -5.311       28.655       16.018       11.396      821.123      256.587      129.865        0.190        0.060       50.715       15.254        0.090      339.218       12.400      863.772
05/23/2014  03:02:00      -73.097      -35.939       -1.909       19.143       12.893       13.317      366.439      166.224      177.352        0.367        0.036       81.454       11.483        0.020      339.108       12.214      863.773
05/23/2014  03:03:00      -39.083      -30.195        3.317       26.507       16.544       14.022      702.599      273.699      196.618        0.181        0.059       49.388       10.422        0.045      339.080       12.168      863.770
05/23/2014  03:04:00      -18.489      -23.291        8.579       15.948        9.037        9.402      254.333       81.659       88.398        0.069        0.021       29.737        6.232        0.044      339.176       12.331      863.760
05/23/2014  03:05:00       -5.247      -27.452        1.448        9.814        7.595       11.986       96.321       57.690      143.665        0.054        0.015       27.949        6.543        0.055      339.248       12.451      863.745
05/23/2014  03:06:00       -2.300      -17.212       -0.468       16.218       20.537       14.008      263.038      421.751      196.223        0.059        0.044       17.365       10.943        0.397      339.253       12.459      863.734
05/23/2014  03:07:00      -16.364       -3.943       -4.162       11.918       22.494       10.233      142.036      505.998      104.708        0.053        0.038       16.833        5.610        0.111      339.242       12.442      863.730
05/23/2014  03:08:00      -16.099       11.195        5.890        9.356       10.229        8.610       87.544      104.642       74.127        0.034        0.013       19.609        6.848        0.122      339.301       12.541      863.721
05/23/2014  03:09:00      -11.061        1.164       13.553       15.186       21.072       14.833      230.620      444.029      220.016        0.060        0.045       11.122       11.393        1.049      339.144       12.277      863.714
05/23/2014  03:10:00      -15.484      -14.432        8.929       17.719       11.557       11.333      313.954      133.563      128.428        0.055        0.029       21.167        8.376        0.157      339.314       12.562      863.692
05/23/2014  03:11:00      -20.232        0.114        9.048       14.787        7.923        9.085      218.651       62.771       82.538        0.043        0.018       20.232        7.309        0.130      339.263       12.477      863.673
05/23/2014  03:12:00      -47.165      -22.208        0.704       18.370       17.346       15.894      337.452      300.897      252.626        0.180        0.045       52.131        7.392        0.020      339.303       12.542      863.650
05/23/2014  03:13:00     -107.268      -79.820       -6.421       35.921       24.802       19.708     1290.305      615.139      388.418        1.011        0.115      133.708        4.827        0.001      338.986       12.010      863.635
05/23/2014  03:14:00      -88.182      -48.411       -2.139       46.031       37.012       22.769     2118.836     1369.920      518.440        0.706        0.200      100.597       26.536        0.070      338.977       11.995      863.628
05/23/2014  03:15:00      -56.540      -41.909        6.497       36.975       26.954       18.109     1367.154      726.525      327.938        0.371        0.121       70.378       13.199        0.035      339.001       12.035      863.614
05/23/2014  03:16:00      -91.988      -72.783       -0.830       55.425       42.873       21.365     3071.919     1838.055      456.443        0.956        0.268      117.299       21.524        0.034      338.903       11.872      863.606
05/23/2014  03:17:00     -116.605      -71.509        3.128       56.778       42.265       25.408     3223.721     1786.353      645.591        1.219        0.283      136.786       23.878        0.030      338.840       11.764      863.604
05/23/2014  03:18:00     -102.912      -19.941       -0.377       58.364       44.502       30.412     3406.368     1980.469      924.895        0.865        0.316      104.826       31.503        0.090      338.724       11.570      863.604
05/23/2014  03:19:00     -145.708        3.174       -5.866       58.291       39.252       35.480     3397.830     1540.739     1258.800        1.374        0.310      145.743       36.151        0.062      338.589       11.342      863.598
05/23/2014  03:20:00     -100.316      -25.088        1.754       47.003       40.927       24.197     2209.244     1675.027      585.503        0.758        0.223      103.406       24.236        0.055      338.553       11.284      863.593
05/23/2014  03:21:00     -154.217      -53.758       -9.682       31.286       34.589       22.196      978.845     1196.376      492.683        1.472        0.133      163.318       14.571        0.008      338.444       11.099      863.596
05/23/2014  03:22:00     -169.106       -7.290      -18.727       59.990       40.057       29.281     3598.794     1604.540      857.381        1.753        0.303      169.263       34.175        0.041      338.588       11.342      863.593
05/23/2014  03:23:00     -102.887      -18.120       -4.259       44.643       40.835       31.760     1992.970     1667.466     1008.677        0.780        0.233      104.470       30.728        0.087      338.569       11.309      863.587
05/23/2014  03:24:00     -109.669      -27.088        0.195       31.844       39.933       26.613     1014.018     1594.664      708.275        0.804        0.166      112.965       20.338        0.032      338.444       11.100      863.590
05/23/2014  03:25:00     -110.093      -30.012       -9.974       44.223       41.585       21.705     1955.651     1729.280      471.108        0.864        0.208      114.110       23.008        0.041      338.474       11.150      863.586
05/23/2014  03:26:00     -100.943      -52.277       -4.721       43.823       32.209       21.893     1920.420     1037.419      479.305        0.819        0.172      113.676       20.422        0.032      338.441       11.094      863.585
05/23/2014  03:27:00     -118.434      -59.718      -13.033       15.658       14.184       10.980      245.160      201.194      120.560        0.916        0.028      132.638        6.867        0.003      338.462       11.129      863.581
05/23/2014  03:28:00     -111.818      -61.959       -6.819       31.287       21.541       16.090      978.885      464.021      258.903        0.904        0.085      127.837       14.306        0.013      338.573       11.316      863.583
05/23/2014  03:29:00      -67.893      -54.664        0.136       39.678       21.133       17.528     1574.379      446.590      307.247        0.496        0.116       87.165       15.570        0.032      338.651       11.448      863.587
05/23/2014  03:30:00      -64.875      -79.705       -7.157       34.404       24.361       14.319     1183.640      593.454      205.025        0.630        0.099      102.770       14.587        0.020      338.637       11.423      863.602
05/23/2014  03:31:00      -40.258      -63.325       -4.467       23.219       17.667        8.794      539.115      312.107       77.342        0.329        0.046       75.039        6.917        0.008      338.666       11.472      863.609
05/23/2014  03:32:00      -21.992      -42.928       -4.096       17.226       16.530       12.540      296.741      273.249      157.247        0.154        0.036       48.234       13.003        0.073      338.746       11.605      863.614
05/23/2014  03:33:00      -33.712      -57.529        2.525       34.611       30.079       22.445     1197.939      904.731      503.793        0.353        0.130       66.679       16.665        0.062      338.852       11.785      863.621
05/23/2014  03:34:00      -73.624     -104.819       -2.788       66.010       43.413       38.726     4357.317     1884.719     1499.716        1.208        0.387      128.091       36.216        0.080      338.690       11.513      863.644
05/23/2014  03:35:00      -44.304      -93.542       -4.034       46.207       48.278       25.237     2135.085     2330.787      636.886        0.792        0.255      103.504       23.729        0.053      338.702       11.533      863.652
05/23/2014  03:36:00      -69.921      -60.694        8.528       51.756       57.255       25.068     2678.649     3278.084      628.397        0.761        0.329       92.589       27.257        0.087      338.632       11.416      863.655
05/23/2014  03:37:00     -110.797      -79.651      -18.817       47.412       42.209       20.647     2247.865     1781.618      426.282        1.171        0.223      136.456       20.756        0.023      338.701       11.531      863.651
05/23/2014  03:38:00      -68.933      -45.335       18.660       55.648       32.294       26.867     3096.745     1042.921      721.831        0.601        0.243       82.504       23.164        0.079      338.742       11.601      863.652
05/23/2014  03:39:00      -62.995      -67.903        6.929       50.129       33.970       31.110     2512.926     1153.983      967.822        0.663        0.232       92.624       30.115        0.106      338.684       11.502      863.655
05/23/2014  03:40:00     -103.823     -133.148       -6.495       68.798       41.630       25.849     4733.127     1733.095      668.172        1.784        0.357      168.842       30.893        0.033      338.628       11.407      863.660
05/23/2014  03:41:00      -78.546      -82.582        3.512       44.767       41.567       20.477     2004.052     1727.791      419.318        0.858        0.208      113.970       19.330        0.029      338.629       11.412      863.665
05/23/2014  03:42:00     -100.946     -104.255       -3.423       56.040       40.736       32.230     3140.491     1659.418     1038.787        1.345        0.292      145.118       32.827        0.051      338.599       11.360      863.668
05/23/2014  03:43:00      -75.282      -77.256       -2.819       74.306       44.100       36.751     5521.320     1944.784     1350.650        1.023        0.441      107.869       35.772        0.110      338.610       11.378      863.677
05/23/2014  03:44:00      -49.591      -64.776        2.916       52.725       39.523       28.023     2779.940     1562.105      785.268        0.589        0.256       81.579       22.219        0.074      338.596       11.354      863.680
05/23/2014  03:45:00      -72.485      -69.526        4.496       51.890       38.583       27.361     2692.558     1488.661      748.602        0.752        0.246      100.439       22.866        0.052      338.534       11.251      863.690
05/23/2014  03:46:00      -98.822      -63.444       -8.115       42.312       30.014       23.959     1790.306      900.818      574.032        0.856        0.163      117.434       14.234        0.015      338.473       11.149      863.703
05/23/2014  03:47:00      -80.757      -65.361       -0.507       52.485       44.803       25.367     2754.702     2007.278      643.503        0.810        0.270      103.892       27.080        0.068      338.475       11.151      863.706
05/23/2014  03:48:00      -60.704      -51.510       -2.679       33.672       30.039       22.333     1133.837      902.358      498.764        0.444        0.127       79.613       14.606        0.034      338.482       11.163      863.706
05/23/2014  03:49:00      -71.701       -4.356       -2.383       39.319       29.034       20.127     1545.987      842.970      405.098        0.398        0.140       71.833       17.649        0.060      338.513       11.215      863.707
05/23/2014  03:50:00      -51.745       -0.574        3.997       48.570       33.300       29.843     2359.068     1108.906      890.596        0.353        0.218       51.748       30.055        0.337      338.431       11.078      863.703
05/23/2014  03:51:00      -72.824        8.720       -5.228       58.103       24.354       22.523     3375.901      593.100      507.295        0.494        0.224       73.344       28.863        0.155      338.377       10.987      863.710
05/23/2014  03:52:00     -118.046       -9.264       -4.085       26.987       24.880       23.471      728.306      619.030      550.909        0.797        0.095      118.409       18.512        0.024      338.220       10.724      863.713
05/23/2014  03:53:00     -109.256      -25.239      -14.559       29.890       22.420       15.607      893.413      502.636      243.569        0.721        0.082      112.133       14.789        0.017      338.116       10.550      863.707
05/23/2014  03:54:00      -90.967      -44.348       -2.587       27.222       25.971       15.669      741.052      674.488      245.505        0.595        0.083      101.201       13.352        0.017      338.093       10.511      863.698
05/23/2014  03:55:00      -79.841      -34.665        6.463       28.817       34.623       16.813      830.433     1198.739      282.678        0.496        0.116       87.041       18.014        0.043      338.060       10.456      863.685
05/23/2014  03:56:00      -80.792      -63.981       -4.072       21.008       40.309       14.971      441.344     1624.800      224.133        0.646        0.115      103.058       15.017        0.021      338.116       10.550      863.683
05/23/2014  03:57:00      -90.994      -11.707       -5.637       30.776       19.098       19.771      947.146      364.734      390.883        0.508        0.085       91.744       20.114        0.048      338.196       10.683      863.678
05/23/2014  03:58:00     -105.737      -37.862      -11.589       26.573       26.998       13.570      706.103      728.913      184.141        0.718        0.081      112.311        6.666        0.004      338.120       10.557      863.673
05/23/2014  03:59:00      -62.755      -46.795       -5.000       19.084       16.705       15.815      364.205      279.066      250.107        0.352        0.045       78.281       10.023        0.016      338.117       10.551      863.660
05/23/2014  04:00:00      -70.632      -36.552      -15.874       11.198       11.300        8.334      125.384      127.701       69.459        0.345        0.016       79.529        5.227        0.004      338.074       10.479      863.655
05/23/2014  04:01:00      -48.864       -7.281        1.217       30.944       31.537       24.225      957.518      994.591      586.869        0.249        0.127       49.404       23.523        0.227      338.190       10.675      863.640
05/23/2014  04:02:00      -48.695        2.977        0.293       33.596       20.027       18.434     1128.702      401.066      339.830        0.212        0.093       48.786       17.106        0.123      338.292       10.844      863.628
05/23/2014  04:03:00      -71.208        1.594       -6.150       26.953       23.679       15.964      726.473      560.690      254.845        0.333        0.077       71.226       14.404        0.041      338.486       11.170      863.612
05/23/2014  04:04:00     -100.043       21.428      -12.105       27.813       28.638       17.539      773.589      820.111      307.633        0.626        0.095      102.312       14.407        0.020      338.387       11.005      863.615
05/23/2014  04:05:00      -64.840      -13.317       -2.339       37.474       28.600       19.511     1404.301      817.985      380.673        0.349        0.130       66.194       19.029        0.083      338.360       10.959      863.618
05/23/2014  04:06:00      -50.310       10.264        0.961       38.429       28.350       21.713     1476.790      803.694      471.461        0.269        0.138       51.346       24.459        0.227      338.293       10.847      863.616
05/23/2014  04:07:00      -90.557       -6.275       -0.691       53.550       40.061       23.459     2867.625     1604.865      550.316        0.663        0.251       90.774       12.075        0.018      338.042       10.423      863.614
05/23/2014  04:08:00      -82.228       27.955      -13.379       29.879       41.263       25.112      892.784     1702.626      630.616        0.547        0.161       86.850       17.629        0.041      338.070       10.473      863.607
05/23/2014  04:09:00     -105.000       51.465      -16.691       41.927       60.477       26.009     1757.858     3657.523      676.492        1.002        0.305      116.935       28.914        0.061      338.123       10.561      863.613
05/23/2014  04:10:00      -30.737       -6.589       -0.469       30.784       29.116       20.523      947.663      847.756      421.192        0.160        0.111       31.435       16.859        0.288      338.170       10.638      863.618
05/23/2014  04:11:00      -90.183      -22.018      -10.622       29.833       32.549       20.600      889.991     1059.445      424.355        0.555        0.119       92.832       11.612        0.016      338.170       10.640      863.613
05/23/2014  04:12:00      -60.721      -22.272       -8.103       32.582       26.799       22.602     1061.582      718.192      510.868        0.327        0.115       64.677       21.936        0.115      338.106       10.533      863.606
05/23/2014  04:13:00      -64.677      -23.277       -7.767       23.508       41.889       17.656      552.618     1754.685      311.742        0.370        0.131       68.738       15.441        0.050      338.072       10.476      863.604
05/23/2014  04:14:00     -114.719      -49.074       -9.846       29.743       25.033       13.178      884.668      626.654      173.672        0.867        0.084      124.775        6.679        0.003      338.009       10.368      863.609
05/23/2014  04:15:00     -118.960      -22.262      -16.266       32.048       43.276       21.784     1027.090     1872.778      474.552        0.914        0.169      121.025       20.423        0.028      338.108       10.538      863.612
05/23/2014  04:16:00      -66.638       -2.521       -2.569       41.387       26.920       21.758     1712.855      724.690      473.395        0.368        0.146       66.686       23.699        0.126      338.029       10.402      863.608
05/23/2014  04:17:00      -90.738       10.532      -12.331       37.970       33.164       19.332     1441.723     1099.840      373.731        0.571        0.146       91.348        7.526        0.007      338.056       10.447      863.601
05/23/2014  04:18:00     -112.112       13.656      -10.986       22.725       19.728       19.247      516.431      389.213      370.439        0.708        0.064      112.941       10.340        0.008      337.893       10.175      863.590
05/23/2014  04:19:00     -113.802       -2.663      -14.429       38.982       35.324       21.498     1519.622     1247.817      462.163        0.820        0.161      113.833       13.539        0.014      337.886       10.161      863.591
05/23/2014  04:20:00      -84.619       26.887      -24.110       38.146       26.709       22.387     1455.092      713.369      501.199        0.557        0.133       88.788       11.967        0.018      337.952       10.275      863.591
05/23/2014  04:21:00      -32.930        9.698       -4.567       23.337       25.961       23.017      544.608      673.952      529.767        0.147        0.087       34.328       18.467        0.289      338.010       10.372      863.574
05/23/2014  04:22:00       -7.707      -19.688      -13.601       31.358       20.894       14.059      983.326      436.579      197.654        0.112        0.081       21.143        6.490        0.094      338.139       10.588      863.582
05/23/2014  04:23:00        6.949      -21.391       -4.146       18.959       13.083       11.403      359.430      171.154      130.023        0.059        0.033       22.491        6.818        0.092      338.169       10.637      863.595
05/23/2014  04:24:00      -71.798      -53.199       -4.852       22.965       18.905       15.754      527.384      357.398      248.183        0.457        0.057       89.359       10.547        0.014      338.164       10.629      863.611
05/23/2014  04:25:00      -54.019      -44.436        1.223       19.866       15.566       15.049      394.655      242.287      226.473        0.288        0.043       69.947        9.402        0.018      338.094       10.511      863.621
05/23/2014  04:26:00      -39.006      -36.494       -5.088       15.974       13.445        8.887      255.166      180.759       78.980        0.170        0.026       53.416        7.886        0.022      338.145       10.597      863.623
05/23/2014  04:27:00       -6.845      -33.219       -4.479       14.900       21.528       14.990      222.009      463.454      224.715        0.104        0.046       33.917       12.861        0.144      338.239       10.756      863.623
05/23/2014  04:28:00       -7.516      -36.895        0.796       10.543       12.853       10.446      111.148      165.190      109.124        0.090        0.019       37.653        4.533        0.014      338.333       10.912      863.621
05/23/2014  04:29:00      -13.476      -36.482       -0.980       19.894       17.590       15.675      395.773      309.404      245.710        0.123        0.048       38.892       10.235        0.069      338.376       10.985      863.619
05/23/2014  04:30:00      -39.383      -25.861       -3.245       27.881       19.961       16.243      777.331      398.452      263.832        0.183        0.072       47.115        7.417        0.025      338.137       10.585      863.615
05/23/2014  04:31:00      -10.069      -15.275        6.458       12.972       11.756        9.604      168.281      138.205       92.238        0.039        0.020       18.296        7.533        0.170      338.169       10.638      863.616
05/23/2014  04:32:00      -19.134      -28.721        3.364       24.494       16.557       10.095      599.967      274.143      101.915        0.109        0.049       34.511        8.594        0.062      338.296       10.852      863.629
05/23/2014  04:33:00      -18.030      -40.595        7.913       21.088       31.109       14.217      444.690      967.779      202.113        0.182        0.081       44.418       16.311        0.135      338.259       10.789      863.636
05/23/2014  04:34:00      -27.694      -59.264       -4.812       21.462       25.754       11.916      460.631      663.243      141.992        0.278        0.063       65.415       11.738        0.032      338.264       10.798      863.641
05/23/2014  04:35:00      -20.554      -31.174        6.278       24.343       22.120       15.306      592.578      489.297      234.266        0.137        0.066       37.340       16.651        0.199      338.280       10.824      863.648
05/23/2014  04:36:00      -47.964      -12.907       11.443       29.827       23.386       12.452      889.664      546.914      155.054        0.209        0.080       49.671       11.719        0.056      338.179       10.655      863.652
05/23/2014  04:37:00      -65.079      -46.527        1.654       26.337       24.206       20.503      693.663      585.920      420.388        0.405        0.085       80.000       17.559        0.048      338.186       10.667      863.656
05/23/2014  04:38:00      -22.515      -27.863        3.822       26.160       22.446       14.592      684.350      503.817      212.924        0.135        0.070       35.823       13.127        0.134      338.299       10.857      863.658
05/23/2014  04:39:00      -19.058      -58.114       -0.489       19.286       22.238       14.072      371.943      494.506      198.014        0.240        0.053       61.159        6.771        0.012      338.361       10.961      863.669
05/23/2014  04:40:00        3.388      -35.997       15.247       16.094       21.492       19.367      259.003      461.889      375.070        0.132        0.055       36.156        8.969        0.062      338.395       11.015      863.683
05/23/2014  04:41:00      -67.883      -17.092        1.712       26.466       14.641       13.298      700.457      214.354      176.844        0.300        0.055       70.002       10.327        0.022      338.269       10.805      863.690
05/23/2014  04:42:00      -66.988      -32.888       -4.500       20.448       14.263       11.784      418.126      203.445      138.861        0.317        0.038       74.626       10.717        0.021      338.239       10.757      863.700
05/23/2014  04:43:00      -58.500      -23.133        1.325       31.186       17.033       14.915      972.550      290.137      222.448        0.272        0.074       62.908       15.733        0.063      338.155       10.616      863.703
05/23/2014  04:44:00      -36.341      -21.752       10.409       30.958       19.829       17.114      958.382      393.201      292.883        0.177        0.082       42.354       15.031        0.126      338.167       10.635      863.716
05/23/2014  04:45:00      -62.124      -67.575       -0.841       44.686       43.368       18.727     1996.801     1880.813      350.701        0.633        0.211       91.792       20.814        0.051      338.129       10.570      863.722
05/23/2014  04:46:00     -103.967      -97.797      -10.652       34.823       27.868       23.656     1212.609      776.607      559.597        1.152        0.127      142.736       19.356        0.018      338.095       10.514      863.719
05/23/2014  04:47:00      -80.625      -72.688        0.433       43.092       37.725       27.545     1856.901     1423.156      758.720        0.791        0.202      108.554       24.811        0.052      338.077       10.482      863.720
05/23/2014  04:48:00     -109.714      -92.425        0.291       41.854       42.287       27.550     1751.719     1788.151      758.981        1.244        0.215      143.456       24.474        0.029      338.085       10.497      863.725
05/23/2014  04:49:00     -108.060     -101.591       -6.002       39.332       41.260       24.853     1546.974     1702.350      617.669        1.295        0.193      148.316       25.046        0.029      338.075       10.481      863.744
05/23/2014  04:50:00      -86.371      -71.129        2.399       55.329       34.198       32.338     3061.304     1169.475     1045.723        0.890        0.264      111.890       29.917        0.071      338.079       10.486      863.745
05/23/2014  04:51:00      -48.217      -51.161       -3.226       49.304       33.059       27.468     2430.844     1092.874      754.470        0.461        0.214       70.302       24.418        0.121      338.173       10.644      863.739
05/23/2014  04:52:00      -30.922      -50.869       -3.206       46.894       33.687       24.429     2199.057     1134.786      596.775        0.374        0.197       59.530       17.873        0.090      338.150       10.605      863.737
05/23/2014  04:53:00      -20.169      -44.182       -5.633       36.181       34.763       23.695     1309.066     1208.479      561.447        0.273        0.154       48.568       20.203        0.173      338.139       10.590      863.754
05/23/2014  04:54:00      -56.136      -53.604        8.433       55.699       26.618       26.049     3102.389      708.507      678.540        0.529        0.224       77.618       25.731        0.110      338.008       10.369      863.784
05/23/2014  04:55:00      -46.755      -55.474        1.253       33.859       23.386       21.256     1146.440      546.924      451.818        0.370        0.107       72.549       21.886        0.091      338.073       10.477      863.805
05/23/2014  04:56:00      -44.388      -46.486        6.899       38.423       22.997       21.887     1476.292      528.861      479.020        0.333        0.124       64.275       21.557        0.112      338.036       10.415      863.822
05/23/2014  04:57:00       -1.146      -53.564       24.104       21.414       24.689       20.914      458.574      609.546      437.390        0.248        0.075       53.576        9.145        0.029      338.055       10.446      863.831
05/23/2014  04:58:00       -9.158      -57.271        6.631       29.651       38.562       24.803      879.161     1487.031      615.211        0.319        0.149       57.999       26.890        0.215      338.059       10.454      863.843
05/23/2014  04:59:00      -44.435      -46.040       -0.563       37.544       26.629       21.240     1409.562      709.079      451.142        0.333        0.128       63.985        5.818        0.008      338.027       10.399      863.856
05/23/2014  05:00:00      -13.548      -34.122        1.137       23.819       29.072       19.077      567.348      845.170      363.914        0.156        0.089       36.714       17.595        0.230      337.986       10.334      863.861
05/23/2014  05:01:00      -16.856      -26.917        5.532       29.923       26.496       23.811      895.407      702.050      566.947        0.160        0.108       31.759       17.284        0.296      337.921       10.223      863.865
05/23/2014  05:02:00      -59.708      -59.482       -4.947       34.796       30.517       23.069     1210.757      931.310      532.163        0.490        0.134       84.280       15.536        0.034      337.895       10.179      863.883
05/23/2014  05:03:00      -68.723      -45.512       -1.593       36.534       31.492       19.146     1334.718      991.752      366.565        0.474        0.135       82.427       15.890        0.037      337.883       10.156      863.889
05/23/2014  05:04:00     -130.981      -35.055       -1.699       50.408       32.281       20.802     2540.961     1042.062      432.729        1.120        0.201      135.590       20.141        0.022      337.793       10.007      863.883
05/23/2014  05:05:00     -101.981      -50.059       -2.075       54.988       33.227       21.712     3023.672     1104.033      471.406        0.875        0.230      113.605       25.699        0.051      337.753        9.940      863.874
05/23/2014  05:06:00     -116.872      -41.276       -8.003       35.753       42.817       19.913     1278.293     1833.329      396.547        0.947        0.175      123.947       21.003        0.029      337.752        9.938      863.860
05/23/2014  05:07:00      -63.772       -8.971        2.132       37.904       28.530       20.073     1436.711      813.945      402.940        0.340        0.133       64.400       17.888        0.077      337.703        9.857      863.851
05/23/2014  05:08:00      -71.191      -18.426        1.176       34.132       25.968       18.542     1164.967      674.321      343.823        0.380        0.109       73.536       19.079        0.067      337.656        9.777      863.825
05/23/2014  05:09:00      -68.369      -41.375       -6.279       42.638       23.572       14.375     1817.993      555.625      206.647        0.450        0.129       79.914       15.264        0.036      337.741        9.919      863.797
05/23/2014  05:10:00      -79.357      -14.750       -2.387       38.798       25.263       18.933     1505.257      638.228      358.472        0.451        0.125       80.716       21.678        0.072      337.686        9.828      863.776
05/23/2014  05:11:00      -37.607       -6.884        5.020       25.211       29.460       16.565      635.571      867.905      274.399        0.163        0.089       38.232       16.874        0.195      337.611        9.701      863.764
05/23/2014  05:12:00      -89.038      -27.442       -5.624       33.821       25.912       19.660     1143.882      671.428      386.519        0.546        0.110       93.171       10.448        0.013      337.660        9.784      863.742
05/23/2014  05:13:00      -51.186        2.549        1.550       39.413       32.965       14.774     1553.389     1086.688      218.277        0.274        0.143       51.250       16.099        0.099      337.636        9.744      863.721
05/23/2014  05:14:00      -70.325       -5.128       -8.144       47.252       22.847       16.198     2232.772      521.999      262.363        0.403        0.151       70.512       19.952        0.080      337.605        9.693      863.703
05/23/2014  05:15:00     -116.230       -3.624      -10.631       24.352       27.558       22.026      593.014      759.432      485.156        0.774        0.092      116.286       14.606        0.016      337.657        9.778      863.692
05/23/2014  05:16:00     -140.166      -21.340      -17.153       26.821       21.652       14.459      719.350      468.788      209.056        1.090        0.070      141.781       10.160        0.005      337.504        9.522      863.683
05/23/2014  05:17:00     -100.271      -16.643      -10.409       47.675       32.749       21.732     2272.908     1072.498      472.266        0.713        0.191      101.643       23.019        0.051      337.505        9.522      863.677
05/23/2014  05:18:00      -75.712        3.891       -6.054       41.220       29.797       22.704     1699.091      887.872      515.461        0.444        0.155       75.812       18.836        0.062      337.552        9.603      863.678
05/23/2014  05:19:00     -136.981      -10.692      -18.705       20.094       20.999       16.924      403.749      440.946      286.434        1.018        0.057      137.397       10.600        0.006      337.536        9.576      863.696
05/23/2014  05:20:00      -51.035      -12.102        2.551       42.506       32.186       19.989     1806.778     1035.917      399.552        0.300        0.162       52.450       22.354        0.182      337.486        9.492      863.707
05/23/2014  05:21:00      -99.286       -9.579       -2.997       48.851       34.601       18.610     2386.385     1197.220      346.341        0.694        0.196       99.747       22.728        0.052      337.535        9.574      863.720
05/23/2014  05:22:00      -91.992      -28.070       -5.799       28.525       33.923       17.394      813.672     1150.790      302.568        0.578        0.113       96.179        9.778        0.010      337.596        9.676      863.737
05/23/2014  05:23:00     -112.301        0.880       -2.617       68.654       27.397       21.535     4713.348      750.583      463.735        0.927        0.296      112.305       32.710        0.085      337.612        9.704      863.754
05/23/2014  05:24:00     -127.809      -19.836      -11.749       34.626       29.073       21.916     1198.991      845.247      480.309        0.970        0.126      129.339       20.963        0.026      337.559        9.614      863.763
05/23/2014  05:25:00     -100.284      -12.313       -5.523       39.052       35.040       23.878     1525.026     1227.784      570.142        0.678        0.166      101.037       23.751        0.055      337.630        9.733      863.763
05/23/2014  05:26:00     -131.679      -20.006      -13.513       29.213       23.726       15.768      853.421      562.902      248.638        0.979        0.083      133.190       14.996        0.013      337.586        9.660      863.766
05/23/2014  05:27:00     -127.984      -26.480       -8.253       26.709       22.749       18.750      713.361      517.498      351.557        0.937        0.079      130.695       16.910        0.017      337.584        9.656      863.772
05/23/2014  05:28:00      -86.609      -19.148       -2.951       42.297       26.537       20.490     1789.053      704.210      419.835        0.539        0.146       88.701       22.047        0.062      337.665        9.793      863.768
05/23/2014  05:29:00      -82.008      -12.215      -11.329       34.228       24.668       16.572     1171.561      608.534      274.633        0.453        0.103       82.912       12.149        0.021      337.695        9.842      863.763
05/23/2014  05:30:00      -42.094      -13.755       -2.715       24.991       19.085       13.935      624.570      364.221      194.189        0.158        0.059       44.284       14.531        0.108      337.663        9.791      863.763
05/23/2014  05:31:00      -59.016        5.482       -8.707       19.281       13.080       14.547      371.775      171.083      211.613        0.217        0.038       59.270       11.103        0.035      337.726        9.896      863.778
05/23/2014  05:32:00      -63.882      -25.833       -8.284       15.108       12.750        9.817      228.263      162.575       96.367        0.265        0.024       68.907        4.622        0.004      337.789       10.000      863.781
05/23/2014  05:33:00      -47.431       -5.293       -1.339       21.676       20.469       11.428      469.839      418.965      130.607        0.165        0.051       47.725        4.592        0.009      337.865       10.128      863.783
05/23/2014  05:34:00      -23.296      -24.364        7.859       33.480       16.695       12.365     1120.900      278.711      152.900        0.138        0.078       33.710       12.607        0.140      337.877       10.149      863.790
05/23/2014  05:35:00      -51.854      -36.473       -4.536       22.144       12.098       13.881      490.378      146.368      192.671        0.243        0.041       63.397       12.900        0.041      337.834       10.076      863.796
05/23/2014  05:36:00      -38.588      -40.429       -3.830       28.048       18.012       12.823      786.717      324.441      164.425        0.221        0.064       55.888       13.710        0.060      337.870       10.137      863.815
05/23/2014  05:37:00      -23.516      -16.953        2.790       22.319       12.855        8.950      498.119      165.257       80.108        0.080        0.037       28.990       12.102        0.174      337.875       10.145      863.822
05/23/2014  05:38:00      -31.064      -22.002       -3.238       18.123        8.799       10.375      328.447       77.417      107.646        0.099        0.026       38.067        5.675        0.022      337.866       10.129      863.821
05/23/2014  05:39:00      -31.304      -23.790       -1.482       13.634       13.022       11.603      185.881      169.568      134.637        0.102        0.025       39.318       10.508        0.071      337.794       10.009      863.828
05/23/2014  05:40:00      -14.955       -5.746       -1.066       10.443        4.842        6.250      109.055       23.448       39.057        0.021        0.009       16.021        5.680        0.126      337.800       10.017      863.846
05/23/2014  05:41:00      -21.378      -13.243       -1.738       16.660        9.811        5.277      277.545       96.259       27.847        0.052        0.020       25.148        5.339        0.045      337.884       10.160      863.878
05/23/2014  05:42:00      -24.748      -15.458        9.671       31.143       16.375       17.049      969.908      268.148      290.654        0.124        0.076       29.179       11.818        0.164      337.801       10.021      863.896
05/23/2014  05:43:00      -27.028      -55.420        7.824       50.616       33.064       24.254     2562.024     1093.200      588.256        0.405        0.212       61.660       27.905        0.205      337.739        9.916      863.921
05/23/2014  05:44:00      -72.117      -61.524       -2.174       25.250       32.751       17.401      637.581     1072.656      302.792        0.550        0.101       94.795       14.587        0.024      337.695        9.843      863.946
05/23/2014  05:45:00      -44.283      -31.347       12.382       40.673       30.676       17.948     1654.312      941.028      322.127        0.301        0.146       54.255       21.273        0.154      337.728        9.899      863.961
05/23/2014  05:46:00      -49.996      -54.270        3.405       32.306       29.850       20.207     1043.687      891.022      408.322        0.390        0.117       73.789       18.919        0.066      337.767        9.963      863.989
05/23/2014  05:47:00      -35.620      -48.258        0.169       30.371       29.303       16.445      922.426      858.637      270.454        0.282        0.103       59.980       14.954        0.062      337.760        9.952      864.015
05/23/2014  05:48:00      -47.059      -17.087        1.835       25.464       17.090       15.589      648.440      292.058      243.002        0.185        0.059       50.065       15.004        0.090      337.749        9.932      864.029
05/23/2014  05:49:00      -60.897      -18.217       -8.233       20.173       14.383       12.141      406.930      206.863      147.402        0.243        0.038       63.563       11.653        0.034      337.799       10.018      864.044
05/23/2014  05:50:00      -21.857      -17.536        9.176       19.919       14.889       12.104      396.772      221.681      146.516        0.082        0.038       28.022        9.892        0.125      337.729        9.900      864.042
05/23/2014  05:51:00      -64.006      -45.867       -2.135       30.294       27.501       13.496      917.698      756.301      182.132        0.403        0.093       78.743       10.369        0.017      337.662        9.787      864.040
05/23/2014  05:52:00      -88.298      -60.885      -10.345       37.445       33.618       17.919     1402.155     1130.164      321.104        0.723        0.143      107.255       19.669        0.034      337.636        9.744      864.035
05/23/2014  05:53:00      -63.870      -45.211       11.421       53.923       30.051       22.991     2907.718      903.072      528.606        0.530        0.217       78.252       24.487        0.098      337.632        9.738      864.023
05/23/2014  05:54:00      -53.702      -13.787        6.048       31.077       24.590       16.861      965.757      604.677      284.288        0.248        0.093       55.444       14.900        0.072      337.605        9.692      864.015
05/23/2014  05:55:00      -76.703      -32.547       -6.356       29.560       19.295       15.005      873.817      372.302      225.149        0.423        0.074       83.323       11.341        0.019      337.616        9.711      864.030
05/23/2014  05:56:00      -57.826      -17.176       -7.904       20.758       29.538       12.831      430.904      872.478      164.646        0.258        0.073       60.323        7.529        0.016      337.621        9.718      864.037
05/23/2014  05:57:00      -52.493      -31.741       -6.834       23.858       19.257       11.394      569.199      370.840      129.825        0.244        0.053       61.343        9.543        0.024      337.596        9.679      864.040
05/23/2014  05:58:00      -29.222      -46.959        3.009       18.320       28.137       16.228      335.636      791.708      263.357        0.223        0.070       55.309       13.387        0.059      337.630        9.735      864.046
05/23/2014  05:59:00      -34.554      -51.663        4.830       30.503       29.835       16.683      930.432      890.111      278.314        0.299        0.105       62.154       14.181        0.052      337.641        9.752      864.035
05/23/2014  06:00:00      -88.874      -65.323       -4.630       29.169       27.015       22.837      850.814      729.797      521.515        0.714        0.105      110.298       19.700        0.032      337.409        9.363      864.021
05/23/2014  06:01:00     -125.253      -76.091       -1.313       38.514       36.191       20.980     1483.357     1309.799      440.146        1.236        0.162      146.554       20.210        0.019      337.408        9.362      864.008
05/23/2014  06:02:00     -105.847      -41.408       -4.636       31.149       27.832       18.731      970.290      774.599      350.845        0.752        0.105      113.658       13.863        0.015      337.386        9.325      863.994
05/23/2014  06:03:00      -80.683      -41.407      -14.285       21.386       18.384       13.316      457.361      337.962      177.323        0.470        0.049       90.688        8.730        0.009      337.409        9.365      863.990
05/23/2014  06:04:00      -45.779      -39.093        2.506       26.655       18.113       20.219      710.495      328.093      408.818        0.254        0.072       60.199       18.499        0.094      337.468        9.461      863.986
05/23/2014  06:05:00      -46.967       -5.150       -4.143       22.702       16.016        8.868      515.361      256.513       78.644        0.155        0.043       47.248        7.110        0.023      337.508        9.529      863.989
05/23/2014  06:06:00      -72.106      -12.838       -5.340       29.154       21.036       15.628      849.959      442.518      244.244        0.346        0.077       73.240       15.141        0.043      337.457        9.444      863.990
05/23/2014  06:07:00      -45.544      -10.666       -1.001       18.111       11.272        8.646      328.020      127.053       74.754        0.136        0.026       46.776        9.081        0.038      337.528        9.563      863.993
05/23/2014  06:08:00      -46.770      -19.879       -6.250        9.551       10.446        7.679       91.225      109.117       58.970        0.144        0.013       50.820        2.526        0.002      337.586        9.659      864.004
05/23/2014  06:09:00      -59.629      -14.070       -9.718        8.825       11.362        7.178       77.879      129.097       51.530        0.205        0.013       61.267        4.430        0.005      337.518        9.545      864.013
05/23/2014  06:10:00      -43.078      -26.951       -6.385       12.822       14.016       11.866      164.396      196.462      140.806        0.156        0.025       50.814        8.080        0.025      337.572        9.638      864.012
05/23/2014  06:11:00      -40.613       -7.984       -2.467       14.989       14.984       12.369      224.666      224.521      153.000        0.116        0.030       41.391        9.190        0.049      337.621        9.719      864.007
05/23/2014  06:12:00      -73.012      -18.265       -3.239       25.160       20.588       13.026      633.008      423.872      169.674        0.345        0.061       75.262       10.946        0.021      337.584        9.655      864.000
05/23/2014  06:13:00      -99.634      -18.543      -12.951       21.632       16.293       15.124      467.961      265.473      228.743        0.570        0.048      101.344       13.721        0.018      337.565        9.625      863.989
05/23/2014  06:14:00     -108.508       -3.553      -13.506       24.461       19.290       16.020      598.321      372.102      256.629        0.660        0.061      108.566       14.903        0.019      337.550        9.600      863.987
05/23/2014  06:15:00     -116.493        6.694       -8.102       43.505       20.320       19.216     1892.708      412.904      369.268        0.818        0.134      116.685       24.317        0.043      337.463        9.453      863.987
05/23/2014  06:16:00     -126.952        3.798       -8.292       38.294       23.330       19.768     1466.452      544.311      390.755        0.930        0.120      127.009       18.851        0.022      337.376        9.309      863.995
05/23/2014  06:17:00     -105.552       -8.962       -7.183       36.190       25.084       18.455     1309.699      629.218      340.596        0.678        0.114      105.932       21.993        0.043      337.389        9.330      864.003
05/23/2014  06:18:00      -87.374        2.623       -9.526       25.100       22.164       14.448      630.000      491.235      208.755        0.453        0.066       87.413        8.991        0.011      337.483        9.487      864.012
05/23/2014  06:19:00      -65.547       -5.656       -1.037       32.881       26.330       16.015     1081.148      693.257      256.493        0.318        0.102       65.790       14.822        0.051      337.515        9.539      864.009
05/23/2014  06:20:00      -23.379       -7.905       -3.031       22.272       15.085       13.416      496.045      227.546      179.986        0.076        0.045       24.679        7.202        0.085      337.639        9.748      864.015
05/23/2014  06:21:00      -76.837       -9.987       -5.237       28.844       25.465       14.676      831.972      648.465      215.392        0.386        0.085       77.483        7.337        0.009      337.560        9.614      864.024
05/23/2014  06:22:00      -32.479       -4.104        3.079       23.572       16.491       13.645      555.624      271.958      186.174        0.105        0.051       32.737       13.596        0.172      337.653        9.772      864.028
05/23/2014  06:23:00      -79.309      -18.612       -5.509       29.603       26.875       14.584      876.312      722.260      212.694        0.424        0.091       81.463       16.102        0.039      337.565        9.625      864.023
05/23/2014  06:24:00      -66.593        8.756        3.186       26.486       24.790       17.718      701.521      614.569      313.929        0.308        0.082       67.166       15.860        0.056      337.568        9.630      864.022
05/23/2014  06:25:00      -50.923       10.894        3.634       30.834       22.582       18.193      950.734      509.942      330.999        0.226        0.090       52.076       13.388        0.066      337.631        9.735      864.023
05/23/2014  06:26:00      -72.193        4.803       -2.608       33.685       17.888       16.692     1134.701      319.986      278.635        0.349        0.087       72.353       18.337        0.064      337.660        9.786      864.035
05/23/2014  06:27:00      -29.054       -7.732        5.341       23.165       19.628       13.354      536.616      385.270      178.328        0.102        0.055       30.065        7.683        0.065      337.725        9.894      864.052
05/23/2014  06:28:00      -16.420      -31.542       -6.043       19.229       13.800       14.844      369.761      190.448      220.335        0.104        0.039       35.559        4.366        0.015      337.832       10.071      864.060
05/23/2014  06:29:00       -4.376      -34.737        5.954       17.055       22.668       15.590      290.866      513.855      243.048        0.115        0.052       35.012       10.426        0.089      337.996       10.348      864.076
05/23/2014  06:30:00      -29.583       -5.562       18.527       16.784       11.138        9.231      281.714      124.044       85.217        0.087        0.025       30.102        8.809        0.086      338.021       10.390      864.095
05/23/2014  06:31:00       -3.933       11.582       31.162       10.583       15.093        8.086      111.998      227.806       65.384        0.076        0.020       12.231        7.983        0.426      338.223       10.728      864.102
05/23/2014  06:32:00       -3.871        2.758       23.993        8.268        9.887        7.388       68.360       97.752       54.583        0.041        0.011        4.753        3.897        0.672      338.468       11.140      864.092
05/23/2014  06:33:00        6.285        3.290       26.305       12.845       24.414        9.022      164.997      596.030       81.403        0.079        0.042        7.094        6.746        0.904      338.367       10.970      864.081
05/23/2014  06:34:00        8.431        9.476       26.957       14.191        9.623        9.036      201.383       92.594       81.650        0.063        0.019       12.684        5.482        0.187      338.363       10.962      864.078
05/23/2014  06:35:00       16.422       17.313       21.998       13.423       11.523        9.665      180.186      132.775       93.409        0.073        0.020       23.863        7.276        0.093      338.182       10.660      864.061
05/23/2014  06:36:00       -8.273        5.187       16.949       13.531       15.548       15.303      183.079      241.754      234.183        0.052        0.033        9.765       12.998        1.772      338.317       10.888      864.048
05/23/2014  06:37:00      -13.329       -8.008        1.688       13.627       11.159       12.137      185.689      124.529      147.296        0.035        0.023       15.550        9.008        0.336      338.231       10.743      864.044
05/23/2014  06:38:00      -12.570      -12.737       -2.767       18.610       11.387       11.046      346.315      129.653      122.014        0.046        0.030       17.895        3.804        0.045      338.169       10.638      864.036
05/23/2014  06:39:00       -7.439      -16.189        9.539       21.258       16.747       15.026      451.908      280.458      225.776        0.068        0.048       17.816       13.779        0.598      338.290       10.843      864.039
05/23/2014  06:40:00      -41.645       -8.573        6.986       20.229       14.693       16.293      409.207      215.885      265.447        0.137        0.045       42.518       11.329        0.071      338.126       10.567      864.041
05/23/2014  06:41:00      -44.060      -11.367       -7.954       25.380       28.204       14.335      644.163      795.464      205.489        0.189        0.082       45.503       11.365        0.062      338.031       10.408      864.044
05/23/2014  06:42:00      -33.446      -15.570        2.960       31.452       32.662       23.522      989.248     1066.837      553.306        0.199        0.130       36.893       19.227        0.272      338.202       10.693      864.057
05/23/2014  06:43:00      -25.655       14.191        4.528       62.643       49.187       32.635     3924.095     2419.356     1065.021        0.414        0.370       29.318       11.504        0.154      338.059       10.453      864.056
05/23/2014  06:44:00      -37.963      -24.461       -6.129       23.880       24.778       16.056      570.262      613.968      257.781        0.176        0.072       45.161        7.247        0.026      338.132       10.577      864.060
05/23/2014  06:45:00      -18.904       -9.397       14.809       24.766       26.618       23.704      613.336      708.543      561.887        0.127        0.094       21.111       22.582        1.144      338.462       11.129      864.055
05/23/2014  06:46:00      -38.833      -16.132        4.813       23.953       20.296       17.573      573.741      411.918      308.797        0.154        0.065       42.051       13.191        0.098      338.246       10.767      864.052
05/23/2014  06:47:00      -16.193       11.550       -6.861       11.493       16.951       12.907      132.078      287.344      166.582        0.051        0.029       19.890        9.253        0.216      338.246       10.768      864.063
05/23/2014  06:48:00      -34.024        3.895       -5.459       13.931       13.607       16.519      194.074      185.140      272.884        0.093        0.033       34.246       10.962        0.102      338.273       10.813      864.066
05/23/2014  06:49:00       -4.842        8.693       20.530       19.876       11.294       18.652      395.074      127.550      347.888        0.070        0.044        9.951       10.504        1.114      338.702       11.532      864.076
05/23/2014  06:50:00       32.364      -12.747       18.027       41.395       30.196       18.087     1713.563      911.818      327.152        0.224        0.148       34.784       16.908        0.236      338.404       11.032      864.078
05/23/2014  06:51:00       16.697      -28.045       13.536       23.075       40.037       31.557      532.445     1602.953      995.834        0.219        0.157       32.639       31.008        0.903      338.670       11.479      864.085
05/23/2014  06:52:00      -10.350        3.253        0.273       22.003       17.715       22.303      484.140      313.806      497.416        0.071        0.065       10.849       11.308        1.086      338.504       11.201      864.100
05/23/2014  06:53:00      -10.795        5.200       16.372       15.133       16.092       19.165      229.015      258.941      367.303        0.063        0.043       11.982       12.495        1.088      338.643       11.435      864.109
05/23/2014  06:54:00      -37.965       12.301        0.335       19.397       14.595       11.165      376.237      213.008      124.651        0.115        0.036       39.909        7.143        0.032      338.278       10.822      864.124
05/23/2014  06:55:00      -36.474      -10.047       -3.917       25.890       22.061       17.896      670.278      486.688      320.249        0.146        0.074       37.833       13.202        0.122      338.515       11.218      864.137
05/23/2014  06:56:00      -37.293      -10.086        0.107       29.188       22.283       21.191      851.940      496.543      449.057        0.164        0.090       38.633       21.575        0.312      338.508       11.208      864.139
05/23/2014  06:57:00      -27.438      -18.702        5.140       28.057       29.958       15.910      787.221      897.456      253.134        0.153        0.097       33.206       13.303        0.161      338.410       11.044      864.141
05/23/2014  06:58:00      -15.100      -10.284        5.289       22.919       16.795       14.583      525.287      282.085      212.653        0.069        0.051       18.270       11.727        0.412      338.577       11.323      864.143
05/23/2014  06:59:00      -44.054      -74.297       -1.365       30.571       26.473       14.702      934.612      700.813      216.140        0.466        0.093       86.376        9.736        0.013      338.277       10.821      864.153
05/23/2014  07:00:00      -23.031      -55.125       -4.508       49.771       21.486       18.583     2477.123      461.651      345.309        0.344        0.164       59.743       17.070        0.082      338.371       10.977      864.150
05/23/2014  07:01:00      -50.753      -26.052        6.204       37.535       27.769       18.760     1408.857      771.104      351.942        0.291        0.127       57.048       18.543        0.106      338.458       11.122      864.156
05/23/2014  07:02:00      -26.910      -42.774       15.914       36.826       32.152       15.664     1356.165     1033.742      245.358        0.272        0.132       50.535       20.544        0.165      338.514       11.217      864.154
05/23/2014  07:03:00      -53.073      -46.720        1.052       26.822       39.286       15.703      719.434     1543.392      246.596        0.375        0.125       70.707       20.495        0.084      338.464       11.133      864.146
05/23/2014  07:04:00      -77.116      -25.326        1.240       24.864       21.326       14.022      618.206      454.785      196.627        0.393        0.063       81.168       10.206        0.016      338.380       10.992      864.142
05/23/2014  07:05:00      -61.733      -26.282       -0.899       30.973       27.753       18.262      959.301      770.216      333.493        0.328        0.103       67.095       12.676        0.036      338.388       11.005      864.148
05/23/2014  07:06:00      -32.008      -40.640       -3.878       24.775       19.261       16.041      613.789      370.967      257.306        0.197        0.062       51.732       14.764        0.081      338.439       11.091      864.156
05/23/2014  07:07:00      -64.962      -49.465       -0.671       40.603       27.531       14.784     1648.563      757.955      218.570        0.465        0.131       81.651       15.194        0.035      338.489       11.176      864.176
05/23/2014  07:08:00      -60.084      -64.716       -6.852       16.576       32.089       11.836      274.776     1029.730      140.082        0.464        0.072       88.307       10.427        0.014      338.359       10.957      864.187
05/23/2014  07:09:00      -33.071      -59.230       -1.521       18.258       20.095       14.947      333.345      403.796      223.421        0.278        0.048       67.837       10.211        0.023      338.450       11.108      864.196
05/23/2014  07:10:00      -30.865      -36.976       -0.126       29.847       21.570       18.263      890.844      465.257      333.543        0.200        0.084       48.165       17.155        0.127      338.574       11.319      864.212
05/23/2014  07:11:00      -22.831      -19.091        6.501       26.413       21.892       18.487      697.623      479.252      341.784        0.122        0.076       29.761       16.286        0.299      338.835       11.757      864.210
05/23/2014  07:12:00      -23.609      -43.053        4.094       18.953       19.890       15.830      359.232      395.609      250.574        0.172        0.050       49.102       16.399        0.112      338.602       11.366      864.220
05/23/2014  07:13:00       -8.009       -4.818        7.804       11.931       11.262       12.022      142.342      126.824      144.526        0.028        0.021        9.347        7.779        0.693      339.068       12.150      864.225
05/23/2014  07:14:00       -2.307        6.907       28.935       20.769       20.044       12.791      431.348      401.764      163.620        0.094        0.050        7.282       11.461        2.477      339.324       12.580      864.223
05/23/2014  07:15:00        3.228       26.515       39.365       14.907       17.261        9.583      222.213      297.952       91.825        0.144        0.031       26.711        5.446        0.042      339.244       12.445      864.235
05/23/2014  07:16:00       43.533       25.110       17.777       28.602       23.631       17.356      818.062      558.419      301.229        0.226        0.084       50.256       13.313        0.070      338.848       11.779      864.245
05/23/2014  07:17:00      -19.047       16.960        7.252       23.293       13.245       18.167      542.581      175.428      330.039        0.088        0.052       25.503       16.272        0.407      339.166       12.313      864.265
05/23/2014  07:18:00      -15.455        7.708        8.103       19.418       10.314       10.036      377.048      106.375      100.727        0.047        0.029       17.271        9.700        0.315      339.020       12.067      864.275
05/23/2014  07:19:00      -22.032       -3.672        4.255       10.890       10.516        7.972      118.582      110.582       63.545        0.040        0.015       22.336        3.736        0.028      338.960       11.966      864.282
05/23/2014  07:20:00      -13.313       -6.139        6.001       11.934        9.036       12.310      142.419       81.647      151.540        0.031        0.019       14.660        7.610        0.269      339.301       12.542      864.288
05/23/2014  07:21:00       25.412       30.173       20.177       18.538       21.625       18.347      343.668      467.650      336.625        0.156        0.057       39.449       16.392        0.173      339.311       12.558      864.286
05/23/2014  07:22:00       33.729       45.046        5.391       12.938       14.777       14.627      167.397      218.374      213.956        0.190        0.030       56.274       11.396        0.041      338.919       11.899      864.285
05/23/2014  07:23:00       31.585       40.828        7.819       10.939       16.711       19.576      119.652      279.259      383.219        0.175        0.039       51.619       15.598        0.091      338.998       12.029      864.282
05/23/2014  07:24:00       16.973       23.037        5.399       13.755       25.410       22.571      189.194      645.689      509.431        0.110        0.067       28.614        8.362        0.085      339.155       12.296      864.282
05/23/2014  07:25:00        4.249        3.173        5.101       14.773       14.855       16.585      218.228      220.685      275.052        0.038        0.036        5.303        7.729        2.124      339.350       12.624      864.276
05/23/2014  07:26:00      -11.636       28.823       16.672       15.353       22.352       18.714      235.706      499.631      350.220        0.116        0.054       31.083        7.813        0.063      339.596       13.038      864.268
05/23/2014  07:27:00       -8.693        3.663       15.199       13.640       11.353       18.320      186.043      128.891      335.612        0.049        0.033        9.433        9.998        1.123      339.682       13.184      864.257
05/23/2014  07:28:00       19.808       17.147       11.868       19.506       13.022       25.157      380.468      169.569      632.876        0.100        0.059       26.199        9.465        0.131      339.389       12.689      864.243
05/23/2014  07:29:00       13.340       11.611        9.470       22.474       21.027       17.731      505.091      442.129      314.387        0.083        0.063       17.685       14.105        0.636      339.460       12.809      864.227
05/23/2014  07:30:00       46.854       19.284       10.458       21.239       17.156       20.926      451.084      294.342      437.899        0.193        0.059       50.667       13.752        0.074      339.312       12.560      864.214
05/23/2014  07:31:00       -2.291       11.253       12.322       24.057       13.075       17.671      578.722      170.948      312.272        0.067        0.053       11.484       13.791        1.442      339.809       13.397      864.207
05/23/2014  07:32:00       14.748       28.346       14.015       18.296       24.715       21.893      334.744      610.833      479.304        0.132        0.071       31.953       15.812        0.245      339.753       13.304      864.193
05/23/2014  07:33:00       29.428       38.431       -3.252       28.204       25.673       16.451      795.469      659.116      270.624        0.204        0.086       48.403       11.924        0.061      339.459       12.807      864.187
05/23/2014  07:34:00        0.567       40.117       14.475       18.892       24.425       20.005      356.894      596.564      400.214        0.159        0.068       40.121       12.318        0.094      339.860       13.484      864.186
05/23/2014  07:35:00       26.235       45.499        8.861       32.408       27.464       23.284     1050.309      754.288      542.147        0.259        0.117       52.521       18.491        0.124      339.748       13.295      864.188
05/23/2014  07:36:00       52.068       37.124        8.510       27.456       25.104       29.288      753.858      630.235      857.804        0.320        0.112       63.948       22.452        0.123      339.640       13.112      864.188
05/23/2014  07:37:00       58.319       47.222       11.095       22.618       20.352       25.004      511.552      414.223      625.214        0.365        0.078       75.040       14.338        0.037      339.474       12.834      864.184
05/23/2014  07:38:00       35.699       41.482        3.661       22.603       32.411       15.766      510.899     1050.452      248.552        0.241        0.090       54.728        6.211        0.013      339.629       13.093      864.192
05/23/2014  07:39:00       36.814       37.611       -1.518       33.369       32.968       17.539     1113.503     1086.902      307.629        0.264        0.125       52.630       12.073        0.053      339.510       12.894      864.191
05/23/2014  07:40:00        1.725       43.259       11.214       14.661       25.126       19.673      214.937      631.293      387.036        0.162        0.062       43.293       14.598        0.114      339.872       13.504      864.190
05/23/2014  07:41:00        1.292       47.249       -2.213       18.603       26.364       21.626      346.055      695.071      467.688        0.187        0.075       47.267       16.833        0.127      339.882       13.521      864.190
05/23/2014  07:42:00        6.221       26.699       19.508       24.995       25.429       18.911      624.755      646.622      357.609        0.138        0.081       27.415        6.762        0.061      340.296       14.219      864.207
05/23/2014  07:43:00       37.973       14.703       16.306       29.821       16.051       19.249      889.318      257.621      370.537        0.172        0.076       40.720       10.544        0.067      339.866       13.494      864.220
05/23/2014  07:44:00       41.742       34.885       16.274       31.485       25.210       27.082      991.303      635.537      733.437        0.279        0.118       54.401       19.706        0.131      340.099       13.886      864.240
05/23/2014  07:45:00       72.583       37.192       24.931       30.734       29.715       27.032      944.589      882.992      730.716        0.492        0.128       81.557        7.544        0.009      339.878       13.513      864.264
05/23/2014  07:46:00       64.946       74.363       66.589       38.807       40.067       38.806     1506.006     1605.331     1505.899        0.940        0.231       98.731       24.899        0.064      339.700       13.212      864.287
05/23/2014  07:47:00       86.039       61.487       22.864       31.067       21.930       32.554      965.183      480.912     1059.733        0.711        0.125      105.752       13.128        0.015      339.561       12.979      864.309
05/23/2014  07:48:00       44.522       40.717       37.061       33.043       28.738       24.069     1091.849      825.853      579.296        0.375        0.125       60.334       15.146        0.063      339.920       13.584      864.321
05/23/2014  07:49:00       42.778       44.390       26.494       24.690       25.392       32.651      609.621      644.760     1066.088        0.341        0.116       61.648       13.644        0.049      339.680       13.179      864.335
05/23/2014  07:50:00       -0.860      -31.595       -2.041       13.236       25.354       18.598      175.181      642.820      345.901        0.108        0.058       31.606        9.068        0.082      339.637       13.106      864.343
05/23/2014  07:51:00        9.331       25.806       43.970       23.991       30.744       21.889      575.554      945.222      479.139        0.234        0.100       27.441       20.438        0.555      340.305       14.234      864.337
05/23/2014  07:52:00       13.760       35.161       30.567       24.810       23.853       27.815      615.512      568.982      773.687        0.216        0.098       37.758       15.793        0.175      339.745       13.288      864.328
05/23/2014  07:53:00       36.862       45.779       29.992       73.398       44.609       32.837     5387.213     1989.972     1078.275        0.640        0.423       58.775       30.682        0.273      339.696       13.206      864.328
05/23/2014  07:54:00      149.788       95.709       36.272       40.134       33.819       40.003     1610.763     1143.743     1600.243        1.863        0.218      177.755       22.555        0.016      339.486       12.852      864.327
05/23/2014  07:55:00      123.431       97.613       44.932       66.709       36.094       53.686     4450.099     1302.775     2882.190        1.771        0.432      157.364       40.138        0.065      339.516       12.902      864.331
05/23/2014  07:56:00      131.564       71.146       13.950       41.021       36.044       31.051     1682.735     1299.203      964.182        1.326        0.197      149.569       10.577        0.005      339.566       12.985      864.339
05/23/2014  07:57:00      116.709       63.479       16.447       46.665       41.480       34.330     2177.621     1720.629     1178.555        1.150        0.254      132.856       18.697        0.020      339.720       13.247      864.332
05/23/2014  07:58:00       89.138       73.427       28.487       50.849       47.317       45.546     2585.655     2238.917     2074.472        1.052        0.345      115.486       20.172        0.031      339.798       13.377      864.326
05/23/2014  07:59:00       87.574       56.897       48.537       57.409       47.704       39.973     3295.782     2275.664     1597.859        1.021        0.358      104.434       29.894        0.082      339.841       13.450      864.323
05/23/2014  08:00:00       37.971       33.189       45.466       34.906       34.250       29.699     1218.440     1173.085      882.001        0.394        0.164       50.431       19.996        0.157      339.803       13.387      864.324
05/23/2014  08:01:00       42.611       27.920       36.241       44.098       46.812       21.511     1944.671     2191.345      462.720        0.425        0.230       50.943       13.632        0.072      339.859       13.481      864.324
05/23/2014  08:02:00        5.594      -47.452       16.933       24.410       56.680       24.425      595.846     3212.600      596.567        0.349        0.220       47.781       26.954        0.318      339.949       13.634      864.322
05/23/2014  08:03:00       31.371      -32.366       14.289       39.644       78.080       29.165     1571.612     6096.452      850.607        0.538        0.426       45.074       31.085        0.476      339.839       13.447      864.317
05/23/2014  08:04:00       28.673       16.986       16.719       55.790       38.046       27.297     3112.496     1447.476      745.109        0.335        0.265       33.326       31.938        0.918      340.418       14.425      864.324
05/23/2014  08:05:00      121.341       85.038       -0.732       31.778       35.638       27.240     1009.855     1270.044      742.002        1.249        0.151      148.173        8.699        0.003      339.773       13.336      864.325
05/23/2014  08:06:00       99.632       77.847       10.729       29.865       32.534       23.181      891.902     1058.491      537.345        0.929        0.124      126.438       14.136        0.012      339.913       13.572      864.330
05/23/2014  08:07:00      112.851       76.071        7.436       35.127       27.437       37.339     1233.922      752.789     1394.195        1.098        0.169      136.096       18.151        0.018      339.800       13.382      864.336
05/23/2014  08:08:00       88.144       56.865        7.537       25.831       32.769       27.876      667.239     1073.789      777.048        0.679        0.126      104.895       12.641        0.015      339.959       13.650      864.345
05/23/2014  08:09:00       -2.466       17.653       34.405       17.415       22.189       18.338      303.271      492.355      336.276        0.132        0.057       17.824       13.086        0.539      340.746       14.980      864.351
05/23/2014  08:10:00        9.266       29.660        6.144       22.442       21.138       19.281      503.625      446.797      371.765        0.116        0.066       31.074       12.126        0.152      340.353       14.316      864.365
05/23/2014  08:11:00       42.944       35.262        5.208       21.947       20.688       20.819      481.653      427.993      433.435        0.223        0.067       55.566       16.000        0.083      340.311       14.244      864.366
05/23/2014  08:12:00       73.935       39.724        8.070       29.997       23.765       25.137      899.829      564.768      631.876        0.460        0.105       83.931       10.731        0.016      340.310       14.242      864.374
05/23/2014  08:13:00       49.152       35.145        4.333       22.220       24.628       25.715      493.709      606.547      661.247        0.272        0.088       60.424       11.198        0.034      340.381       14.363      864.386
05/23/2014  08:14:00       44.166       46.456       38.579       38.610       41.274       23.812     1490.749     1703.532      567.004        0.468        0.188       64.100       10.791        0.028      340.315       14.251      864.393
05/23/2014  08:15:00       54.673       46.659       41.436       61.661       41.918       25.984     3802.134     1757.105      675.149        0.656        0.312       71.877       25.913        0.130      340.308       14.240      864.414
05/23/2014  08:16:00      104.118       66.235       12.249       46.850       30.795       32.340     2194.929      948.323     1045.883        0.978        0.209      123.400       12.193        0.010      339.972       13.672      864.426
05/23/2014  08:17:00       77.972       63.064       28.594       39.177       33.263       33.704     1534.865     1106.434     1135.950        0.733        0.189      100.283       25.253        0.063      339.956       13.645      864.448
05/23/2014  08:18:00       13.235       -5.216       36.941       26.381       40.017       24.386      695.976     1601.322      594.701        0.223        0.145       14.226       18.344        1.663      340.211       14.075      864.459
05/23/2014  08:19:00       19.728       37.863       57.120       41.579       44.176       22.832     1728.847     1951.540      521.293        0.464        0.210       42.694       19.289        0.204      340.414       14.417      864.476
05/23/2014  08:20:00       65.359       66.878       46.054       52.405       39.037       35.625     2746.310     1523.854     1269.106        0.820        0.277       93.512       27.481        0.086      340.096       13.882      864.490
05/23/2014  08:21:00      105.832      105.544       68.546       62.874       44.140       53.906     3953.182     1948.358     2905.827        1.792        0.440      149.465       45.113        0.091      340.093       13.874      864.498
05/23/2014  08:22:00       40.697       50.119       13.953       43.765       33.097       30.859     1915.381     1095.399      952.294        0.416        0.198       64.561       27.715        0.184      340.327       14.271      864.502
05/23/2014  08:23:00      122.137       90.441       25.669       42.985       39.545       31.341     1847.735     1563.779      982.228        1.407        0.220      151.977       11.911        0.006      340.336       14.284      864.500
05/23/2014  08:24:00       98.565       93.937       17.339       53.552       39.899       39.410     2867.790     1591.916     1553.127        1.243        0.301      136.159       24.749        0.033      340.165       13.997      864.496
05/23/2014  08:25:00       71.841       68.423       12.190       44.056       31.186       25.733     1940.937      972.569      662.189        0.678        0.179       99.211       12.797        0.017      340.255       14.149      864.485
05/23/2014  08:26:00       95.840       58.959        6.780       58.547       34.019       32.416     3427.773     1157.299     1050.790        0.917        0.282      112.523        7.838        0.005      340.404       14.402      864.484
05/23/2014  08:27:00      118.697       49.264       17.487       54.642       40.740       30.929     2985.706     1659.758      956.604        1.121        0.280      128.514       16.451        0.016      340.525       14.605      864.480
05/23/2014  08:28:00      155.239       97.797       18.120       75.911       53.956       46.130     5762.520     2911.265     2127.932        2.239        0.540      183.476       36.697        0.040      340.366       14.334      864.497
05/23/2014  08:29:00      166.101       98.104       10.941       53.487       55.228       39.938     2860.877     3050.126     1595.020        2.242        0.375      192.909       27.178        0.020      340.251       14.140      864.500
05/23/2014  08:30:00      152.349      100.325       42.912       51.596       45.251       45.497     2662.166     2047.610     2069.992        2.095        0.339      182.416       30.902        0.029      340.322       14.262      864.512
05/23/2014  08:31:00       69.860       83.274       90.483       51.127       42.473       29.991     2613.998     1803.938      899.453        1.266        0.266      108.697       20.859        0.037      340.456       14.488      864.516
05/23/2014  08:32:00      128.339       87.899       31.468       54.364       35.963       36.419     2955.458     1293.309     1326.316        1.538        0.279      155.555       33.640        0.047      340.353       14.314      864.529
05/23/2014  08:33:00       26.239       31.810        8.359       56.015       58.038       33.747     3137.631     3368.386     1138.881        0.471        0.382       41.235       38.453        0.870      340.411       14.413      864.531
05/23/2014  08:34:00       44.332       71.639       62.597       52.987       65.432       42.857     2807.647     4281.402     1836.743        0.997        0.446       84.247       36.102        0.184      340.527       14.610      864.530
05/23/2014  08:35:00       84.376       77.627       65.779       59.454       34.500       37.037     3534.765     1190.276     1371.754        1.178        0.305      114.653       18.704        0.027      340.374       14.351      864.535
05/23/2014  08:36:00       83.553       83.529       51.996       66.348       43.341       52.731     4402.013     1878.449     2780.511        1.286        0.453      118.145       44.564        0.142      340.568       14.678      864.533
05/23/2014  08:37:00      120.671      105.738       62.498       78.883       41.142       49.627     6222.452     1692.670     2462.801        2.001        0.519      160.443       37.104        0.053      340.254       14.146      864.538
05/23/2014  08:38:00      124.069      100.758       31.278       49.813       40.538       37.739     2481.371     1643.334     1424.232        1.604        0.277      159.829       18.709        0.014      340.356       14.320      864.536
05/23/2014  08:39:00       83.745       75.972       29.808       40.051       31.775       32.036     1604.056     1009.650     1026.297        0.866        0.182      113.071       15.492        0.019      340.474       14.520      864.534
05/23/2014  08:40:00       16.631       10.434       55.877       32.340       47.541       39.291     1045.858     2260.184     1543.747        0.418        0.242       19.633       28.199        2.063      341.029       15.458      864.524
05/23/2014  08:41:00        2.498       25.387       38.314       49.995       37.743       42.818     2499.540     1424.537     1833.366        0.394        0.288       25.510       24.851        0.949      340.639       14.799      864.537
05/23/2014  08:42:00       15.549      -33.051       28.916       30.383       44.556       28.820      923.099     1985.269      830.619        0.295        0.187       36.526       20.351        0.310      340.694       14.893      864.539
05/23/2014  08:43:00       33.889       65.033       66.101       51.246       68.760       51.015     2626.142     4727.948     2602.575        0.985        0.498       73.333       47.016        0.411      340.688       14.881      864.534
05/23/2014  08:44:00      119.930       80.455       22.540       49.389       42.582       39.247     2439.227     1813.236     1540.292        1.358        0.290      144.417       16.928        0.014      340.585       14.706      864.533
05/23/2014  08:45:00       91.648       72.014       27.766       79.902       42.125       33.679     6384.268     1774.474     1134.267        1.182        0.465      116.557       41.097        0.124      340.579       14.696      864.541
05/23/2014  08:46:00       98.680       71.741       10.710       39.434       29.705       24.993     1555.001      882.380      624.646        0.903        0.153      122.002       19.855        0.026      340.416       14.422      864.537
05/23/2014  08:47:00       42.749       71.339        8.232       50.813       38.121       38.720     2581.934     1453.249     1499.208        0.626        0.277       83.167       23.567        0.080      340.736       14.964      864.533
05/23/2014  08:48:00      140.635       91.083       44.587       53.724       43.063       46.034     2886.277     1854.445     2119.174        1.846        0.343      167.554       23.383        0.019      340.535       14.621      864.532
05/23/2014  08:49:00      153.826       90.831       28.576       55.648       40.833       38.946     3096.689     1667.345     1516.808        1.950        0.314      178.642       15.522        0.008      340.556       14.656      864.526
05/23/2014  08:50:00       70.188       90.425       83.320       64.120       32.214       32.273     4111.368     1037.765     1041.567        1.312        0.310      114.468       26.904        0.055      340.640       14.800      864.528
05/23/2014  08:51:00       93.082       60.380       27.264       36.634       34.457       46.127     1342.027     1187.295     2127.671        0.885        0.233      110.951       31.921        0.083      340.485       14.539      864.527
05/23/2014  08:52:00       93.110       67.707       -1.559       45.981       45.675       33.616     2114.286     2086.165     1130.056        0.929        0.267      115.124       34.172        0.088      340.779       15.035      864.528
05/23/2014  08:53:00       68.031       52.205       12.686       40.515       31.730       30.699     1641.494     1006.773      942.453        0.555        0.180       85.753       20.790        0.059      340.798       15.067      864.509
05/23/2014  08:54:00       52.483       53.259       16.064       49.900       33.243       32.575     2490.001     1105.127     1061.149        0.525        0.233       74.772       20.889        0.078      340.996       15.403      864.506
05/23/2014  08:55:00      -20.333      100.409       -6.443       29.006       43.797       27.900      841.333     1918.215      778.397        0.704        0.177      102.447       27.532        0.072      340.876       15.198      864.480
05/23/2014  08:56:00       57.698       47.512       25.823       47.961       36.005       31.166     2300.218     1296.364      971.306        0.541        0.228       74.743       15.822        0.045      341.048       15.492      864.478
05/23/2014  08:57:00       45.727       29.473       16.413       51.754       35.731       24.916     2678.440     1276.692      620.787        0.390        0.229       54.402       20.189        0.138      341.028       15.458      864.471
05/23/2014  08:58:00       65.573       62.009       12.623       50.282       27.407       27.830     2528.329      751.167      774.493        0.618        0.203       90.249       22.712        0.063      340.962       15.346      864.473
05/23/2014  08:59:00       69.448       38.548       12.595       43.815       36.054       30.076     1919.767     1299.876      904.543        0.530        0.206       79.429       19.077        0.058      340.777       15.032      864.466
05/23/2014  09:00:00       52.714       27.398       21.839       28.483       22.469       30.119      811.280      504.847      907.158        0.311        0.111       59.409       12.315        0.043      341.032       15.464      864.459
05/23/2014  09:01:00       20.589       23.924       35.630       41.038       37.673       23.408     1684.146     1419.242      547.918        0.296        0.183       31.564       14.009        0.197      341.457       16.184      864.444
05/23/2014  09:02:00       69.445       52.957        7.620       26.573       27.917       25.367      706.105      779.369      643.461        0.491        0.106       87.333       17.955        0.042      340.955       15.333      864.444
05/23/2014  09:03:00       50.744       24.702       20.772       25.975       23.641       19.750      674.688      558.897      390.061        0.262        0.081       56.436       10.031        0.032      341.101       15.581      864.444
05/23/2014  09:04:00      123.000       61.490       16.484       39.953       29.467       32.581     1596.260      868.327     1061.502        1.135        0.176      137.514       17.038        0.015      340.992       15.397      864.446
05/23/2014  09:05:00       86.834       31.831       14.640       30.770       30.364       23.961      946.783      921.959      574.132        0.560        0.122       92.484       10.147        0.012      341.295       15.908      864.440
05/23/2014  09:06:00        0.286       70.998       11.549       42.176       47.574       30.347     1778.844     2263.247      920.937        0.507        0.248       70.998       21.217        0.089      341.805       16.776      864.449
05/23/2014  09:07:00        0.230       35.408        4.874       36.867       41.251       20.193     1359.199     1701.669      407.739        0.237        0.173       35.409       17.799        0.253      341.852       16.851      864.442
05/23/2014  09:08:00        3.066       21.869       55.284       25.520       28.931       23.179      651.248      836.981      537.280        0.278        0.101       22.083       10.918        0.244      342.151       17.360      864.443
05/23/2014  09:09:00       95.431       62.511       58.046       77.807       39.242       34.505     6053.861     1539.955     1190.588        1.258        0.439      114.082       31.350        0.076      341.335       15.977      864.436
05/23/2014  09:10:00       94.339       72.937       23.960       42.762       34.598       42.294     1828.629     1197.043     1788.807        0.980        0.241      119.246       15.380        0.017      341.080       15.545      864.439
05/23/2014  09:11:00       86.696       64.749       17.709       35.853       36.467       25.351     1285.418     1329.820      642.672        0.764        0.163      108.206        8.653        0.006      341.223       15.786      864.437
05/23/2014  09:12:00      126.024       94.909       21.926       37.504       32.354       37.193     1406.584     1046.809     1383.316        1.460        0.192      157.765       21.110        0.018      341.146       15.656      864.434
05/23/2014  09:13:00       87.800       72.845       16.717       40.389       27.345       34.853     1631.279      747.725     1214.749        0.844        0.180      114.084       15.571        0.019      341.482       16.225      864.419
05/23/2014  09:14:00       80.482       61.308       30.450       31.538       40.962       37.284      994.667     1677.887     1390.113        0.761        0.203      101.173       18.690        0.034      341.804       16.773      864.405
05/23/2014  09:15:00       21.393       79.493       -2.197       37.565       50.269       30.843     1411.147     2526.959      951.316        0.583        0.244       82.321       27.942        0.115      341.761       16.699      864.402
05/23/2014  09:16:00       69.198       58.616       51.001       44.955       42.676       38.658     2020.948     1821.219     1494.419        0.808        0.267       90.687       26.452        0.085      341.827       16.811      864.389
05/23/2014  09:17:00       16.861       57.493       68.587       29.357       42.246       26.686      861.806     1784.691      712.157        0.583        0.168       59.915       16.466        0.076      341.871       16.885      864.370
05/23/2014  09:18:00      -10.641       32.557       72.812       20.295       33.870       23.535      411.904     1147.204      553.919        0.429        0.106       34.252       20.129        0.345      342.217       17.472      864.362
05/23/2014  09:19:00      -15.221       -5.848       29.737       25.511       22.753       30.284      650.807      517.693      917.119        0.162        0.104       16.306       22.537        1.910      342.083       17.245      864.347
05/23/2014  09:20:00       -9.660       16.695       33.541       12.623       16.886       16.331      159.340      285.152      266.688        0.110        0.036       19.288        6.685        0.120      342.826       18.509      864.339
05/23/2014  09:21:00      -14.515        3.244       22.100       17.072       14.847       17.213      291.447      220.425      296.282        0.076        0.040       14.873       10.972        0.544      342.628       18.172      864.333
05/23/2014  09:22:00      -19.744       17.025       20.338       23.701       31.899       17.550      561.754     1017.520      308.002        0.149        0.094       26.071       10.843        0.173      342.631       18.179      864.322
05/23/2014  09:23:00      -20.376        3.443       24.694       19.015       22.398       14.204      361.559      501.691      201.761        0.105        0.053       20.664        9.749        0.223      342.559       18.053      864.316
05/23/2014  09:24:00      -49.589        2.686       13.553       35.340       17.158       17.045     1248.905      294.385      290.522        0.224        0.092       49.662       17.211        0.120      341.770       16.714      864.301
05/23/2014  09:25:00      -22.455        1.877       12.869       22.063       30.095       22.805      486.798      905.733      520.056        0.129        0.096       22.533       17.759        0.621      342.075       17.231      864.289
05/23/2014  09:26:00      -18.111      -59.147       11.168       51.465       39.688       32.914     2648.595     1575.171     1083.364        0.463        0.265       61.858       25.034        0.164      341.980       17.069      864.282
05/23/2014  09:27:00       20.640      -38.755       31.401       33.945       48.554       34.815     1152.279     2357.501     1212.076        0.382        0.236       43.908       25.983        0.350      342.516       17.982      864.266
05/23/2014  09:28:00       48.303      -46.096       21.143       55.537       53.166       45.648     3084.354     2826.660     2083.759        0.645        0.400       66.768       47.878        0.514      342.092       17.259      864.270
05/23/2014  09:29:00       27.481       -8.179       26.448       49.569       41.013       30.056     2457.069     1682.067      903.379        0.328        0.252       28.672       29.894        1.087      342.155       17.368      864.274
05/23/2014  09:30:00       -2.819      -20.108       10.571       29.032       21.901       23.494      842.876      479.646      551.980        0.120        0.094       20.305       21.037        1.073      342.053       17.195      864.254
05/23/2014  09:31:00      -19.818      -54.566       -9.397       40.722       67.784       30.100     1658.266     4594.669      905.994        0.531        0.358       58.054       12.787        0.049      341.949       17.016      864.255
05/23/2014  09:32:00       18.566     -132.982       -3.299       38.636       60.865       36.416     1492.738     3704.501     1326.150        1.228        0.326      134.272       23.443        0.030      341.898       16.931      864.256
05/23/2014  09:33:00       28.830       -1.673       43.883       35.514       39.911       37.312     1261.239     1592.907     1392.161        0.350        0.212       28.879       29.616        1.052      342.505       17.963      864.252
05/23/2014  09:34:00       45.618      -56.012        6.239       41.359       46.439       44.374     1710.552     2156.608     1969.046        0.555        0.292       72.238       30.429        0.177      342.141       17.344      864.254
05/23/2014  09:35:00       26.996      -55.151       10.239       36.704       52.838       44.283     1347.162     2791.850     1961.020        0.499        0.305       61.404       45.680        0.553      342.150       17.359      864.249
05/23/2014  09:36:00       -8.793       28.150       59.791       21.352       35.576       19.598      455.901     1265.624      384.093        0.327        0.105       29.491       15.596        0.280      342.806       18.474      864.239
05/23/2014  09:37:00        0.524       14.257       59.567       29.926       37.995       23.942      895.552     1443.638      573.221        0.333        0.146       14.266       12.658        0.787      342.753       18.384      864.235
05/23/2014  09:38:00       64.647        3.435       30.045       44.241       40.919       43.673     1957.280     1674.395     1907.347        0.532        0.277       64.738       28.759        0.197      341.955       17.027      864.237
05/23/2014  09:39:00        9.878      -24.950       -6.676       26.385       28.815       21.937      696.144      830.304      481.224        0.139        0.100       26.835       12.644        0.222      341.876       16.893      864.233
05/23/2014  09:40:00        1.359       37.486       -5.056       19.111       35.673       29.228      365.223     1272.578      854.288        0.196        0.125       37.511       24.208        0.416      341.907       16.947      864.221
05/23/2014  09:41:00       28.907       36.271       21.230       23.941       26.504       22.508      573.175      702.444      506.620        0.219        0.089       46.381       18.205        0.154      342.443       17.856      864.210
05/23/2014  09:42:00       12.360       57.694        9.656       49.970       48.253       33.311     2496.982     2328.305     1109.617        0.475        0.297       59.003       30.177        0.262      342.299       17.612      864.213
05/23/2014  09:43:00       12.591       41.520       28.733       26.421       43.494       27.386      698.061     1891.766      749.970        0.302        0.167       43.387       24.617        0.322      342.715       18.320      864.196
05/23/2014  09:44:00       15.589       47.983       16.249       31.372       47.918       28.930      984.177     2296.103      836.941        0.346        0.206       50.452       31.269        0.384      342.466       17.897      864.177
05/23/2014  09:45:00       10.247       18.417       26.287       20.477       24.747       20.356      419.314      612.402      414.363        0.129        0.072       21.076        9.395        0.199      342.760       18.396      864.166
05/23/2014  09:46:00       -6.200        1.066       26.588       23.513       18.100       12.768      552.859      327.594      163.011        0.089        0.052        6.291       11.935        3.599      343.381       19.454      864.161
05/23/2014  09:47:00       22.118       23.971       -2.181       37.786       32.600       28.457     1427.781     1062.775      809.816        0.218        0.165       32.616       15.488        0.225      342.555       18.047      864.157
05/23/2014  09:48:00       -3.787        7.318       40.081       23.561       41.371       20.232      555.103     1711.532      409.324        0.217        0.134        8.240       15.471        3.525      343.181       19.112      864.146
05/23/2014  09:49:00       12.488       24.228       33.600       35.322       35.935       30.097     1247.676     1291.292      905.826        0.266        0.172       27.257       13.945        0.262      342.888       18.613      864.143
05/23/2014  09:50:00       49.628       34.112       34.718       36.725       32.450       30.175     1348.723     1052.980      910.532        0.407        0.166       60.221       16.435        0.074      342.906       18.643      864.140
05/23/2014  09:51:00       23.691       19.955       39.556       45.650       35.487       24.885     2083.889     1259.345      619.270        0.324        0.198       30.975       24.070        0.604      342.796       18.459      864.132
05/23/2014  09:52:00      -40.651      -20.337       13.580       26.644       30.444       17.271      709.907      926.822      298.302        0.209        0.097       45.455       16.566        0.133      342.509       17.969      864.146
05/23/2014  09:53:00      -25.768      -40.298        2.236       26.142       28.120       21.316      683.428      790.715      454.368        0.211        0.096       47.832       19.804        0.171      342.513       17.976      864.138
05/23/2014  09:54:00      -17.532       15.578       12.476       39.589       22.950       23.094     1567.288      526.721      533.314        0.167        0.131       23.453       26.105        1.239      342.885       18.608      864.141
05/23/2014  09:55:00      -10.881       92.640       17.636       50.775       52.142       40.957     2578.058     2718.747     1677.506        0.799        0.349       93.277       31.819        0.116      342.697       18.289      864.133
05/23/2014  09:56:00      -18.301       98.927       -3.615       23.969       40.697       26.278      574.528     1656.248      690.527        0.653        0.146      100.606       16.715        0.028      342.568       18.071      864.130
05/23/2014  09:57:00        3.843       17.869       39.828       20.295       23.346       24.247      411.900      545.045      587.939        0.173        0.077       18.278       12.889        0.497      343.548       19.738      864.123
05/23/2014  09:58:00       52.155       36.205       40.622       39.523       29.507       26.958     1562.067      870.685      726.759        0.442        0.158       63.490       17.672        0.077      342.841       18.533      864.112
05/23/2014  09:59:00       59.290       28.350       21.210       46.951       30.210       31.321     2204.430      912.639      980.981        0.443        0.205       65.719       19.873        0.091      343.002       18.807      864.104
05/23/2014  10:00:00       26.998        3.859       21.255       37.522       47.591       27.541     1407.919     2264.922      758.486        0.281        0.222       27.272       18.308        0.451      343.122       19.012      864.097
05/23/2014  10:01:00       25.340       39.538       54.687       37.045       36.083       37.002     1372.297     1301.982     1369.177        0.462        0.202       46.961       22.055        0.221      343.339       19.382      864.105
05/23/2014  10:02:00       85.459       54.301       12.312       60.125       42.776       39.339     3615.047     1829.811     1547.562        0.870        0.350      101.251       30.993        0.094      342.939       18.701      864.095
05/23/2014  10:03:00      147.962      111.234       23.596       39.388       34.518       38.405     1551.391     1191.459     1474.957        1.952        0.211      185.110       25.325        0.019      342.410       17.799      864.098
05/23/2014  10:04:00      113.151       70.879       11.227       46.424       39.591       39.316     2155.209     1567.432     1545.763        1.161        0.263      133.518       13.274        0.010      342.459       17.883      864.090
05/23/2014  10:05:00       92.202       82.807       13.807       48.093       35.561       34.956     2312.973     1264.617     1221.891        1.017        0.240      123.929       15.336        0.015      342.417       17.811      864.081
05/23/2014  10:06:00       49.281       68.732        6.901       30.018       45.130       33.410      901.078     2036.750     1116.229        0.563        0.203       84.574       30.244        0.128      342.826       18.507      864.083
05/23/2014  10:07:00       60.152       36.109        9.634       39.089       27.774       27.998     1527.933      771.398      783.898        0.405        0.154       70.158       19.930        0.081      343.069       18.924      864.074
05/23/2014  10:08:00        1.467      105.492      -11.439       39.956       36.275       26.329     1596.496     1315.881      693.210        0.743        0.180      105.502       20.768        0.039      342.981       18.772      864.071
05/23/2014  10:09:00       21.827       54.478       48.754       36.868       41.556       28.125     1359.242     1726.894      791.024        0.485        0.194       58.688       21.088        0.129      343.570       19.775      864.064
05/23/2014  10:10:00       35.780       37.118       33.620       30.521       29.422       20.347      931.541      865.674      413.988        0.300        0.111       51.556        4.961        0.009      343.369       19.432      864.056
05/23/2014  10:11:00       52.119       73.058       59.797       38.659       46.742       30.353     1494.510     2184.811      921.317        0.811        0.230       89.743       21.950        0.060      343.085       18.948      864.051
05/23/2014  10:12:00        8.543       27.514       64.838       36.417       43.275       31.107     1326.232     1872.746      967.624        0.460        0.208       28.810       26.219        0.828      343.382       19.455      864.047
05/23/2014  10:13:00       51.639       49.067       41.139       38.756       30.263       26.866     1502.023      915.820      721.804        0.495        0.157       71.233       23.046        0.105      342.762       18.397      864.038
05/23/2014  10:14:00       44.655       64.493       20.463       41.548       57.117       37.351     1726.271     3262.329     1395.129        0.648        0.319       78.444       32.850        0.175      343.113       18.997      864.025
05/23/2014  10:15:00       59.078       82.130       13.420       46.399       38.948       39.420     2152.895     1516.979     1553.902        0.782        0.261      101.171       24.433        0.058      342.893       18.621      864.005
05/23/2014  10:16:00      101.770       66.831       26.818       68.130       44.981       42.676     4641.708     2023.260     1821.249        1.201        0.424      121.752       30.818        0.064      342.941       18.704      864.001
05/23/2014  10:17:00       92.196       60.089       33.987       67.884       49.840       43.012     4608.262     2483.996     1849.994        1.110        0.447      110.048       32.828        0.089      342.763       18.399      863.994
05/23/2014  10:18:00       21.293       42.523       37.427       36.808       36.536       27.677     1354.799     1334.875      766.044        0.356        0.173       47.556        9.167        0.037      343.205       19.152      863.993
05/23/2014  10:19:00       75.038       46.491        9.354       79.202       47.857       38.480     6272.994     2290.287     1480.687        0.896        0.502       88.273       21.868        0.061      343.149       19.056      863.990
05/23/2014  10:20:00      115.611       93.880       23.596       54.962       36.476       44.564     3020.821     1330.519     1985.983        1.454        0.317      148.927       22.578        0.023      343.140       19.042      863.982
05/23/2014  10:21:00       63.776       49.983       62.292       72.275       55.760       45.068     5223.611     3109.203     2031.163        1.040        0.518       81.029       35.884        0.196      343.296       19.310      863.991
05/23/2014  10:22:00       56.503       73.411       49.485       32.060       34.784       34.323     1027.849     1209.942     1178.066        0.722        0.171       92.638       15.104        0.027      343.022       18.841      863.991
05/23/2014  10:23:00        6.578       52.578       78.304       36.949       52.258       31.237     1365.260     2730.914      975.757        0.700        0.254       52.988       21.830        0.170      343.566       19.769      863.999
05/23/2014  10:24:00      116.156       82.543       16.410       48.736       48.538       43.307     2375.223     2355.893     1875.458        1.359        0.330      142.497       26.108        0.034      343.071       18.923      864.008
05/23/2014  10:25:00      117.651       67.756       12.607       67.882       40.039       29.710     4607.949     1603.098      882.673        1.284        0.355      135.767       19.740        0.021      343.035       18.864      864.019
05/23/2014  10:26:00       39.260       56.492        7.625       48.264       31.453       27.580     2329.404      989.315      760.664        0.443        0.204       68.795       23.923        0.121      343.004       18.811      864.024
05/23/2014  10:27:00      -12.184      -31.263       18.338       32.789       38.733       25.211     1075.142     1500.232      635.574        0.234        0.161       33.553       11.938        0.127      343.046       18.882      864.019
05/23/2014  10:28:00       29.222       22.147       30.510       26.008       24.062       28.641      676.439      578.956      820.310        0.218        0.104       36.667       14.769        0.162      343.451       19.572      864.017
05/23/2014  10:29:00       36.492       44.159       37.752       28.759       31.253       31.867      827.090      976.729     1015.509        0.376        0.141       57.286       23.033        0.162      343.377       19.446      864.001
05/23/2014  10:30:00       56.975       68.416       60.325       60.428       39.994       36.328     3651.563     1599.554     1319.731        0.907        0.329       89.033       29.621        0.111      343.602       19.830      863.993
05/23/2014  10:31:00       22.333       46.654       51.023       64.625       42.201       48.076     4176.378     1780.894     2311.317        0.677        0.413       51.724       36.450        0.497      343.622       19.864      863.983
05/23/2014  10:32:00       31.243       35.983       72.919       60.824       41.224       40.373     3699.534     1699.385     1629.982        0.731        0.351       47.654       32.034        0.452      343.491       19.642      863.981
05/23/2014  10:33:00       40.103       19.467       24.811       52.131       37.680       24.683     2717.637     1419.777      609.250        0.367        0.237       44.578       19.363        0.189      343.413       19.509      863.988
05/23/2014  10:34:00       47.439       44.521       35.981       39.080       27.845       35.629     1527.249      775.316     1269.431        0.455        0.179       65.058       27.210        0.175      343.232       19.199      863.979
05/23/2014  10:35:00       36.795       -6.658       20.403       33.559       32.850       31.052     1126.199     1079.106      964.196        0.249        0.158       37.392       25.695        0.472      343.381       19.455      863.986
05/23/2014  10:36:00        7.976      -13.238       20.727       38.688       41.053       27.009     1496.773     1685.347      729.465        0.229        0.196       15.455       28.295        3.352      343.399       19.484      863.971
05/23/2014  10:37:00       45.510     -109.575       -4.343       60.764       67.163       28.780     3692.268     4510.923      828.269        1.156        0.452      118.650       31.904        0.072      343.039       18.870      863.971
05/23/2014  10:38:00       76.526       84.109       64.777       37.368       37.730       45.738     1396.347     1423.581     2091.976        1.102        0.246      113.713       13.796        0.015      343.068       18.921      863.960
05/23/2014  10:39:00       16.596       16.078       40.863       29.420       49.763       31.717      865.514     2476.372     1005.975        0.327        0.217       23.107       36.699        2.522      343.231       19.196      863.958
05/23/2014  10:40:00       21.345        2.539       14.250       26.852       29.367       27.648      721.026      862.394      764.434        0.151        0.117       21.496       15.474        0.518      343.410       19.504      863.942
05/23/2014  10:41:00       35.330      -16.623       -4.125       29.078       23.953       28.646      845.501      573.760      820.598        0.189        0.112       39.045       13.818        0.125      343.045       18.880      863.936
05/23/2014  10:42:00        5.313       19.575       28.088       20.594       30.914       18.918      424.117      955.675      357.886        0.147        0.087       20.283       17.802        0.770      343.936       20.399      863.923
05/23/2014  10:43:00       44.313       23.971        4.822       42.820       41.505       26.192     1833.542     1722.670      686.042        0.340        0.212       50.381       12.317        0.060      343.234       19.202      863.912
05/23/2014  10:44:00      126.670       92.069       17.200       53.559       40.864       37.500     2868.617     1669.844     1406.274        1.538        0.297      156.595       27.344        0.030      343.300       19.313      863.906
05/23/2014  10:45:00       71.938       62.754       24.404       50.792       33.166       36.107     2579.846     1099.957     1303.688        0.735        0.249       95.463       20.808        0.048      343.470       19.605      863.901
05/23/2014  10:46:00        2.027       79.155       20.791       40.357       46.866       34.789     1628.666     2196.392     1210.264        0.587        0.252       79.181       30.043        0.144      343.662       19.932      863.886
05/23/2014  10:47:00      -40.289      144.265        1.936       35.262       71.684       35.177     1243.414     5138.623     1237.437        1.503        0.381      149.785       39.208        0.069      343.720       20.031      863.882
05/23/2014  10:48:00        5.867       20.759       30.015       35.983       36.419       25.602     1294.773     1326.368      655.481        0.232        0.164       21.572       25.804        1.431      344.617       21.564      863.885
05/23/2014  10:49:00       29.728       24.714       29.023       43.273       28.840       32.637     1872.552      831.745     1065.146        0.305        0.188       38.660       26.951        0.486      344.243       20.925      863.892
05/23/2014  10:50:00       10.027       25.750       39.231       41.705       51.095       40.799     1739.273     2610.648     1664.580        0.416        0.301       27.633       34.067        1.520      344.354       21.116      863.881
05/23/2014  10:51:00      162.547       81.859       29.647       52.437       44.977       47.018     2749.668     2022.913     2210.717        2.049        0.349      181.996       28.560        0.025      343.569       19.772      863.890
05/23/2014  10:52:00      117.171       71.721       27.995       41.193       43.109       31.632     1696.881     1858.413     1000.558        1.211        0.228      137.379       17.619        0.016      343.347       19.393      863.910
05/23/2014  10:53:00      103.357       69.349       39.738       42.411       48.833       43.762     1798.667     2384.674     1915.085        1.158        0.305      124.466       35.651        0.082      343.341       19.384      863.901
05/23/2014  10:54:00       54.739       78.120       60.546       44.046       34.357       37.138     1940.063     1180.406     1379.202        0.863        0.225       95.390        7.217        0.006      343.402       19.489      863.904
05/23/2014  10:55:00      101.326       81.129       37.714       35.244       29.245       36.129     1242.138      855.293     1305.275        1.084        0.170      129.803       20.255        0.024      343.447       19.564      863.905
05/23/2014  10:56:00       93.244       53.850       16.428       36.579       38.308       29.137     1338.051     1467.511      848.939        0.776        0.183      107.676       19.136        0.032      343.561       19.759      863.894
05/23/2014  10:57:00       56.005       34.889       36.800       67.362       49.326       43.253     4537.687     2433.035     1870.805        0.727        0.442       65.983       39.842        0.365      343.966       20.452      863.884
05/23/2014  10:58:00       34.397       35.898       58.996       69.785       72.469       36.764     4870.013     5251.693     1351.614        0.871        0.574       49.718       34.490        0.481      344.201       20.850      863.876
05/23/2014  10:59:00       28.165        6.887       55.501       42.925       91.003       52.734     1842.538     8281.554     2780.846        0.841        0.645       28.995       60.749        4.390      343.898       20.336      863.869
05/23/2014  11:00:00      -23.200      -30.558       16.029       28.576       32.844       22.324      816.586     1078.756      498.357        0.206        0.120       38.367       10.356        0.073      343.948       20.420      863.859
05/23/2014  11:01:00       -1.919        4.014       28.945       35.209       41.637       32.422     1239.679     1733.670     1051.173        0.244        0.201        4.449       20.055       20.320      344.349       21.107      863.847
05/23/2014  11:02:00       36.047       22.548       18.273       64.517       44.277       37.076     4162.408     1960.420     1374.604        0.482        0.375       42.518       14.573        0.117      344.257       20.948      863.829
05/23/2014  11:03:00       19.394       -2.806       46.309       55.041       68.728       45.478     3029.500     4723.477     2068.275        0.617        0.491       19.596       30.704        2.455      344.539       21.431      863.821
05/23/2014  11:04:00       40.599       17.820       39.916       45.174       49.747       37.303     2040.686     2474.812     1391.532        0.473        0.295       44.338       30.496        0.473      344.227       20.898      863.830
05/23/2014  11:05:00       75.058       45.282       48.239       43.173       66.229       45.965     1863.894     4386.230     2112.751        0.919        0.418       87.659       22.882        0.068      343.518       19.687      863.815
05/23/2014  11:06:00       72.299       52.570       64.801       87.897       65.759       53.247     7725.949     4324.241     2835.212        1.353        0.744       89.391       45.287        0.257      343.746       20.074      863.797
05/23/2014  11:07:00       14.386       -6.140       -0.756       60.049       57.176       32.814     3605.873     3269.055     1076.780        0.410        0.398       15.641       12.629        0.652      343.856       20.262      863.768
05/23/2014  11:08:00       34.230      -29.791       15.489       33.002       37.619       36.375     1089.135     1415.185     1323.137        0.306        0.191       45.378       29.494        0.422      344.650       21.620      863.742
05/23/2014  11:09:00       30.770       28.150       49.153       40.130       33.466       23.740     1610.412     1119.972      563.586        0.372        0.165       41.704       10.373        0.062      344.743       21.780      863.733
05/23/2014  11:10:00        2.903      -38.078       33.320       27.700       55.219       40.131      767.273     3049.191     1610.486        0.400        0.271       38.189       32.539        0.726      344.487       21.340      863.716
05/23/2014  11:11:00        5.181        6.156       39.492       27.452       37.154       24.012      753.604     1380.383      576.562        0.217        0.136        8.046       19.424        5.827      344.576       21.495      863.695
05/23/2014  11:12:00       40.320       32.583       43.329       52.729       53.563       32.386     2780.369     2869.016     1048.823        0.563        0.335       51.840       23.110        0.199      344.281       20.989      863.684
05/23/2014  11:13:00       38.844      -13.600       19.016       50.352       60.207       44.341     2535.302     3624.856     1966.093        0.509        0.406       41.156       31.926        0.602      344.270       20.968      863.670
05/23/2014  11:14:00        8.987      -39.190       30.827       49.517       42.678       37.581     2451.943     1821.433     1412.321        0.413        0.284       40.207       19.312        0.231      344.298       21.017      863.656
05/23/2014  11:15:00       33.716      -31.195       36.603       41.699       62.121       32.390     1738.785     3858.960     1049.143        0.505        0.332       45.933       28.935        0.397      344.534       21.420      863.641
05/23/2014  11:16:00      112.413       57.584       27.534       88.160       60.186       47.189     7772.161     3622.309     2226.789        1.516        0.681      126.304       31.118        0.061      344.318       21.051      863.635
05/23/2014  11:17:00      122.367      100.249       37.545       60.260       52.097       49.039     3631.256     2714.096     2404.795        1.759        0.438      158.189       33.076        0.044      344.089       20.661      863.627
05/23/2014  11:18:00      118.828      102.034       17.394       31.086       32.795       32.674      966.355     1075.544     1067.590        1.397        0.155      156.624       12.597        0.006      343.821       20.203      863.614
05/23/2014  11:19:00       62.480       49.358       38.153       54.391       64.066       26.983     2958.386     4104.501      728.083        0.779        0.390       79.623       23.025        0.084      343.757       20.094      863.615
05/23/2014  11:20:00       91.968       65.054       40.422       62.701       56.594       50.375     3931.363     3202.925     2537.643        1.200        0.484      112.650       34.249        0.092      343.946       20.415      863.605
05/23/2014  11:21:00       59.271       49.435       33.608       40.448       43.449       35.260     1636.079     1887.838     1243.287        0.593        0.238       77.181       28.726        0.139      344.040       20.577      863.585
05/23/2014  11:22:00      106.256       99.248        4.223       54.576       44.161       37.275     2978.524     1950.210     1389.408        1.374        0.316      145.398       25.040        0.030      343.863       20.274      863.573
05/23/2014  11:23:00       78.367       51.143       19.211       38.142       28.232       34.084     1454.803      797.037     1161.746        0.627        0.171       93.579       17.082        0.033      343.993       20.495      863.558
05/23/2014  11:24:00      -26.513      114.746      -13.157       27.862       32.492       20.345      776.281     1055.715      413.907        0.814        0.112      117.770       13.784        0.014      344.168       20.796      863.537
05/23/2014  11:25:00      -14.314      -16.427       16.727       27.483       26.169       23.529      755.305      684.822      553.612        0.137        0.100       21.789       14.729        0.457      344.856       21.973      863.533
05/23/2014  11:26:00       -7.617        6.796        8.549       45.050       26.993       25.863     2029.484      728.610      668.903        0.180        0.171       10.207       17.683        3.001      344.733       21.761      863.535
05/23/2014  11:27:00        7.926       23.523       22.038       36.487       32.679       26.171     1331.321     1067.944      684.904        0.209        0.154       24.822        7.984        0.103      344.843       21.950      863.518
05/23/2014  11:28:00       55.207       29.218       69.402       72.026       99.870       62.943     5187.715     9974.085     3961.805        1.392        0.956       62.462       63.045        1.019      344.494       21.352      863.486
05/23/2014  11:29:00       64.086      116.035       87.715       61.923       62.413       50.156     3834.520     3895.405     2515.624        1.775        0.512      132.557       29.859        0.051      344.022       20.544      863.491
05/23/2014  11:30:00       53.417       -5.911       21.479       80.739       78.433       44.756     6518.778     6151.723     2003.119        0.901        0.734       53.743       40.873        0.578      343.967       20.451      863.476
05/23/2014  11:31:00      143.300       66.933       18.770       35.032       37.837       37.257     1227.258     1431.650     1388.086        1.471        0.202      158.161       23.967        0.023      343.723       20.036      863.466
05/23/2014  11:32:00       56.520      111.199        3.546       58.381       83.457       43.644     3408.312     6965.050     1904.819        1.392        0.614      124.739       42.807        0.118      344.188       20.830      863.449
05/23/2014  11:33:00       38.800       65.267       14.636       46.810       54.923       37.961     2191.183     3016.540     1441.071        0.631        0.332       75.930       35.547        0.219      344.451       21.279      863.453
05/23/2014  11:34:00       -1.217      142.440       -9.079       28.527       59.502       27.152      813.764     3540.544      737.246        1.273        0.255      142.445       27.667        0.038      344.182       20.820      863.447
05/23/2014  11:35:00       30.549      102.710       -6.155       47.655       61.587       25.465     2271.019     3792.906      648.484        0.912        0.336      107.157       27.382        0.065      344.410       21.209      863.429
05/23/2014  11:36:00       30.876       39.286        9.694       38.619       41.896       31.357     1491.416     1755.312      983.251        0.341        0.211       49.967       26.429        0.280      344.919       22.079      863.444
05/23/2014  11:37:00      -16.790       17.683       36.071       36.114       45.977       28.821     1304.188     2113.889      830.660        0.307        0.212       24.385       19.155        0.617      345.264       22.672      863.447
05/23/2014  11:38:00       35.182       45.496       65.252       50.745       35.540       38.501     2575.063     1263.078     1482.318        0.644        0.266       57.512       16.293        0.080      344.836       21.939      863.443
05/23/2014  11:39:00       54.254       38.638       46.651       76.527       67.122       55.619     5856.452     4505.321     3093.513        1.003        0.673       66.607       49.759        0.558      344.560       21.465      863.437
05/23/2014  11:40:00       83.973       35.023       23.166       56.213       48.146       41.421     3159.911     2318.064     1715.739        0.800        0.360       90.984       37.877        0.173      344.448       21.275      863.442
05/23/2014  11:41:00       38.966       54.810       70.136       50.865       44.055       33.188     2587.227     1940.875     1101.428        0.753        0.281       67.249       29.234        0.189      344.959       22.148      863.429
05/23/2014  11:42:00       45.511      103.239       96.163       54.755       52.560       35.649     2998.122     2762.572     1270.861        1.450        0.352      112.825       24.583        0.047      344.693       21.692      863.426
05/23/2014  11:43:00       53.172       73.919       94.076       68.603       53.726       28.905     4706.418     2886.536      835.472        1.278        0.421       91.056       28.511        0.098      344.921       22.084      863.418
05/23/2014  11:44:00       53.664        7.537       47.591       57.820       99.934       63.520     3343.150     9986.813     4034.750        1.128        0.868       54.191       66.061        1.486      345.091       22.373      863.405
05/23/2014  11:45:00       98.125      -92.917       -5.005       78.496       88.044       75.987     6161.607     7751.707     5774.003        1.898        0.984      135.138       64.190        0.226      344.701       21.704      863.395
05/23/2014  11:46:00       69.006      -59.728        6.892       78.768       64.192       46.203     6204.352     4120.574     2134.683        1.042        0.623       91.265       48.167        0.279      344.665       21.645      863.389
05/23/2014  11:47:00       17.346       -4.279       53.620       38.830       74.591       37.670     1507.768     5563.845     1419.066        0.584        0.425       17.866       34.624        3.756      345.271       22.683      863.371
05/23/2014  11:48:00       27.574      -80.600        5.689       56.944       77.888       59.050     3242.596     6066.464     3486.902        1.004        0.640       85.186       55.567        0.426      344.993       22.207      863.354
05/23/2014  11:49:00       65.874     -140.751      -22.530       85.793       95.618       57.287     7360.391     9142.766     3281.747        2.222        0.989      155.403       59.019        0.144      344.630       21.585      863.338
05/23/2014  11:50:00       80.467     -120.492      -31.669       80.142       62.413       43.047     6422.791     3895.333     1853.070        1.708        0.609      144.890       41.155        0.081      344.320       21.054      863.345
05/23/2014  11:51:00      -22.957      -20.154      -13.136       39.109       38.715       32.669     1529.536     1498.857     1067.239        0.260        0.205       30.549       22.185        0.527      344.531       21.417      863.342
05/23/2014  11:52:00      -56.603       16.978        0.201       40.127       36.634       26.646     1610.141     1342.020      710.017        0.358        0.183       59.095       20.540        0.121      344.537       21.426      863.326
05/23/2014  11:53:00      -42.780       -8.980       -6.938       25.360       38.503       28.364      643.141     1482.467      804.517        0.244        0.147       43.713        8.658        0.039      344.702       21.708      863.320
05/23/2014  11:54:00      -19.655       39.791       52.098       50.031       55.198       42.708     2503.094     3046.855     1824.001        0.603        0.369       44.381       42.488        0.917      345.144       22.465      863.324
05/23/2014  11:55:00      -65.971       -7.253       17.927       78.301       50.752       28.305     6131.075     2575.767      801.159        0.712        0.475       66.368       35.938        0.293      344.988       22.198      863.328
05/23/2014  11:56:00      -89.183       -4.848       -3.091       48.648       41.672       33.288     2366.612     1736.567     1108.072        0.660        0.261       89.315       22.361        0.063      344.703       21.711      863.313
05/23/2014  11:57:00      -38.117      -39.320        8.300       39.290       33.852       24.800     1543.675     1145.950      615.021        0.319        0.165       54.763       19.466        0.126      344.657       21.631      863.318
05/23/2014  11:58:00      -25.611      -74.782      -15.166       67.207       51.605       31.571     4516.733     2663.110      996.714        0.733        0.409       79.046       26.126        0.109      344.412       21.214      863.313
05/23/2014  11:59:00       45.162      -25.750       52.482       51.069      118.305       73.782     2608.024    13996.100     5443.770        1.375        1.102       51.988       83.454        2.577      345.061       22.322      863.305
05/23/2014  12:00:00      127.700      -70.741       25.221       79.128      125.085       74.996     6261.314    15646.232     5624.345        2.473        1.377      145.985       83.957        0.331      344.808       21.887      863.301
05/23/2014  12:01:00      123.452     -179.804        9.747       94.015      120.210       60.816     8838.745    14450.442     3698.607        3.732        1.349      218.105       73.275        0.113      344.717       21.732      863.272
05/23/2014  12:02:00      150.720      -85.109        7.351       86.643      117.250       75.738     7506.951    13747.649     5736.169        2.850        1.350      173.090       84.070        0.236      344.775       21.830      863.262
05/23/2014  12:03:00       55.017       20.469       63.149       54.925       78.212       42.540     3016.742     6117.165     1809.654        0.919        0.547       58.702       46.803        0.636      344.853       21.968      863.274
05/23/2014  12:04:00      131.603     -178.795      -18.599       83.287      125.736       56.939     6936.662    15809.619     3242.035        3.781        1.299      222.007       79.001        0.127      344.598       21.529      863.245
05/23/2014  12:05:00       55.224     -163.602      -24.460       63.976       53.191       40.621     4092.877     2829.236     1650.079        1.949        0.429      172.671       35.789        0.043      344.836       21.936      863.255
05/23/2014  12:06:00       -8.365      -97.986        2.769       62.062       68.074       48.678     3851.676     4634.056     2369.501        1.026        0.543       98.342       43.971        0.200      345.176       22.519      863.235
05/23/2014  12:07:00       37.393       34.690       75.059       64.733       62.569       48.672     4190.329     3914.882     2368.929        0.935        0.524       51.007       53.291        1.092      345.241       22.631      863.254
05/23/2014  12:08:00       44.132       37.631       96.114       70.465       72.698       47.833     4965.355     5285.010     2288.039        1.257        0.627       57.998       53.822        0.861      345.433       22.961      863.254
05/23/2014  12:09:00      129.921      -66.016       21.859       71.050       75.627       57.206     5048.120     5719.401     3272.490        1.787        0.702      145.732       55.626        0.146      344.928       22.093      863.250
05/23/2014  12:10:00       13.431        8.804       23.373       30.413       31.053       26.738      924.928      964.306      714.915        0.170        0.130       16.059       10.265        0.409      345.331       22.785      863.260
05/23/2014  12:11:00        4.459      -12.316       29.382       25.165       31.654       20.171      633.300     1001.998      406.866        0.154        0.102       13.098       17.647        1.815      345.414       22.928      863.247
05/23/2014  12:12:00       30.193       20.630       42.033       41.467       38.005       32.154     1719.541     1444.413     1033.857        0.365        0.210       36.568       24.232        0.439      345.651       23.336      863.220
05/23/2014  12:13:00       41.101       33.310       19.551       33.697       29.170       34.694     1135.485      850.885     1203.647        0.318        0.160       52.904       18.743        0.126      344.906       22.057      863.205
05/23/2014  12:14:00       -1.739       69.050       11.140       58.318       47.169       40.255     3400.978     2224.902     1620.469        0.607        0.362       69.072       31.072        0.202      345.282       22.703      863.184
05/23/2014  12:15:00      -54.290       30.668        5.682      137.383       72.074       45.953    18874.016     5194.652     2111.706        1.505        1.309       62.354       48.691        0.610      344.750       21.790      863.166
05/23/2014  12:16:00     -104.732       79.976      -24.014       53.445       29.529       23.639     2856.417      871.973      558.780        1.111        0.214      131.776       24.233        0.034      344.486       21.339      863.179
05/23/2014  12:17:00      -13.906       26.379       15.181       54.990       32.688       37.266     3023.912     1068.514     1388.757        0.330        0.274       29.820       41.391        1.927      344.977       22.181      863.173
05/23/2014  12:18:00      132.507      106.354       36.020       46.296       46.931       52.825     2143.341     2202.489     2790.519        1.865        0.357      169.910       31.801        0.035      344.666       21.646      863.141
05/23/2014  12:19:00      107.902       91.816       33.358       41.404       34.045       38.931     1714.295     1159.044     1515.590        1.279        0.219      141.679       26.593        0.035      344.567       21.478      863.139
05/23/2014  12:20:00      105.361       59.040       10.731       55.843       33.631       30.879     3118.464     1131.051      953.499        0.995        0.260      120.775       15.998        0.018      344.884       22.020      863.118
05/23/2014  12:21:00      100.770       51.379        7.613       58.965       32.882       40.342     3476.879     1081.197     1627.485        0.952        0.309      113.112       15.948        0.020      344.998       22.214      863.108
05/23/2014  12:22:00      115.980       78.962        2.296       44.837       34.253       37.713     2010.336     1173.247     1422.244        1.215        0.230      140.308       27.201        0.038      345.048       22.301      863.101
05/23/2014  12:23:00       75.545       30.084       11.086       56.526       64.443       43.265     3195.245     4152.921     1871.869        0.798        0.461       81.314       47.444        0.340      345.180       22.527      863.091
05/23/2014  12:24:00       75.435       67.544       49.971       84.223       54.705       32.245     7093.520     2992.633     1039.755        1.194        0.556      101.256       13.328        0.017      345.203       22.566      863.087
05/23/2014  12:25:00      133.317       96.751        5.394       85.129       51.427       53.243     7246.904     2644.730     2834.821        1.994        0.636      164.725       35.861        0.047      345.087       22.366      863.060
05/23/2014  12:26:00       45.453       85.087       17.930       74.624       61.286       52.762     5568.796     3755.981     2783.793        1.087        0.605       96.466       34.219        0.126      345.291       22.717      863.061
05/23/2014  12:27:00      -53.807      177.355       -9.294       36.479       62.796       32.107     1330.715     3943.306     1030.851        2.037        0.315      185.338       31.459        0.029      345.007       22.230      863.048
05/23/2014  12:28:00       -9.788      -23.235        4.896       25.951       99.776       23.522      673.458     9955.252      553.276        0.592        0.559       25.213       15.669        0.386      345.481       23.044      863.051
05/23/2014  12:29:00       59.030      -85.874       26.541       94.342       84.913       51.876     8900.493     7210.149     2691.068        1.518        0.940      104.206       53.257        0.261      345.121       22.424      863.035
05/23/2014  12:30:00       46.208      -47.260       42.379       57.949       75.952       55.173     3358.119     5768.735     3044.038        0.917        0.609       66.096       50.277        0.579      345.605       23.254      863.023
05/23/2014  12:31:00      170.521      -91.761       39.572       93.498      134.983       70.390     8741.854    18220.291     4954.692        3.548        1.596      193.642       89.290        0.213      345.358       22.829      863.019
05/23/2014  12:32:00       96.864     -137.061       -9.883       94.493      104.040       68.515     8928.962    10824.227     4694.315        2.635        1.222      167.834       61.094        0.133      345.290       22.714      862.992
05/23/2014  12:33:00       28.154     -156.024      -14.898       83.929       69.689       47.083     7044.130     4856.564     2216.774        1.973        0.706      158.544       45.044        0.081      344.953       22.137      863.002
05/23/2014  12:34:00        9.830       45.643       78.169       30.450       44.562       28.685      927.178     1985.804      822.802        0.601        0.187       46.689       29.703        0.405      345.826       23.635      863.000
05/23/2014  12:35:00       41.598       20.571       76.515       72.488       67.132       51.347     5254.466     4506.668     2636.524        1.020        0.620       46.406       38.221        0.678      345.737       23.480      862.989
05/23/2014  12:36:00       62.241       61.907      110.219       96.924      106.141       71.507     9394.181    11265.835     5113.246        2.281        1.289       87.786       81.207        0.856      345.301       22.732      863.023
05/23/2014  12:37:00       26.180       15.626       51.921       38.884       64.675       57.325     1511.983     4182.820     3286.170        0.630        0.449       30.489       41.896        1.888      345.409       22.919      863.025
05/23/2014  12:38:00       22.708      -23.153        9.495       49.312       37.402       36.870     2431.629     1398.935     1359.399        0.316        0.259       32.431       23.507        0.525      345.424       22.947      863.013
05/23/2014  12:39:00       91.122       44.358       23.807       90.348       54.261       41.480     8162.826     2944.310     1720.627        1.183        0.641      101.345       43.232        0.182      345.719       23.451      863.004
05/23/2014  12:40:00      203.238      133.778        4.416       64.342       56.041       44.457     4139.940     3140.624     1976.461        3.424        0.463      243.316       15.015        0.004      344.687       21.679      862.982
05/23/2014  12:41:00       72.759       68.058       12.913       58.718       28.846       31.360     3447.754      832.104      983.446        0.768        0.263       99.628       17.150        0.030      345.031       22.269      862.981
05/23/2014  12:42:00        7.053       60.645       -3.251       36.290       34.643       26.889     1316.932     1200.145      723.002        0.349        0.162       61.053       21.734        0.127      345.137       22.453      862.974
05/23/2014  12:43:00       43.096       35.634       16.713       44.168       40.999       29.463     1950.781     1680.901      868.059        0.395        0.225       55.920       24.422        0.191      345.474       23.030      862.950
05/23/2014  12:44:00       31.462      -51.029       31.762       45.108       50.772       39.654     2034.743     2577.776     1572.412        0.539        0.309       59.948       35.434        0.349      345.652       23.336      862.932
05/23/2014  12:45:00       74.365       -6.215       29.849       77.379       49.555       45.531     5987.461     2455.668     2073.080        0.849        0.526       74.625       35.122        0.222      345.586       23.223      862.933
05/23/2014  12:46:00       77.185      -10.243       32.555       77.525      103.177       58.681     6010.126    10645.572     3443.485        1.361        1.005       77.861       49.952        0.412      345.320       22.767      862.924
05/23/2014  12:47:00      100.898       88.251       30.811       23.523       17.922       36.842      553.309      321.186     1357.321        1.057        0.112      134.047       14.391        0.012      344.698       21.702      862.906
05/23/2014  12:48:00       70.691       76.776       10.784       29.467       17.632       29.675      868.324      310.897      880.613        0.653        0.103      104.364       12.416        0.014      344.709       21.721      862.898
05/23/2014  12:49:00       36.503       28.803      -15.142       22.902       37.963       16.168      524.479     1441.159      261.399        0.231        0.111       46.498        9.465        0.041      344.827       21.922      862.882
05/23/2014  12:50:00       -4.931       23.955       22.178       61.200       30.541       37.384     3745.483      932.753     1397.583        0.358        0.304       24.457       41.812        2.923      345.459       23.006      862.875
05/23/2014  12:51:00     -128.462      -14.757      -11.467       45.639       44.946       32.506     2082.957     2020.177     1056.625        1.100        0.258      129.307       27.540        0.045      344.918       22.078      862.858
05/23/2014  12:52:00      -33.712        5.365       16.915       53.816       55.585       27.355     2896.215     3089.648      748.279        0.409        0.337       34.136       18.853        0.305      345.775       23.547      862.848
05/23/2014  12:53:00      128.006       76.496       38.451      113.826       61.774       41.757    12956.295     3816.001     1743.675        2.111        0.926      149.121       43.319        0.084      345.255       22.651      862.833
05/23/2014  12:54:00      211.991      106.102       39.870      107.446       74.397       57.932    11544.560     5534.961     3356.142        3.911        1.022      237.061       42.585        0.032      345.195       22.550      862.813
05/23/2014  12:55:00      170.351      111.574       26.877       69.399       57.678       57.092     4816.155     3326.726     3259.517        2.679        0.570      203.637       38.831        0.036      345.405       22.908      862.807
05/23/2014  12:56:00      139.514       81.300       54.669       74.340       58.943       50.706     5526.368     3474.303     2571.110        2.031        0.579      161.474       33.932        0.044      345.303       22.734      862.805
05/23/2014  12:57:00       75.211       86.111       63.885       83.773       61.748       60.700     7017.956     3812.787     3684.439        1.583        0.726      114.332       47.917        0.176      345.498       23.070      862.795
05/23/2014  12:58:00       83.645       67.130       15.459       63.023       64.358       49.748     3971.877     4141.974     2474.828        1.116        0.529      107.252       42.186        0.155      345.498       23.071      862.785
05/23/2014  12:59:00       88.024       91.657       18.743       79.318       60.946       50.340     6291.333     3714.437     2534.156        1.452        0.627      127.080       38.217        0.090      345.342       22.802      862.771
05/23/2014  13:00:00      126.974      143.592       -5.176       74.678       91.073       63.383     5576.736     8294.330     4017.360        2.732        0.894      191.680       56.345        0.086      345.290       22.713      862.762
05/23/2014  13:01:00       31.108      106.211      -29.705       70.030       39.404       31.527     4904.233     1552.688      993.961        1.029        0.373      110.673       26.514        0.057      345.055       22.313      862.752
05/23/2014  13:02:00       36.802       63.696      -10.932       42.333       33.561       34.188     1792.114     1126.319     1168.845        0.481        0.204       73.564       24.049        0.107      345.216       22.589      862.737
05/23/2014  13:03:00       52.804      173.813      -20.116       46.678       82.063       30.587     2178.797     6734.381      935.536        2.162        0.492      181.657       38.915        0.046      344.983       22.186      862.708
05/23/2014  13:04:00      -15.735       62.372        9.140       23.133       56.002       32.260      535.130     3136.265     1040.691        0.447        0.236       64.326       33.032        0.264      345.748       23.501      862.692
05/23/2014  13:05:00       11.360       46.182       22.720       42.280       29.625       27.693     1787.640      877.664      766.924        0.310        0.172       47.559       16.725        0.124      346.001       23.934      862.689
05/23/2014  13:06:00       92.158       52.085       20.073       75.847       51.870       41.030     5752.697     2690.491     1683.468        1.087        0.506      105.858        9.207        0.008      345.926       23.805      862.669
05/23/2014  13:07:00      142.817      111.762        5.017       83.046       72.681       58.204     6896.588     5282.478     3387.741        2.424        0.778      181.349       40.150        0.049      345.414       22.925      862.670
05/23/2014  13:08:00      157.655      139.312        2.225      109.859       78.384       48.585    12068.908     6144.112     2360.466        3.242        1.029      210.388       38.275        0.033      345.391       22.885      862.658
05/23/2014  13:09:00      123.159      176.698       -3.695       83.697       77.580       57.771     7005.227     6018.650     3337.452        3.138        0.818      215.385       51.885        0.058      345.141       22.455      862.661
05/23/2014  13:10:00        5.698      113.600      -14.522       41.100       81.409       40.142     1689.194     6627.470     1611.409        1.154        0.496      113.742       47.910        0.177      345.337       22.795      862.666
05/23/2014  13:11:00       -6.379       82.616        5.863       46.716       72.462       44.962     2182.425     5250.753     2021.601        0.818        0.473       82.861       50.828        0.376      345.593       23.236      862.665
05/23/2014  13:12:00       46.367       83.761        7.005       82.391       81.429       37.065     6788.330     6630.678     1373.845        1.200        0.740       95.738       24.420        0.065      345.592       23.232      862.653
05/23/2014  13:13:00        5.609      130.749       -1.865       48.856       67.816       41.812     2386.919     4598.967     1748.238        1.293        0.437      130.869       42.104        0.104      345.619       23.279      862.647
05/23/2014  13:14:00       95.189      110.052       10.180       94.206       59.848       49.657     8874.694     3581.810     2465.843        1.810        0.746      145.507       39.305        0.073      345.685       23.390      862.631
05/23/2014  13:15:00       95.609       67.265       -5.583       40.306       34.841       30.787     1624.578     1213.917      947.862        0.874        0.189      116.900       23.073        0.039      345.341       22.802      862.630
05/23/2014  13:16:00       94.970       61.408        5.753       31.714       33.421       35.064     1005.769     1116.984     1229.507        0.809        0.168      113.094       15.940        0.020      345.193       22.548      862.612
05/23/2014  13:17:00      125.143       98.768        7.488       31.309       36.047       31.441      980.230     1299.353      988.550        1.437        0.163      159.424       23.046        0.021      345.235       22.620      862.584
05/23/2014  13:18:00       33.133       57.023        3.884       64.827       23.870       23.261     4202.546      569.789      541.076        0.484        0.266       65.950        8.021        0.015      345.317       22.761      862.570
05/23/2014  13:19:00        7.759       71.370        8.999       45.322       47.690       31.783     2054.082     2274.303     1010.151        0.529        0.267       71.791       26.429        0.136      345.710       23.435      862.540
05/23/2014  13:20:00       34.141       59.927        0.776       51.330       35.185       29.841     2634.765     1237.991      890.507        0.476        0.238       68.969       21.866        0.101      345.434       22.961      862.511
05/23/2014  13:21:00      -19.593       82.965       -3.461       37.366       36.640       38.335     1396.189     1342.500     1469.575        0.574        0.210       85.247       19.586        0.053      345.720       23.451      862.500
05/23/2014  13:22:00       -0.300       49.858       15.175       38.726       33.087       30.286     1499.742     1094.756      917.218        0.311        0.176       49.859       20.783        0.174      346.133       24.163      862.476
05/23/2014  13:23:00       91.051       47.022       26.699       80.445       48.165       42.192     6471.453     2319.832     1780.143        1.089        0.529      102.476       14.634        0.020      345.754       23.512      862.461
05/23/2014  13:24:00       34.031      126.360      -18.966       47.495       65.615       33.255     2255.789     4305.388     1105.926        1.257        0.383      130.862       37.822        0.084      345.603       23.253      862.448
05/23/2014  13:25:00      -20.472       92.915       10.468      108.966       60.181       43.471    11873.540     3621.743     1889.767        1.327        0.869       95.144       37.420        0.155      345.588       23.225      862.445
05/23/2014  13:26:00     -153.757      117.333      -34.792       45.233       56.378       38.572     2045.992     3178.456     1487.785        2.266        0.336      193.412       34.894        0.033      345.351       22.817      862.439
05/23/2014  13:27:00     -106.052       51.172      -18.614       40.965       45.891       24.904     1678.154     2106.006      620.194        0.931        0.220      117.752       18.862        0.026      345.332       22.786      862.419
05/23/2014  13:28:00      -92.718       82.832      -14.218       74.387       57.586       38.482     5533.481     3316.126     1480.830        1.299        0.517      124.329       44.264        0.127      345.678       23.380      862.415
05/23/2014  13:29:00     -147.318      117.839      -30.130       38.629       60.795       24.945     1492.225     3696.078      622.260        2.115        0.291      188.650       27.531        0.021      345.387       22.877      862.389
05/23/2014  13:30:00     -149.579      -44.150       -7.466       42.253       56.484       36.022     1785.336     3190.485     1297.582        1.532        0.314      155.959       12.647        0.007      345.868       23.704      862.364
05/23/2014  13:31:00     -152.375      -66.747        1.182       98.780       59.257       39.422     9757.548     3511.409     1554.113        2.125        0.741      166.353       39.515        0.056      345.668       23.359      862.347
05/23/2014  13:32:00     -178.038      -35.829      -23.697       57.243       82.735       32.081     3276.812     6845.054     1029.181        2.234        0.558      181.608       25.183        0.019      345.402       22.905      862.330
05/23/2014  13:33:00     -178.892      -35.325       -6.859       81.122       62.287       41.068     6580.727     3879.713     1686.545        2.272        0.607      182.347       45.227        0.062      345.758       23.515      862.309
05/23/2014  13:34:00     -227.262       18.878      -21.724       69.618       53.246       38.255     4846.725     2835.121     1463.443        3.081        0.457      228.045       33.573        0.022      345.572       23.197      862.304
05/23/2014  13:35:00     -208.470      -49.899      -13.770       74.461       75.484       38.745     5544.451     5697.845     1501.141        2.944        0.637      214.359       42.306        0.039      345.383       22.872      862.280
05/23/2014  13:36:00      -45.280       20.913       21.081       76.885       69.285       45.699     5911.264     4800.379     2088.423        0.786        0.640       49.876       51.760        1.077      346.037       23.997      862.278
05/23/2014  13:37:00      -26.906       20.964        1.974       36.104       43.760       28.411     1303.463     1914.956      807.201        0.260        0.201       34.109       25.571        0.562      345.962       23.868      862.272
05/23/2014  13:38:00       20.914       19.303       -4.811       66.065       68.513       34.969     4364.548     4694.003     1222.819        0.556        0.514       28.461       31.578        1.231      346.146       24.183      862.248
05/23/2014  13:39:00      -47.284      -25.995       22.508       47.174       65.672       45.414     2225.373     4312.808     2062.456        0.601        0.430       53.958       37.041        0.471      346.493       24.779      862.220
05/23/2014  13:40:00       83.262       99.140      106.723       94.504       75.844       54.571     8931.050     5752.263     2978.001        2.290        0.883      129.466       58.192        0.202      345.987       23.908      862.227
05/23/2014  13:41:00      266.672      114.298       20.686      127.083      107.125       79.275    16150.084    11475.850     6284.485        5.925        1.696      290.134       69.151        0.057      345.481       23.038      862.190
05/23/2014  13:42:00      142.046      179.513      130.762      114.108       76.908       88.884    13020.681     5914.873     7900.374        4.816        1.342      228.915       89.629        0.153      345.479       23.034      862.173
05/23/2014  13:43:00       95.915      145.275      146.161       71.528       81.506       48.738     5116.255     6643.298     2375.424        3.290        0.707      174.082       43.875        0.064      345.544       23.148      862.165
05/23/2014  13:44:00      103.710       66.149       93.599       86.754       81.690       61.857     7526.294     6673.303     3826.322        2.096        0.901      123.010       53.892        0.192      345.985       23.905      862.150
05/23/2014  13:45:00      108.779       49.251       23.416       71.590       60.792       47.707     5125.076     3695.713     2275.958        1.295        0.555      119.409       38.629        0.105      346.064       24.041      862.154
05/23/2014  13:46:00      159.037       89.465       58.723       77.243       57.669       53.866     5966.477     3325.716     2901.494        2.447        0.610      182.473       37.347        0.042      345.730       23.467      862.139
05/23/2014  13:47:00       83.876        6.905        8.178       58.618      115.952       45.282     3436.105    13444.929     2050.434        1.304        0.947       84.160       55.703        0.438      345.936       23.822      862.136
05/23/2014  13:48:00      106.631      -93.654       17.617       83.873       88.821       58.540     7034.742     7889.095     3426.959        1.940        0.918      141.920       59.419        0.175      345.979       23.895      862.118
05/23/2014  13:49:00      104.830     -109.396        3.431       95.945      122.547       91.674     9205.537    15017.684     8404.046        2.779        1.631      151.515       96.748        0.408      345.808       23.600      862.085
05/23/2014  13:50:00      112.398      -55.547       29.541       74.777      126.182       87.273     5591.576    15921.899     7616.541        2.285        1.457      125.375       97.828        0.609      346.032       23.985      862.075
05/23/2014  13:51:00      129.649       71.265       -0.556       88.919       65.754       59.086     7906.630     4323.591     3491.202        1.880        0.786      147.945       23.453        0.025      345.618       23.277      862.087
05/23/2014  13:52:00       33.183      -51.186       -9.566       45.765       65.547       33.663     2094.408     4296.423     1133.199        0.567        0.376       61.001       32.872        0.290      345.653       23.339      862.077
05/23/2014  13:53:00      127.373       81.928       18.772       63.724       54.629       40.985     4060.789     2984.348     1679.802        1.600        0.436      151.446       33.392        0.049      345.902       23.763      862.071
05/23/2014  13:54:00      158.482      106.062       43.256       73.042       54.443       48.650     5335.191     2963.995     2366.808        2.445        0.533      190.698       31.667        0.028      345.705       23.425      862.058
05/23/2014  13:55:00      148.884      128.701      121.824      119.144      118.075       74.099    14195.244    13941.596     5490.710        4.359        1.681      196.800       57.803        0.086      346.078       24.064      862.021
05/23/2014  13:56:00      223.064       86.420       -2.301      109.053       73.502       68.516    11892.578     5402.479     4694.416        3.961        1.099      239.219       27.669        0.013      345.485       23.046      862.055
05/23/2014  13:57:00       27.751       55.155       -4.117       49.732       45.355       37.354     2473.306     2057.090     1395.347        0.488        0.296       61.743       21.290        0.119      345.804       23.597      862.048
05/23/2014  13:58:00       79.158       60.963        7.740       64.238       64.962       30.500     4126.474     4220.003      930.256        0.966        0.464       99.912       31.787        0.101      345.844       23.665      862.019
05/23/2014  13:59:00      116.277      103.550       -6.733       56.351       50.134       39.823     3175.463     2513.437     1585.840        1.578        0.364      155.701       27.418        0.031      345.501       23.076      861.998
05/23/2014  14:00:00      -39.115       73.415      -25.652       43.350       47.829       23.423     1879.215     2287.654      548.643        0.615        0.236       83.185       16.821        0.041      345.651       23.334      861.974
05/23/2014  14:01:00       53.083      101.613        1.641       71.207       99.407       41.287     5070.379     9881.813     1704.657        1.490        0.833      114.643       46.022        0.161      346.007       23.945      861.953
05/23/2014  14:02:00      116.356       97.538       35.311       68.322       44.173       38.113     4667.867     1951.250     1452.578        1.618        0.404      151.830       28.725        0.036      346.558       24.892      861.943
05/23/2014  14:03:00       25.508       48.715       51.554       52.955       51.977       41.930     2804.266     2701.648     1758.114        0.647        0.363       54.989       31.581        0.330      346.529       24.844      861.950
05/23/2014  14:04:00       26.530       17.884       15.080       31.560       26.356       26.626      996.050      694.638      708.929        0.182        0.120       31.995       18.099        0.320      346.477       24.754      861.944
05/23/2014  14:05:00       13.756       74.529       -2.834       54.715       65.072       39.324     2993.742     4234.341     1546.351        0.726        0.439       75.788       26.651        0.124      346.342       24.522      861.935
05/23/2014  14:06:00       29.053       33.915       15.646       57.457       24.237       31.880     3301.282      587.446     1016.324        0.357        0.245       44.658       14.239        0.102      346.150       24.191      861.923
05/23/2014  14:07:00        4.106       -0.413       19.133       22.028       36.377       30.662      485.217     1323.322      940.173        0.157        0.137        4.127       18.216       19.483      346.945       25.558      861.913
05/23/2014  14:08:00       30.496     -107.009       -3.994       36.526       50.185       30.262     1334.145     2518.557      915.759        0.858        0.238      111.270       24.381        0.048      346.085       24.078      861.895
05/23/2014  14:09:00      -24.199      -49.737       -3.252       69.998       71.390       27.924     4899.691     5096.582      779.744        0.692        0.539       55.312       39.466        0.509      346.362       24.555      861.879
05/23/2014  14:10:00      -28.082       -5.972        8.110       38.667       28.791       26.406     1495.102      828.948      697.279        0.196        0.151       28.710       17.237        0.360      346.873       25.435      861.864
05/23/2014  14:11:00       -6.330      -15.961       18.418       58.302       99.222       36.913     3399.085     9845.043     1362.572        0.762        0.730       17.171       50.685        8.713      346.901       25.484      861.850
05/23/2014  14:12:00      134.182     -206.368      -20.874       68.763      131.977       45.489     4728.374    17417.958     2069.282        4.262        1.211      246.155       28.589        0.013      346.284       24.418      861.826
05/23/2014  14:13:00       47.901      -27.405       43.248       66.958      103.986       65.911     4483.375    10813.005     4344.277        1.227        0.982       55.186       72.885        1.744      346.466       24.734      861.834
05/23/2014  14:14:00       47.599       -0.010       44.170       65.210       75.550       48.300     4252.328     5707.750     2332.911        0.825        0.615       47.599       55.467        1.358      346.442       24.692      861.835
05/23/2014  14:15:00      -14.567      -48.150       10.438       30.919       57.205       23.214      955.981     3272.381      538.909        0.370        0.238       50.305       25.180        0.251      346.563       24.901      861.811
05/23/2014  14:16:00       34.878      -11.936       14.735       51.005      113.220       35.789     2601.556    12818.690     1280.857        0.914        0.835       36.864       24.898        0.456      346.278       24.411      861.795
05/23/2014  14:17:00       75.084        3.471       61.621       73.104      119.171       74.532     5344.179    14201.732     5554.980        1.727        1.255       75.165       84.497        1.264      346.560       24.894      861.779
05/23/2014  14:18:00      153.697     -217.868      -33.780      101.227      109.051       70.320    10246.992    11892.217     4944.921        4.965        1.354      266.625       61.210        0.053      346.240       24.341      861.757
05/23/2014  14:19:00        4.414       56.167      119.086       48.862       90.794       60.360     2387.523     8243.489     3643.375        1.581        0.714       56.340       56.109        0.992      346.603       24.968      861.774
05/23/2014  14:20:00       58.127     -103.464       -4.242       81.739       73.146       49.655     6681.329     5350.350     2465.614        1.430        0.725      118.675       52.634        0.197      346.325       24.491      861.779
05/23/2014  14:21:00       14.169      -94.725       -1.491       98.571       63.268       44.909     9716.179     4002.830     2016.790        1.245        0.787       95.779       30.899        0.104      346.361       24.550      861.773
05/23/2014  14:22:00      -59.777      -21.494       18.123       41.261       32.938       30.457     1702.498     1084.892      927.639        0.404        0.186       63.524       24.774        0.152      346.602       24.970      861.781
05/23/2014  14:23:00      -52.902     -115.727        8.329       79.725       65.655       33.230     6356.133     4310.627     1104.251        1.401        0.589      127.246       39.770        0.098      346.113       24.127      861.781
05/23/2014  14:24:00      -93.900      -95.136       13.969       77.335       66.553       39.798     5980.673     4429.355     1583.881        1.503        0.600      133.671       41.620        0.097      346.422       24.656      861.769
05/23/2014  14:25:00     -151.900      -95.783       -4.373       50.118       39.516       23.204     2511.764     1561.487      538.415        1.844        0.231      179.577       18.171        0.010      345.829       23.639      861.772
05/23/2014  14:26:00     -138.361      -92.561       -7.490       59.833       44.888       26.262     3579.942     2014.936      689.673        1.702        0.314      166.467       21.349        0.016      345.809       23.603      861.764
05/23/2014  14:27:00     -158.301     -151.671       -4.281      105.060       73.441       44.459    11037.700     5393.640     1976.577        3.324        0.920      219.233       44.001        0.040      345.908       23.773      861.745
05/23/2014  14:28:00     -109.920     -141.232       -7.307       60.249       46.729       33.842     3629.917     2183.620     1145.311        1.952        0.348      178.966       26.514        0.022      345.855       23.683      861.745
05/23/2014  14:29:00      -11.999      -45.471       -9.702       23.165       30.303       17.072      536.633      918.296      291.464        0.203        0.087       47.027       14.809        0.099      345.823       23.629      861.736
05/23/2014  14:30:00      -73.426     -100.732       -1.244       88.443       58.324       36.210     7822.219     3401.661     1311.155        1.403        0.627      124.653       24.872        0.040      346.009       23.948      861.700
05/23/2014  14:31:00     -281.367      -76.949      -20.525      129.019       66.249       44.877    16645.783     4388.932     2013.951        5.427        1.152      291.699       45.574        0.024      345.925       23.799      861.693
05/23/2014  14:32:00     -297.988        4.344      -46.136       53.478       51.466       45.301     2859.935     2648.724     2052.216        4.925        0.378      298.020       38.915        0.017      345.666       23.355      861.700
05/23/2014  14:33:00      -60.327      -69.418       -9.529       72.180       40.840       22.036     5209.926     1667.908      485.581        0.795        0.368       91.969       29.100        0.100      345.701       23.418      861.678
05/23/2014  14:34:00       -9.355      -17.451       -1.810       24.476       25.895       12.490      599.095      670.561      156.007        0.091        0.071       19.800       11.637        0.345      346.027       23.979      861.633
05/23/2014  14:35:00        0.456       12.618       20.270       26.860       15.831       20.129      721.485      250.614      405.169        0.097        0.069       12.626       18.403        2.124      347.237       26.062      861.624
05/23/2014  14:36:00      -44.758      -20.050       12.249       55.545       40.007       32.552     3085.234     1600.540     1059.661        0.415        0.287       49.043       29.690        0.366      346.885       25.455      861.635
05/23/2014  14:37:00     -179.174       10.202       -5.602       95.489       49.856       48.029     9118.107     2485.629     2306.764        2.307        0.696      179.464       60.179        0.112      346.391       24.602      861.630
05/23/2014  14:38:00     -138.158       39.459       -7.367       67.794       42.924       33.668     4596.024     1842.508     1133.566        1.413        0.379      143.682       25.283        0.031      346.367       24.562      861.608
05/23/2014  14:39:00      -97.891      109.699        9.856       87.861      135.232       62.262     7719.468    18287.619     3876.514        2.579        1.494      147.026       50.417        0.118      346.605       24.972      861.589
05/23/2014  14:40:00     -105.135      177.229       -5.863       76.598       93.730       52.777     5867.198     8785.394     2785.427        2.996        0.872      206.067       40.422        0.038      346.453       24.708      861.587
05/23/2014  14:41:00       30.821       25.049       24.598       49.026       79.996       38.433     2403.522     6399.282     1477.117        0.623        0.514       39.716       43.831        1.218      346.870       25.428      861.573
05/23/2014  14:42:00        9.691     -213.764       17.210       38.525       44.754       28.408     1484.206     2002.949      807.028        2.519        0.215      213.984       12.558        0.003      346.011       23.948      861.571
05/23/2014  14:43:00      -20.607     -181.102        0.321       54.356       54.438       32.398     2954.629     2963.539     1049.603        2.009        0.348      182.270       27.569        0.023      346.185       24.250      861.561
05/23/2014  14:44:00      -74.647     -123.549      -10.261       51.587       53.562       31.440     2661.178     2868.941      988.487        1.373        0.326      144.348       25.593        0.031      346.292       24.433      861.556
05/23/2014  14:45:00      -60.789     -113.123      -14.810       71.523       43.793       44.013     5115.576     1917.817     1937.180        1.284        0.449      128.422       39.156        0.093      346.435       24.681      861.538
05/23/2014  14:46:00      -60.360     -105.149       -4.560       46.453       48.956       40.437     2157.864     2396.678     1635.141        1.045        0.309      121.243       31.940        0.069      346.288       24.427      861.527
05/23/2014  14:47:00      -25.235      -32.520        8.706       33.145       33.361       33.701     1098.572     1112.967     1135.766        0.256        0.167       41.162       17.280        0.176      347.074       25.781      861.492
05/23/2014  14:48:00      -45.189      -97.107      -13.201       54.562       32.550       31.287     2977.016     1059.519      978.854        0.833        0.251      107.107       23.186        0.047      346.513       24.815      861.485
05/23/2014  14:49:00      -33.066      -39.719        1.947       26.672       47.490       40.370      711.386     2255.305     1629.769        0.363        0.230       51.681       26.484        0.263      346.355       24.543      861.476
05/23/2014  14:50:00        8.293       12.116        6.695       57.509       26.734       33.030     3307.285      714.728     1090.962        0.269        0.256       14.682       22.488        2.346      346.512       24.814      861.458
05/23/2014  14:51:00       70.802       60.986       14.704       44.619       47.706       24.312     1990.864     2275.861      591.097        0.690        0.243       93.447       22.042        0.056      346.644       25.039      861.433
05/23/2014  14:52:00      -11.478       -5.393       12.893       43.240       38.346       37.788     1869.739     1470.410     1427.947        0.255        0.238       12.682       26.074        4.227      346.887       25.458      861.424
05/23/2014  14:53:00        7.366      -83.927       -4.607       82.772       73.383       36.039     6851.246     5385.031     1298.845        1.032        0.677       84.249       34.837        0.171      346.672       25.088      861.413
05/23/2014  14:54:00     -102.443      -41.215        1.064       90.441       42.445       33.389     8179.593     1801.598     1114.845        1.164        0.555      110.423       38.148        0.119      346.745       25.213      861.391
05/23/2014  14:55:00      -62.497     -182.973        1.086       60.125      108.152       39.071     3614.964    11696.925     1526.517        2.711        0.842      193.352       28.836        0.022      346.302       24.450      861.383
05/23/2014  14:56:00      -70.219      -24.052        8.441       53.880       47.391       35.956     2903.045     2245.860     1292.823        0.601        0.322       74.224       31.270        0.177      346.470       24.741      861.386
05/23/2014  14:57:00      -85.474       -6.967      -13.329       27.873       22.207       16.798      776.918      493.132      282.169        0.454        0.078       85.757        8.663        0.010      346.150       24.190      861.364
05/23/2014  14:58:00       -9.420        2.939       25.157       45.240       17.343       28.005     2046.664      300.787      784.287        0.193        0.157        9.868       31.508       10.196      347.053       25.744      861.339
05/23/2014  14:59:00       13.745       27.116       25.493       38.206       31.158       22.617     1459.731      970.848      511.511        0.226        0.147       30.400       14.829        0.238      346.955       25.576      861.327
05/23/2014  15:00:00       -1.537       58.695        7.513       24.896       36.946       29.180      619.806     1365.036      851.462        0.317        0.142       58.715       22.619        0.148      346.794       25.299      861.312
05/23/2014  15:01:00        2.600       33.969       24.222       21.144       35.705       22.688      447.058     1274.823      514.745        0.199        0.112       34.069       21.954        0.415      346.999       25.652      861.305
05/23/2014  15:02:00       47.044       34.573       11.989       37.621       27.917       24.033     1415.323      779.373      577.605        0.316        0.139       58.381       18.868        0.104      346.546       24.871      861.297
05/23/2014  15:03:00       65.247       48.619       -9.933       20.467       13.975       12.967      418.897      195.287      168.144        0.375        0.039       81.369        4.870        0.004      346.402       24.625      861.272
05/23/2014  15:04:00       32.150       49.233       34.686       26.993       27.085       33.225      728.618      733.601     1103.913        0.361        0.128       58.801       12.382        0.044      346.884       25.451      861.268
05/23/2014  15:05:00        2.913       -3.697       17.810       18.387       41.844       24.596      338.072     1750.934      604.980        0.152        0.135        4.706       16.832       12.793      347.239       26.063      861.254
05/23/2014  15:06:00      -50.879       69.885      -12.709       26.374       39.564       18.911      695.576     1565.331      357.618        0.513        0.131       86.444       18.313        0.045      346.536       24.853      861.238
05/23/2014  15:07:00      -44.100       47.128       -4.744       36.246       32.202       20.703     1313.805     1036.999      428.623        0.348        0.139       64.544       13.290        0.042      346.696       25.128      861.239
05/23/2014  15:08:00      -22.520       18.367       30.049       16.924       22.421       24.509      286.432      502.711      600.683        0.157        0.069       29.060       12.064        0.172      347.167       25.940      861.230
05/23/2014  15:09:00      -20.690       21.958        4.701       20.898       29.107       33.573      436.745      847.231     1127.179        0.167        0.121       30.170       19.089        0.400      346.804       25.315      861.209
05/23/2014  15:10:00      -33.811        2.481       -4.575       15.721       16.816       15.988      247.162      282.783      255.620        0.098        0.039       33.902        9.279        0.075      346.783       25.279      861.206
05/23/2014  15:11:00       10.515        4.211        5.118       21.264       16.499       18.846      452.150      272.224      355.154        0.062        0.054       11.327       11.031        0.948      347.085       25.798      861.202
05/23/2014  15:12:00       -2.285       10.175       31.059       50.573       23.350       33.856     2557.607      545.211     1146.234        0.266        0.212       10.429       33.396       10.255      347.131       25.878      861.208
05/23/2014  15:13:00       22.478       36.073       34.599       45.925       31.861       32.796     2109.106     1015.131     1075.595        0.360        0.210       42.504       25.004        0.346      346.929       25.531      861.210
05/23/2014  15:14:00        0.465       42.333       13.720       21.029       37.371       29.080      442.239     1396.587      845.628        0.233        0.134       42.336       22.047        0.271      346.917       25.509      861.209
05/23/2014  15:15:00       35.008       38.421       -2.492       37.610       41.467       21.786     1414.513     1719.538      474.647        0.316        0.180       51.978       15.103        0.084      346.664       25.075      861.205
05/23/2014  15:16:00      -95.689      109.091      -29.562       62.687       77.865       26.744     3929.713     6063.020      715.253        1.632        0.535      145.111       26.201        0.033      346.652       25.052      861.199
05/23/2014  15:17:00      -97.286       41.106      -18.223       74.681       55.416       32.519     5577.197     3070.921     1057.472        1.059        0.485      105.614       34.503        0.107      346.895       25.471      861.203
05/23/2014  15:18:00     -149.782       56.991      -29.258       57.679       65.875       43.883     3326.896     4339.470     1925.755        1.806        0.480      160.258       30.681        0.037      346.786       25.283      861.190
05/23/2014  15:19:00     -115.308       37.483       14.531      103.876       77.527       52.424    10790.327     6010.458     2748.230        1.723        0.977      121.247       55.961        0.213      346.901       25.481      861.166
05/23/2014  15:20:00     -182.774      -95.018       -1.331      113.994       96.658       55.505    12994.658     9342.826     3080.758        3.392        1.271      205.997       52.728        0.066      346.708       25.148      861.146
05/23/2014  15:21:00     -275.110     -106.272      -20.984       76.118       66.258       36.446     5793.978     4390.130     1328.333        4.946        0.576      294.923       27.622        0.009      346.330       24.497      861.158
05/23/2014  15:22:00     -203.942      -41.952      -13.551       60.420       31.087       26.947     3650.587      966.374      726.122        2.444        0.267      208.212       20.523        0.010      346.195       24.263      861.155
05/23/2014  15:23:00      -98.923      -59.910       -1.848       40.709       27.171       22.686     1657.186      738.260      514.643        0.814        0.146      115.650       23.939        0.043      346.455       24.715      861.136
05/23/2014  15:24:00      -47.254      -23.413       -4.397       30.198       31.999       21.766      911.944     1023.960      473.777        0.260        0.120       52.736       14.787        0.079      346.494       24.781      861.116
05/23/2014  15:25:00      -82.546       13.475      -15.183       38.766       39.359       30.996     1502.809     1549.152      960.739        0.562        0.201       83.638       12.512        0.022      346.421       24.657      861.109
05/23/2014  15:26:00      -94.478       43.530       -8.124       62.877       42.892       27.345     3953.542     1839.735      747.739        0.871        0.327      104.024       16.734        0.026      346.462       24.726      861.107
05/23/2014  15:27:00       -6.521       99.716        6.554       29.325       89.064       34.079      859.944     7932.386     1161.397        0.999        0.498       99.929       39.927        0.160      346.769       25.256      861.084
05/23/2014  15:28:00      -10.521      -19.239       26.533       71.215       87.320       40.223     5071.560     7624.722     1617.851        0.775        0.716       21.928       33.883        2.388      346.906       25.489      861.066
05/23/2014  15:29:00     -164.077     -117.413        7.733      133.125      103.662       67.914    17722.198    10745.829     4612.294        3.692        1.654      201.760       73.706        0.133      346.866       25.419      861.055
05/23/2014  15:30:00     -272.131      -33.083      -32.020      109.325       65.430       42.640    11951.890     4281.071     1818.187        4.711        0.903      274.134       50.679        0.034      346.529       24.839      861.058
05/23/2014  15:31:00     -313.444      -92.829      -17.536       86.499       97.087       47.228     7482.074     9425.940     2230.482        6.315        0.957      326.902       37.689        0.013      346.531       24.840      861.053
05/23/2014  15:32:00     -231.119      -44.080       -7.878       99.300       83.655       49.348     9860.580     6998.145     2435.212        3.735        0.965      235.285       53.910        0.052      346.653       25.052      861.063
05/23/2014  15:33:00     -176.417     -103.979       -1.793       86.219       49.089       37.449     7433.720     2409.776     1402.404        2.659        0.562      204.780       36.926        0.033      346.541       24.859      861.059
05/23/2014  15:34:00     -131.886      -70.986       -6.763       54.745       50.784       31.229     2997.046     2578.997      975.264        1.451        0.328      149.776       27.001        0.032      346.507       24.803      861.047
05/23/2014  15:35:00      -93.203      -59.353        3.698       83.428       64.202       41.914     6960.216     4121.923     1756.771        1.253        0.642      110.497       46.774        0.179      346.866       25.422      861.036
05/23/2014  15:36:00     -111.482      -72.290       -1.077       59.956       54.645       34.363     3594.726     2986.111     1180.828        1.271        0.388      132.869       38.770        0.085      346.496       24.786      861.033
05/23/2014  15:37:00      -74.031      -87.690       -1.951       52.688       56.119       26.204     2776.015     3149.359      686.673        0.989        0.331      114.761       25.398        0.049      346.480       24.758      861.017
05/23/2014  15:38:00      -29.418     -113.342        8.058       47.965       58.276       33.219     2300.665     3396.125     1103.527        1.029        0.340      117.097       27.131        0.054      346.602       24.966      860.998
05/23/2014  15:39:00      -82.451      -90.540        0.488       58.528       77.697       28.831     3425.541     6036.843      831.244        1.264        0.515      122.457       22.334        0.033      346.579       24.928      860.973
05/23/2014  15:40:00      -71.520      -44.578        2.823       75.106       35.636       33.944     5640.853     1269.912     1152.213        0.758        0.403       84.275       43.169        0.262      346.760       25.238      860.942
05/23/2014  15:41:00      -85.751      -40.327      -13.986       26.649       43.963       23.602      710.192     1932.753      557.031        0.619        0.160       94.761       18.743        0.039      346.383       24.593      860.925
05/23/2014  15:42:00      -99.341       20.941      -27.432       37.375       34.899       28.168     1396.878     1217.921      793.457        0.723        0.170      101.524       17.611        0.030      346.377       24.581      860.904
05/23/2014  15:43:00       -8.951       75.914       -1.839       42.386       41.526       47.054     1796.569     1724.404     2214.082        0.579        0.287       76.440       36.231        0.225      346.599       24.962      860.874
05/23/2014  15:44:00      -46.367       38.444       18.888       32.900       42.875       33.918     1082.434     1838.273     1150.428        0.403        0.204       60.232       18.098        0.090      346.992       25.638      860.845
05/23/2014  15:45:00      -30.859        1.747       -2.159       32.471       24.436       18.068     1054.365      597.094      326.467        0.147        0.099       30.908        8.179        0.070      346.961       25.586      860.836
05/23/2014  15:46:00       26.164       38.088       25.950       30.487       30.541       27.837      929.427      932.767      774.894        0.272        0.132       46.208       23.235        0.253      347.042       25.726      860.828
05/23/2014  15:47:00       -8.751       31.313        2.504       70.814       39.719       26.863     5014.662     1577.569      721.627        0.419        0.366       32.512       34.942        1.155      347.141       25.896      860.810
05/23/2014  15:48:00      -41.260      103.488       -6.893       52.098       42.955       39.862     2714.151     1845.152     1589.018        0.930        0.307      111.410       33.614        0.091      346.928       25.529      860.797
05/23/2014  15:49:00      -52.201       79.344       -2.781       79.375       53.722       31.620     6300.468     2886.056      999.839        0.961        0.509       94.976       26.477        0.078      347.057       25.750      860.776
05/23/2014  15:50:00      -48.300       91.817      -15.602       79.516      179.271       45.344     6322.763    32138.033     2056.059        2.575        2.026      103.746       25.131        0.059      347.159       25.924      860.743
05/23/2014  15:51:00     -235.520       48.510       -4.083      115.936      122.382       64.243    13441.263    14977.368     4127.123        4.519        1.627      240.464       64.646        0.072      347.017       25.678      860.760
05/23/2014  15:52:00     -286.176        0.984      -19.237      141.415      107.060       50.074    19998.100    11461.912     2507.390        5.811        1.698      286.178       59.424        0.043      346.932       25.532      860.773
05/23/2014  15:53:00     -210.664      -78.405      -22.897       77.113       54.214       32.924     5946.443     2939.134     1084.007        3.051        0.498      224.781       34.564        0.024      346.606       24.973      860.784
05/23/2014  15:54:00      -78.536      -82.339      -10.937       39.602       35.273       28.873     1568.317     1244.180      833.641        0.836        0.182      113.787       18.728        0.027      346.611       24.983      860.797
05/23/2014  15:55:00       60.798       -8.173       28.240       44.625       56.297       42.094     1991.421     3169.363     1771.909        0.575        0.347       61.345       17.558        0.082      346.667       25.080      860.783
05/23/2014  15:56:00       62.142       30.010       10.300       43.084       48.346       33.221     1856.199     2337.380     1103.656        0.508        0.265       69.009       22.635        0.108      346.565       24.904      860.757
05/23/2014  15:57:00       36.043       26.957       25.766       34.695       39.693       22.182     1203.714     1575.550      492.059        0.298        0.164       45.009       19.870        0.195      346.938       25.547      860.729
05/23/2014  15:58:00      -10.806       48.730       -2.478       18.512       28.356       21.478      342.699      804.058      461.291        0.205        0.080       49.914       17.389        0.121      346.870       25.430      860.725
05/23/2014  15:59:00      -80.460        7.013      -13.744       66.779       27.197       17.986     4459.475      739.673      323.510        0.612        0.276       80.765       12.613        0.024      346.899       25.480      860.711
05/23/2014  16:00:00      -82.495      -68.519      -12.192       46.568       56.368       32.196     2168.553     3177.300     1036.580        0.901        0.319      107.240       28.384        0.070      346.785       25.282      860.694
05/23/2014  16:01:00      -23.404      -43.111       13.168       43.496       52.350       26.369     1891.890     2740.485      695.328        0.395        0.266       49.055       29.674        0.366      346.864       25.420      860.684
05/23/2014  16:02:00     -111.342      -60.137       -8.355       46.394       57.183       32.639     2152.436     3269.929     1065.320        1.128        0.324      126.544       26.486        0.044      346.708       25.148      860.677
05/23/2014  16:03:00     -126.184      -35.996       -0.982       95.112       80.672       39.193     9046.341     6508.041     1536.054        1.715        0.855      131.218       44.987        0.118      347.225       26.039      860.649
05/23/2014  16:04:00      -66.673      -40.994       19.992       80.043       71.219       41.800     6406.803     5072.214     1747.201        0.987        0.661       78.267       39.965        0.261      347.526       26.559      860.631
05/23/2014  16:05:00      -50.257      -60.272       11.493      106.365       61.699       52.738    11313.443     3806.780     2781.342        1.209        0.895       78.476       53.375        0.463      347.222       26.034      860.630
05/23/2014  16:06:00      -91.150     -128.498       18.028       94.786       66.222       56.669     8984.349     4385.292     3211.428        2.086        0.829      157.543       56.769        0.130      346.593       24.951      860.633
05/23/2014  16:07:00      -55.287      -84.664       12.427       67.869      100.755       41.208     4606.174    10151.604     1698.090        1.341        0.823      101.117       48.461        0.230      346.714       25.161      860.628
05/23/2014  16:08:00     -189.384     -100.358        1.576       80.511       54.164       36.777     6482.076     2933.780     1352.521        2.835        0.538      214.332       36.682        0.029      346.630       25.014      860.603
05/23/2014  16:09:00     -137.304      -77.008       -2.283       54.768       52.906       32.970     2999.541     2798.994     1087.028        1.584        0.344      157.425       28.396        0.033      346.671       25.085      860.586
05/23/2014  16:10:00      -37.453      -83.355        8.334       35.855       50.733       25.245     1285.546     2573.871      637.317        0.646        0.225       91.383       24.521        0.072      346.835       25.369      860.564
05/23/2014  16:11:00      -38.749     -101.528        9.806       85.458       64.835       42.211     7303.044     4203.627     1781.807        1.259        0.664      108.671       46.886        0.186      346.874       25.436      860.548
05/23/2014  16:12:00     -114.369      -96.176       -2.211       56.112       41.498       28.255     3148.585     1722.080      798.357        1.400        0.283      149.432       30.157        0.041      346.648       25.047      860.532
05/23/2014  16:13:00      -46.473      -75.793       -3.292       51.282       43.830       26.388     2629.852     1921.069      696.303        0.658        0.262       88.907       23.187        0.068      346.788       25.287      860.517
05/23/2014  16:14:00      -32.588      -88.312       -5.515       27.267       48.718       25.180      743.472     2373.424      634.039        0.632        0.188       94.133       23.293        0.061      346.558       24.892      860.506
05/23/2014  16:15:00       -1.381       25.624       43.354       24.138       29.696       25.755      582.663      881.845      663.306        0.233        0.106       25.661       23.015        0.804      347.315       26.196      860.491
05/23/2014  16:16:00       23.026       17.653       35.784       50.263       37.565       40.563     2526.341     1411.161     1645.380        0.385        0.279       29.014       29.385        1.026      347.199       25.996      860.478
05/23/2014  16:17:00       30.667       -4.242       -7.743       51.893       56.930       45.386     2692.907     3241.053     2059.926        0.450        0.400       30.959       21.470        0.481      346.873       25.433      860.481
05/23/2014  16:18:00       54.418       12.068      -12.482       57.451       77.662       29.197     3300.598     6031.324      852.463        0.672        0.509       55.740       16.911        0.092      346.773       25.263      860.463
05/23/2014  16:19:00       14.712     -102.530       -9.778       60.683       45.662       35.771     3682.396     2085.003     1279.581        0.893        0.352      103.580       16.474        0.025      346.961       25.586      860.454
05/23/2014  16:20:00       -0.904      -74.564      -12.785       76.927       40.656       24.121     5917.708     1652.916      581.808        0.694        0.408       74.569       14.882        0.040      346.594       24.956      860.445
05/23/2014  16:21:00       50.694      -36.407       -0.553       29.565       47.364       36.570      874.070     2243.309     1337.353        0.417        0.223       62.413       32.902        0.278      346.799       25.307      860.442
05/23/2014  16:22:00      -55.359       24.668      -11.942       60.007       29.144       25.356     3600.817      849.347      642.951        0.445        0.255       60.606       24.742        0.167      346.747       25.217      860.418
05/23/2014  16:23:00      -17.181      -11.227       19.690       61.408       59.158       28.710     3770.969     3499.661      824.239        0.445        0.405       20.524       19.679        0.919      347.133       25.882      860.394
05/23/2014  16:24:00       40.177        6.949       17.792       33.282       39.897       26.359     1107.665     1591.804      694.787        0.269        0.170       40.773       22.574        0.307      347.314       26.194      860.394
05/23/2014  16:25:00      -47.152     -116.074       -2.364       55.656       86.247       34.835     3097.593     7438.588     1213.495        1.372        0.587      125.286       31.574        0.064      346.857       25.406      860.394
05/23/2014  16:26:00     -112.492      -75.092      -12.186       52.103       49.110       36.148     2714.753     2411.826     1306.647        1.244        0.322      135.253       29.476        0.047      346.911       25.498      860.385
05/23/2014  16:27:00      -61.155      -58.998       -9.480       62.116       50.987       36.101     3858.352     2599.629     1303.268        0.753        0.388       84.975       18.602        0.048      347.152       25.914      860.380
05/23/2014  16:28:00      -54.163      -66.981        3.801       42.688       47.098       27.752     1822.269     2218.194      770.171        0.612        0.241       86.140       21.191        0.061      347.019       25.684      860.378
05/23/2014  16:29:00       21.172     -133.434      -14.680       55.790       58.288       37.877     3112.530     3397.508     1434.688        1.320        0.397      135.103       30.952        0.052      346.850       25.393      860.358
05/23/2014  16:30:00      -62.924      -81.549      -20.075       86.208       98.748       52.073     7431.845     9751.186     2711.595        1.545        0.995      103.003       53.676        0.272      347.148       25.906      860.314
05/23/2014  16:31:00      -27.718      -21.047       -0.963       42.259       37.383       31.778     1785.786     1397.513     1009.871        0.270        0.210       34.803       16.709        0.230      347.428       26.390      860.297
05/23/2014  16:32:00        7.739        2.066       22.939       41.863       31.920       21.492     1752.514     1018.900      461.901        0.191        0.162        8.010       18.242        5.186      347.393       26.330      860.282
05/23/2014  16:33:00      -60.859      -29.573       14.930       59.462       35.063       32.079     3535.710     1229.424     1029.063        0.530        0.290       67.664       32.980        0.238      347.512       26.536      860.267
05/23/2014  16:34:00      -49.550      -17.764       14.946       52.660       40.234       28.254     2773.067     1618.766      798.278        0.409        0.260       52.638       31.545        0.359      347.508       26.527      860.255
05/23/2014  16:35:00      -90.257      -51.755       -3.808      103.063       41.517       30.473    10622.020     1723.682      928.584        1.205        0.664      104.042       29.317        0.079      346.951       25.568      860.256
05/23/2014  16:36:00      -62.029      -48.314        8.546       72.942       52.045       34.588     5320.507     2708.721     1196.360        0.774        0.461       78.625       38.124        0.235      347.108       25.839      860.253
05/23/2014  16:37:00      -47.992       -0.879       18.667       37.857       37.500       26.148     1433.155     1406.221      683.729        0.309        0.176       48.000       25.924        0.292      347.421       26.378      860.238
05/23/2014  16:38:00     -104.755      -50.732       17.904       73.793       73.284       42.205     5445.478     5370.537     1781.269        1.323        0.630      116.393       39.104        0.113      347.207       26.009      860.240
05/23/2014  16:39:00      -86.974        9.767        7.273       58.478       76.972       31.494     3419.701     5924.635      991.901        0.902        0.517       87.521       30.001        0.117      347.062       25.760      860.244
05/23/2014  16:40:00      -28.784       97.410      -12.124       80.598       42.994       34.826     6496.111     1848.473     1212.816        1.001        0.478      101.573       33.213        0.107      346.707       25.149      860.239
05/23/2014  16:41:00       88.341       81.884       10.586       40.848       35.261       29.796     1668.567     1243.346      887.784        0.921        0.190      120.453        9.334        0.006      346.690       25.120      860.223
05/23/2014  16:42:00       12.558      135.290      -21.505       51.197       53.947       29.018     2621.096     2910.228      842.048        1.265        0.319      135.871       22.585        0.028      346.814       25.333      860.211
05/23/2014  16:43:00      -20.381      144.683       -5.135       45.517       84.950       37.269     2071.803     7216.465     1388.965        1.602        0.534      146.111       43.886        0.090      346.944       25.555      860.205
05/23/2014  16:44:00      -88.739      144.865        3.024       91.212       91.357       58.204     8319.670     8346.138     3387.664        2.446        1.003      169.884       50.859        0.090      347.187       25.972      860.191
05/23/2014  16:45:00     -174.048      106.309      -23.718       84.642      101.239       42.310     7164.280    10249.415     1790.098        3.068        0.960      203.947       43.094        0.045      346.854       25.396      860.188
05/23/2014  16:46:00      -85.606      128.718      -19.330       24.642       49.405       31.441      607.230     2440.851      988.529        1.415        0.202      154.585       23.810        0.024      346.851       25.397      860.188
05/23/2014  16:47:00      -48.291       41.042       -1.127       36.280       46.538       23.805     1316.269     2165.746      566.699        0.403        0.202       63.375       16.816        0.070      347.142       25.898      860.178
05/23/2014  16:48:00      -62.831       11.902        9.888       40.903       48.268       29.023     1673.054     2329.838      842.314        0.452        0.242       63.948       24.346        0.145      347.529       26.563      860.161
05/23/2014  16:49:00       51.329      -25.892       17.776       70.318       47.707       32.677     4944.666     2275.941     1067.755        0.595        0.414       57.490       33.922        0.348      347.483       26.485      860.147
05/23/2014  16:50:00      -21.314      -73.759       -5.636       78.882       74.759       50.451     6222.356     5588.974     2545.349        1.014        0.718       76.776       50.103        0.426      347.185       25.973      860.127
05/23/2014  16:51:00      -70.906      -55.223       14.599       72.486       60.410       35.469     5254.189     3649.386     1258.033        0.922        0.508       89.873       31.144        0.120      347.172       25.948      860.116
05/23/2014  16:52:00     -152.541      -63.331       -9.696      114.026       53.506       35.487    13001.856     2862.868     1259.311        2.225        0.856      165.165       25.461        0.024      347.199       25.994      860.095
05/23/2014  16:53:00     -165.676      -46.494        0.501       99.367      109.567       45.208     9873.774    12004.978     2043.772        2.676        1.196      172.077       43.688        0.064      347.047       25.731      860.088
05/23/2014  16:54:00     -123.258      -94.388       11.701       90.602       56.448       47.768     8208.809     3186.341     2281.819        1.895        0.684      155.247       43.960        0.080      346.994       25.638      860.071
05/23/2014  16:55:00     -167.480      -94.050        4.647      103.454       66.800       41.716    10702.821     4462.227     1740.230        2.691        0.845      192.081       46.492        0.059      347.071       25.772      860.061
05/23/2014  16:56:00      -95.084      -12.907        4.964       64.775       60.216       30.500     4195.747     3625.958      930.240        0.899        0.438       95.956       35.268        0.135      347.237       26.061      860.067
05/23/2014  16:57:00      -61.850       38.800        7.486       41.585       29.378       21.277     1729.295      863.076      452.729        0.422        0.152       73.012       23.570        0.104      347.200       25.997      860.060
05/23/2014  16:58:00     -110.843       84.177      -18.590       39.117       39.447       29.432     1530.129     1556.069      866.233        1.183        0.198      139.182       26.920        0.037      347.115       25.850      860.063
05/23/2014  16:59:00      -61.635      142.812      -20.713       32.549       60.191       26.735     1059.446     3622.919      714.763        1.501        0.270      155.544       13.944        0.008      346.940       25.549      860.063
05/23/2014  17:00:00      -59.399      135.938      -13.623       45.658       53.418       26.378     2084.686     2853.493      695.780        1.391        0.282      148.349       22.879        0.024      346.997       25.648      860.050
05/23/2014  17:01:00        5.919      196.356      -32.849       81.371       79.760       43.197     6621.306     6361.612     1865.984        2.726        0.742      196.445       47.493        0.058      346.925       25.521      860.037
05/23/2014  17:02:00       -9.407      182.145      -31.498       32.555       31.743       19.015     1059.826     1007.641      361.572        1.834        0.121      182.387       14.477        0.006      346.847       25.391      860.028
05/23/2014  17:03:00      -35.569      130.284      -22.874       58.853       53.720       29.384     3463.718     2885.860      863.446        1.299        0.361      135.052       23.894        0.031      347.003       25.657      860.030
05/23/2014  17:04:00     -151.586       70.826      -26.049       54.367       33.515       29.827     2955.746     1123.284      889.637        1.682        0.248      167.316       21.587        0.017      346.983       25.622      860.045
05/23/2014  17:05:00     -130.760      -31.735      -21.805       64.959       37.869       25.939     4219.679     1434.071      672.810        1.245        0.316      134.556       23.368        0.030      346.934       25.539      860.049
05/23/2014  17:06:00      -16.800      -81.425        6.192       32.978       30.474       23.837     1087.575      928.674      568.191        0.477        0.129       83.140       14.600        0.031      346.961       25.583      860.024
05/23/2014  17:07:00      -40.133      -34.383        4.778       29.539       36.266       25.708      872.538     1315.257      660.916        0.283        0.142       52.848       20.710        0.154      347.053       25.744      860.019
05/23/2014  17:08:00     -167.832       -7.934      -20.936       47.467       73.033       29.739     2253.091     5333.760      884.428        1.857        0.424      168.019       26.401        0.025      347.069       25.770      860.040
05/23/2014  17:09:00     -294.739      -31.593      -36.121       83.779       96.709       39.258     7018.842     9352.570     1541.221        5.354        0.896      296.427       34.474        0.014      346.957       25.575      860.019
05/23/2014  17:10:00      -33.001      122.319       -9.146      159.250      113.980       53.391    25360.598    12991.469     2850.628        2.866        2.060      126.693       50.007        0.156      346.870       25.424      860.034
05/23/2014  17:11:00       93.519      137.999        6.617       89.460       71.944       66.581     8003.150     5175.991     4433.003        2.272        0.881      166.702       42.613        0.065      346.855       25.401      860.003
05/23/2014  17:12:00     -159.558       92.879      -19.694       73.292       55.376       42.073     5371.780     3066.528     1770.135        2.234        0.510      184.621       37.926        0.042      346.962       25.584      860.000
05/23/2014  17:13:00        1.221      181.719      -19.873       45.617       67.256       36.870     2080.894     4523.344     1359.385        2.069        0.398      181.723       40.299        0.049      346.930       25.530      859.998
05/23/2014  17:14:00     -102.869      239.540      -38.467       71.673       66.707       37.037     5136.985     4449.840     1371.771        4.020        0.548      260.694       32.594        0.016      346.926       25.519      859.988
05/23/2014  17:15:00      -62.553      181.318      -33.328       68.545       84.491       42.022     4698.475     7138.791     1765.869        2.575        0.680      191.805       46.474        0.059      346.955       25.573      859.966
05/23/2014  17:16:00      -89.090      256.294      -33.318       52.593       73.198       42.674     2765.985     5357.923     1821.030        4.234        0.497      271.337       37.311        0.019      346.983       25.617      859.963
05/23/2014  17:17:00     -129.880      199.325      -27.117       77.507       84.431       47.939     6007.397     7128.663     2298.116        3.638        0.772      237.906       47.028        0.039      346.947       25.557      859.969
05/23/2014  17:18:00      -86.636      201.222      -22.639       60.562       94.054       40.134     3667.805     8846.229     1610.756        3.131        0.706      219.081       42.424        0.037      346.922       25.514      859.942
05/23/2014  17:19:00      -85.799       56.907       -3.518       98.333       72.003       47.569     9669.334     5184.490     2262.822        1.386        0.856      102.955       46.908        0.208      346.936       25.542      859.924
05/23/2014  17:20:00      -86.817       53.255      -12.297       43.960       48.901       32.092     1932.504     2391.263     1029.870        0.794        0.268      101.850       20.142        0.039      347.028       25.700      859.909
05/23/2014  17:21:00     -172.472      -44.535       -1.994      150.305       75.159       50.276    22591.672     5648.930     2527.663        3.124        1.538      178.129       74.371        0.174      347.004       25.656      859.883
05/23/2014  17:22:00     -180.288      -12.761       -6.779       83.762       78.550       49.990     7016.107     6170.060     2498.989        2.420        0.784      180.739       49.536        0.075      347.007       25.661      859.877
05/23/2014  17:23:00     -117.057      -29.299       -8.597       61.856       40.600       25.511     3826.136     1648.376      650.810        1.038        0.306      120.668       18.025        0.022      347.049       25.737      859.856
05/23/2014  17:24:00     -206.798      -43.181       -9.580       90.525       78.435       34.252     8194.798     6151.984     1173.230        3.012        0.776      211.258       34.138        0.026      347.056       25.747      859.845
05/23/2014  17:25:00     -165.539       66.430      -23.198       65.934       44.968       37.754     4347.326     2022.090     1425.343        2.007        0.390      178.371       34.502        0.037      347.012       25.670      859.861
05/23/2014  17:26:00     -142.859       59.949      -20.879       61.385       67.859       36.699     3768.171     4604.851     1346.852        1.708        0.486      154.927       35.469        0.052      347.030       25.702      859.847
05/23/2014  17:27:00     -143.852       43.217      -29.120       44.636       49.488       28.016     1992.404     2449.053      784.886        1.432        0.261      150.204       26.536        0.031      347.001       25.655      859.838
05/23/2014  17:28:00      -97.457      -28.114       -4.356       74.465       58.062       41.584     5545.099     3371.183     1729.236        1.047        0.532      101.431       41.651        0.169      347.059       25.754      859.821
05/23/2014  17:29:00      -82.458      -13.978       -0.221       69.373       50.686       34.723     4812.587     2569.027     1205.685        0.779        0.429       83.634       27.255        0.106      347.073       25.778      859.799
05/23/2014  17:30:00      -79.140      -20.482       11.564       84.199       72.217       37.034     7089.397     5215.313     1371.516        1.024        0.684       81.748       41.094        0.253      347.025       25.694      859.807
05/23/2014  17:31:00     -144.232       68.967      -13.499       77.922       65.688       36.210     6071.809     4314.912     1311.197        1.872        0.585      159.873       13.340        0.007      347.030       25.702      859.812
05/23/2014  17:32:00     -238.915       57.340      -27.392       58.383       48.672       29.748     3408.619     2368.921      884.919        3.389        0.333      245.700       24.108        0.010      346.854       25.397      859.832
05/23/2014  17:33:00     -123.722       24.758      -17.061       60.218       41.519       25.931     3626.162     1723.828      672.432        1.112        0.301      126.175       20.391        0.026      346.937       25.543      859.828
05/23/2014  17:34:00      -74.715       63.625       -3.409       35.235       40.619       29.593     1241.510     1649.876      875.767        0.670        0.188       98.135       21.098        0.046      346.981       25.620      859.814
05/23/2014  17:35:00      -48.856       76.553      -30.978       53.531       49.884       32.167     2865.535     2488.393     1034.696        0.780        0.319       90.815       33.277        0.134      346.864       25.419      859.803
05/23/2014  17:36:00       59.028      -43.826      -11.203       35.672       43.833       23.615     1272.486     1921.342      557.673        0.464        0.188       73.519       25.168        0.117      346.813       25.329      859.788
05/23/2014  17:37:00       12.088      -23.054       20.787       30.238       37.987       29.747      914.363     1442.994      884.862        0.218        0.162       26.030       24.464        0.883      346.943       25.554      859.762
05/23/2014  17:38:00       -9.425      -55.528       19.395       35.460       61.773       37.095     1257.388     3815.881     1376.018        0.500        0.322       56.323       39.127        0.483      346.950       25.566      859.739
05/23/2014  17:39:00      -34.520      -41.532       30.054       42.052       29.057       29.832     1768.390      844.317      889.958        0.366        0.175       54.005       21.318        0.156      347.104       25.831      859.739
05/23/2014  17:40:00      -38.144      -16.266        0.034       40.518       18.636       18.634     1641.685      347.297      347.232        0.203        0.117       41.467       22.316        0.290      346.986       25.628      859.739
05/23/2014  17:41:00      -54.547       23.860        1.404       29.040       20.290       18.517      843.317      411.702      342.877        0.257        0.080       59.537       16.495        0.077      347.015       25.679      859.736
05/23/2014  17:42:00     -118.480        8.555      -16.919       38.266       24.625       16.962     1464.321      606.390      287.707        0.838        0.118      118.788       17.688        0.022      346.919       25.513      859.734
05/23/2014  17:43:00      -88.427      -29.963       -7.871       45.314       43.951       27.113     2053.386     1931.707      735.138        0.675        0.236       93.366       18.527        0.039      346.953       25.570      859.709
05/23/2014  17:44:00     -120.282      -13.629       -9.222       41.789       28.106       20.268     1746.293      789.933      410.795        0.884        0.147      121.052       21.079        0.030      346.954       25.573      859.693
05/23/2014  17:45:00      -77.792      -51.843        2.363       50.833       27.598       25.205     2584.019      761.675      635.309        0.636        0.199       93.484       22.833        0.060      346.999       25.649      859.668
05/23/2014  17:46:00      -42.990        1.810       21.620       37.614       32.453       26.344     1414.807     1053.207      693.985        0.274        0.158       43.028       20.285        0.222      347.110       25.843      859.633
05/23/2014  17:47:00      -98.676      -53.942        2.877       69.101       50.104       29.097     4774.976     2510.455      846.647        1.039        0.407      112.458       21.286        0.036      346.999       25.651      859.620
05/23/2014  17:48:00      -76.852      -51.721       -0.107       46.314       34.987       23.219     2144.965     1224.106      539.114        0.624        0.195       92.635       24.199        0.068      346.923       25.519      859.598
05/23/2014  17:49:00      -80.811       -8.863       -3.518       20.601       18.060       13.546      424.391      326.149      183.485        0.378        0.047       81.295       10.772        0.018      346.856       25.401      859.589
05/23/2014  17:50:00      -40.631        2.193       -5.201        9.346        6.169        9.789       87.345       38.052       95.815        0.095        0.011       40.690        3.893        0.009      346.866       25.421      859.579
05/23/2014  17:51:00        3.595       31.427       11.619       52.770       29.735       21.762     2784.641      884.196      473.567        0.264        0.207       31.632       12.282        0.151      346.975       25.609      859.577
05/23/2014  17:52:00      120.339       59.533       15.253       36.553       29.889       28.601     1336.092      893.347      817.989        1.065        0.152      134.260       17.019        0.016      346.896       25.475      859.596
05/23/2014  17:53:00       19.309       64.714       -7.078       70.189       43.769       21.146     4926.499     1915.767      447.170        0.595        0.364       67.533       17.321        0.066      346.857       25.408      859.609
05/23/2014  17:54:00      -26.084       82.113      -17.090       36.276       68.352       17.492     1315.931     4671.991      305.959        0.700        0.315       86.156       17.474        0.041      346.881       25.447      859.616
05/23/2014  17:55:00       21.568       47.033       12.608       77.037       28.101       25.017     5934.773      789.661      625.867        0.509        0.368       51.742       11.378        0.048      346.909       25.495      859.583
05/23/2014  17:56:00      -18.328       95.179      -21.255       67.343       81.965       35.403     4535.030     6718.248     1253.366        1.117        0.625       96.927       23.426        0.058      346.959       25.582      859.590
05/23/2014  17:57:00     -130.097      106.242      -14.301       80.944       44.802       40.137     6551.995     2007.177     1610.968        1.929        0.509      167.966       31.784        0.036      346.993       25.640      859.606
05/23/2014  17:58:00       96.749      129.227       26.788      108.038       91.999       69.500    11672.150     8463.779     4830.210        2.587        1.248      161.431       56.109        0.121      347.011       25.670      859.565
05/23/2014  17:59:00      -54.601      140.885       -7.067       86.543       95.446       53.314     7489.676     9109.868     2842.335        2.116        0.972      151.095       51.956        0.118      347.025       25.694      859.551
05/23/2014  18:00:00      -89.951       60.342       -6.963       40.783       42.570       27.688     1663.273     1812.237      766.642        0.801        0.212      108.316       20.088        0.034      347.016       25.678      859.553
05/23/2014  18:01:00     -113.391       17.271      -13.753       76.173       70.484       36.622     5802.371     4967.989     1341.173        1.273        0.606      114.699       41.839        0.133      347.052       25.742      859.533
05/23/2014  18:02:00      -11.934      182.405      -18.846       89.175       83.908       50.375     7952.221     7040.553     2537.624        2.565        0.877      182.795       35.709        0.038      347.022       25.690      859.513
05/23/2014  18:03:00      -37.809      203.676      -34.200       73.981       69.483       33.762     5473.230     4827.942     1139.863        2.776        0.572      207.156       21.572        0.011      346.988       25.628      859.517
05/23/2014  18:04:00     -136.276      122.795      -23.720       99.600       66.766       45.717     9920.214     4457.670     2090.010        2.534        0.823      183.439       29.492        0.026      346.998       25.649      859.522
05/23/2014  18:05:00      -86.218      209.304      -22.687       86.487       89.008       47.554     7480.077     7922.404     2261.340        3.471        0.883      226.366       44.201        0.038      346.945       25.555      859.498
05/23/2014  18:06:00      -41.116      226.683      -33.505       86.813       92.303       37.867     7536.499     8519.933     1433.874        3.584        0.875      230.381       29.826        0.017      346.936       25.538      859.457
05/23/2014  18:07:00      -35.260      179.281      -24.295      169.778       82.192       56.118    28824.546     6755.593     3149.240        3.634        1.936      182.715       65.249        0.128      347.017       25.679      859.442
05/23/2014  18:08:00       57.781      108.938       -7.013       60.097       61.319       41.667     3611.616     3760.033     1736.106        1.218        0.455      123.313       38.269        0.096      346.993       25.641      859.399
05/23/2014  18:09:00       54.334      245.883      -19.323       89.042      178.947       67.985     7928.401    32022.049     4621.950        5.417        2.229      251.815       87.071        0.120      346.994       25.640      859.374
05/23/2014  18:10:00      -66.689      408.997      -43.800       75.151      140.449       59.431     5647.656    19725.783     3532.025       10.127        1.445      414.399       49.071        0.014      347.002       25.654      859.374
05/23/2014  18:11:00     -157.229      165.685      -13.738       73.047      160.454       66.923     5335.896    25745.451     4478.652        4.395        1.778      228.413       48.285        0.045      346.985       25.624      859.384
05/23/2014  18:12:00     -293.548       73.703      -22.652      118.737       87.501       43.063    14098.525     7656.437     1854.381        5.786        1.180      302.659       32.589        0.012      346.986       25.625      859.409
05/23/2014  18:13:00     -138.418      -59.465        1.283      105.791       73.853       41.667    11191.815     5454.290     1736.132        2.054        0.919      150.651       51.763        0.118      347.042       25.724      859.418
05/23/2014  18:14:00     -209.396      -53.694       -4.662       99.187       80.279       54.639     9837.995     6444.766     2985.405        3.301        0.963      216.171       58.452        0.073      346.989       25.630      859.425
05/23/2014  18:15:00     -142.016      -43.364       -2.899       65.671       60.413       34.652     4312.707     3649.789     1200.729        1.561        0.458      148.489       32.817        0.049      347.024       25.693      859.417
05/23/2014  18:16:00     -161.642      -42.192      -20.003       48.089       36.111       22.497     2312.528     1303.997      506.106        1.621        0.206      167.058       14.840        0.008      346.959       25.582      859.425
05/23/2014  18:17:00      -89.751      -30.955       -5.899       47.986       48.263       29.791     2302.646     2329.279      887.480        0.728        0.276       94.939       17.046        0.032      347.010       25.671      859.410
05/23/2014  18:18:00     -111.322       -7.719       -1.049       62.067       57.094       27.840     3852.252     3259.714      775.060        1.017        0.394      111.589       29.718        0.071      346.983       25.621      859.410
05/23/2014  18:19:00     -138.111       -3.413      -12.427       41.788       38.107       26.017     1746.210     1452.125      676.904        1.156        0.194      138.153        9.619        0.005      346.990       25.635      859.408
05/23/2014  18:20:00     -134.521      -23.362      -12.982       63.204       55.297       29.716     3994.800     3057.800      883.045        1.337        0.397      136.534       26.462        0.038      346.976       25.609      859.400
05/23/2014  18:21:00      -36.891       -6.920       15.031       87.394       41.607       30.901     7637.632     1731.148      954.844        0.598        0.516       37.535       46.712        1.549      347.021       25.688      859.371
05/23/2014  18:22:00     -284.936       -6.929      -32.227      136.754      103.723       54.896    18701.554    10758.430     3013.536        5.737        1.624      285.020       42.325        0.022      347.013       25.671      859.350
05/23/2014  18:23:00     -239.908     -121.532       -0.741      116.269      102.235       57.640    13518.437    10452.049     3322.426        4.980        1.365      268.935       59.770        0.049      346.976       25.609      859.366
05/23/2014  18:24:00     -246.146      -98.206       -3.908       88.336       78.837       49.713     7803.220     6215.308     2471.429        4.337        0.824      265.014       54.025        0.042      346.983       25.619      859.382
05/23/2014  18:25:00     -240.389      -58.798       -4.106      107.098       92.753       44.827    11469.906     8603.170     2009.456        4.167        1.104      247.476       49.323        0.040      346.983       25.621      859.392
05/23/2014  18:26:00     -255.277      -58.683      -12.819       86.482       57.931       43.188     7479.156     3356.011     1865.165        4.073        0.635      261.935       45.967        0.031      346.958       25.575      859.407
05/23/2014  18:27:00     -197.895      -30.522       -4.847       88.441       61.869       44.012     7821.866     3827.743     1937.084        2.685        0.679      200.235       48.705        0.059      346.971       25.599      859.414
05/23/2014  18:28:00     -130.467      -47.484        6.227       82.528       58.721       41.405     6810.878     3448.098     1714.383        1.564        0.599      138.840       34.107        0.060      347.030       25.701      859.418
05/23/2014  18:29:00     -139.330      -17.869       -3.482       77.482       45.882       30.650     6003.492     2105.136      939.442        1.439        0.452      140.471       34.915        0.062      346.985       25.625      859.435
05/23/2014  18:30:00     -107.112      -26.454       -7.724       45.813       49.068       25.895     2098.805     2407.629      670.537        0.870        0.259      110.331       19.833        0.032      347.026       25.698      859.447
05/23/2014  18:31:00     -124.614       -3.396      -22.740       36.735       32.690       25.226     1349.449     1068.641      636.361        0.956        0.153      124.660       14.404        0.013      347.088       25.804      859.459
05/23/2014  18:32:00      -35.396      -35.265      -20.625       62.103       60.465       30.547     3856.744     3656.012      933.121        0.568        0.422       49.965       31.589        0.400      346.981       25.620      859.439
05/23/2014  18:33:00      -66.948       85.837      -11.783       67.163      100.569       49.280     4510.853    10114.089     2428.559        1.452        0.853      108.858       44.868        0.170      346.961       25.584      859.435
05/23/2014  18:34:00     -192.524       -4.990      -11.666      116.286      114.342       35.234    13522.540    13074.021     1241.457        3.253        1.392      192.588       42.106        0.048      346.930       25.529      859.431
05/23/2014  18:35:00     -207.167      -72.504      -15.486       73.656       44.691       36.716     5425.136     1997.285     1348.067        2.859        0.439      219.488       34.583        0.025      346.934       25.533      859.422
05/23/2014  18:36:00     -239.141      -89.637      -13.443       79.692       82.330       39.217     6350.854     6778.281     1537.977        4.003        0.733      255.388       31.399        0.015      346.972       25.600      859.426
05/23/2014  18:37:00     -239.332       -6.610      -22.241       80.597       55.332       37.289     6495.813     3061.586     1390.449        3.438        0.547      239.423       38.535        0.026      346.978       25.610      859.430
05/23/2014  18:38:00     -266.703      -34.598      -27.096       55.244       40.625       34.114     3051.940     1650.359     1163.793        3.946        0.293      268.937       27.112        0.010      346.961       25.581      859.451
05/23/2014  18:39:00     -178.076      -55.599      -11.850       71.726       48.533       30.128     5144.555     2355.486      907.689        2.167        0.420      186.553       16.121        0.007      346.984       25.623      859.458
05/23/2014  18:40:00      -66.329       16.861       -4.656       34.191       33.929       23.062     1169.020     1151.193      531.870        0.378        0.143       68.439       21.257        0.096      346.991       25.636      859.466
05/23/2014  18:41:00     -118.916       57.685      -32.239       70.435       60.565       31.545     4961.053     3668.081      995.072        1.406        0.481      132.169       41.779        0.100      347.021       25.687      859.482
05/23/2014  18:42:00      -97.175       97.828      -16.339       69.125       81.612       41.586     4778.276     6660.456     1729.389        1.622        0.658      137.889       44.791        0.106      346.972       25.604      859.489
05/23/2014  18:43:00     -142.569      132.136      -13.368       92.965       75.762       59.340     8642.434     5739.925     3521.209        2.793        0.895      194.386       63.214        0.106      346.993       25.638      859.497
05/23/2014  18:44:00      -84.978       27.738       -4.822       89.090       54.394       48.519     7937.025     2958.673     2354.100        1.063        0.662       89.391       52.134        0.340      347.015       25.677      859.484
05/23/2014  18:45:00     -117.474       18.132        2.587       72.565       51.597       42.215     5265.654     2662.295     1782.069        1.192        0.486      118.865       29.726        0.063      347.016       25.679      859.489
05/23/2014  18:46:00      -43.633       -8.856       -1.368       50.706       69.199       35.520     2571.134     4788.541     1261.697        0.530        0.431       44.522       33.819        0.577      347.042       25.724      859.482
05/23/2014  18:47:00     -244.228      -72.092      -18.006      100.867       96.284       53.192    10174.093     9270.670     2829.389        4.372        1.114      254.645       48.371        0.036      346.977       25.608      859.507
05/23/2014  18:48:00     -218.093      -77.475       -7.609      157.157       85.364       58.408    24698.304     7287.074     3411.543        4.450        1.770      231.445       72.936        0.099      346.979       25.613      859.508
05/23/2014  18:49:00     -198.696      -70.729      -11.451       88.422       74.100       51.538     7818.455     5490.792     2656.181        3.029        0.798      210.909       45.284        0.046      347.021       25.684      859.513
05/23/2014  18:50:00     -197.534      -65.755       -8.829       80.130       90.292       45.094     6420.757     8152.581     2033.510        3.001        0.830      208.191       43.291        0.043      347.027       25.696      859.520
05/23/2014  18:51:00      -88.051      113.743      -23.469      114.699       90.695       37.004    13155.850     8225.552     1369.323        2.199        1.138      143.842       26.232        0.033      346.962       25.585      859.550
05/23/2014  18:52:00      -57.742      117.675      -12.521       39.497       48.351       36.241     1560.031     2337.782     1313.375        1.127        0.261      131.078       28.010        0.046      346.996       25.645      859.532
05/23/2014  18:53:00      -86.252      -53.007        7.249      103.363       55.778       30.904    10683.946     3111.143      955.051        1.252        0.738      101.238       41.433        0.167      347.088       25.804      859.525
05/23/2014  18:54:00     -243.206      -48.424       -8.347      116.584       63.686       45.879    13591.738     4055.936     2104.852        4.065        0.988      247.979       39.582        0.025      346.997       25.643      859.557
05/23/2014  18:55:00     -278.845      -42.209      -21.871      102.680       76.347       38.122    10543.165     5828.939     1453.311        4.892        0.891      282.021       40.269        0.020      346.941       25.547      859.547
05/23/2014  18:56:00     -211.414       -4.682       -4.539       86.701       86.818       51.177     7516.994     7537.424     2619.061        3.120        0.884      211.466       44.559        0.044      346.964       25.585      859.534
05/23/2014  18:57:00     -196.019      -47.478      -11.338      118.404       80.827       46.084    14019.558     6532.978     2123.771        3.174        1.134      201.687       49.560        0.060      346.931       25.530      859.542
05/23/2014  18:58:00      -94.590       -2.772      -17.284       73.344       65.817       35.375     5379.405     4331.852     1251.369        1.011        0.548       94.631       27.072        0.082      346.936       25.541      859.543
05/23/2014  18:59:00     -172.303       16.335      -18.565       66.143       78.146       40.485     4374.875     6106.734     1639.020        2.121        0.606      173.076       29.316        0.029      346.919       25.510      859.542
05/23/2014  19:00:00     -118.631       86.093      -18.139       59.739       51.427       42.965     3568.693     2644.702     1845.959        1.494        0.403      146.579       32.639        0.050      346.880       25.446      859.538
05/23/2014  19:01:00     -185.525        7.966      -24.900       45.095       89.367       28.713     2033.598     7986.518      824.433        2.297        0.542      185.696       17.845        0.009      346.875       25.436      859.527
05/23/2014  19:02:00     -139.918      -35.356       -8.504       76.722       75.903       39.974     5886.342     5761.308     1597.926        1.707        0.662      144.316       30.792        0.046      346.850       25.393      859.537
05/23/2014  19:03:00     -254.113      -40.620      -16.336      122.093       72.289       44.790    14906.822     5225.729     2006.167        4.431        1.107      257.339       49.685        0.037      346.778       25.267      859.543
05/23/2014  19:04:00     -227.261      -19.434      -11.352       88.337       63.100       43.278     7803.420     3981.551     1872.992        3.290        0.683      228.090       44.474        0.038      346.770       25.253      859.547
05/23/2014  19:05:00     -114.356      -19.710       -0.292       81.641       52.633       29.827     6665.308     2770.272      889.630        1.189        0.516      116.043       38.510        0.110      346.775       25.266      859.547
05/23/2014  19:06:00      -92.751      -41.530       -5.330       65.315       72.879       40.846     4266.041     5311.351     1668.411        1.080        0.562      101.624       32.750        0.104      346.767       25.251      859.546
05/23/2014  19:07:00     -156.297       13.257      -13.114       79.091       82.352       45.112     6255.418     6781.885     2035.109        1.992        0.754      156.858       41.487        0.070      346.731       25.188      859.547
05/23/2014  19:08:00     -144.063       13.824       -7.367       68.931       77.972       37.295     4751.471     6079.685     1390.883        1.661        0.611      144.725       17.498        0.015      346.700       25.135      859.547
05/23/2014  19:09:00      -34.836       15.711       10.337       51.374       48.578       33.969     2639.270     2359.794     1153.861        0.386        0.308       38.215       28.298        0.548      346.707       25.150      859.551
05/23/2014  19:10:00     -122.473       10.679        3.320       78.235      102.969       49.737     6120.778    10602.684     2473.723        1.716        0.960      122.938       48.162        0.153      346.652       25.051      859.548
05/23/2014  19:11:00     -129.152       23.556       -3.107       68.062       71.775       45.555     4632.464     5151.682     2075.228        1.455        0.593      131.282       26.209        0.040      346.664       25.071      859.552
05/23/2014  19:12:00     -117.931       20.785      -16.102       78.103       97.573       48.330     6100.104     9520.554     2335.832        1.627        0.898      119.749       11.665        0.009      346.623       25.003      859.566
05/23/2014  19:13:00     -181.631       84.376      -39.846       57.016       63.426       34.901     3250.858     4022.820     1218.084        2.509        0.425      200.273       25.442        0.016      346.633       25.020      859.574
05/23/2014  19:14:00     -103.607      -10.601      -15.930       62.327       52.112       33.858     3884.695     2715.680     1146.387        0.942        0.387      104.147       21.100        0.041      346.625       25.007      859.577
05/23/2014  19:15:00      -81.215      -25.719       -1.229       52.408       34.145       28.859     2746.596     1165.879      832.824        0.600        0.237       85.190       24.620        0.084      346.605       24.974      859.583
05/23/2014  19:16:00      -90.216      -20.023       -7.275       63.117       38.971       34.462     3983.808     1518.706     1187.651        0.764        0.335       92.411       31.316        0.115      346.602       24.968      859.591
05/23/2014  19:17:00      -40.698      -18.055        4.499       58.893       35.721       17.762     3468.357     1275.970      315.503        0.353        0.253       44.523       17.760        0.159      346.574       24.920      859.598
05/23/2014  19:18:00      -94.882      -19.574       -4.432       46.220       52.368       33.270     2136.257     2742.417     1106.882        0.769        0.299       96.880       21.092        0.047      346.540       24.860      859.618
05/23/2014  19:19:00      -88.472       27.584        6.083       66.612       46.979       50.073     4437.152     2207.016     2507.298        0.889        0.458       92.672       47.790        0.266      346.515       24.817      859.629
05/23/2014  19:20:00      -65.541       13.341       -5.834       34.833       41.640       32.488     1213.367     1733.909     1055.451        0.425        0.200       66.885       14.941        0.050      346.493       24.781      859.649
05/23/2014  19:21:00     -123.896      -10.783       -8.542       64.399       32.812       23.929     4147.230     1076.598      572.601        1.067        0.290      124.364        9.176        0.005      346.517       24.821      859.661
05/23/2014  19:22:00      -81.895       72.765      -11.440       36.391       56.745       26.238     1324.325     3220.041      688.430        0.868        0.262      109.552       14.245        0.017      346.470       24.741      859.672
05/23/2014  19:23:00      -63.945       28.231       -4.397       26.876       32.293       21.702      722.293     1042.818      470.978        0.357        0.112       69.899       14.532        0.043      346.513       24.816      859.684
05/23/2014  19:24:00      -83.932      128.882      -16.859       50.953       54.018       32.082     2596.247     2917.967     1029.262        1.524        0.327      153.803       28.664        0.035      346.524       24.831      859.696
05/23/2014  19:25:00     -153.877       62.270      -32.780      108.287       57.478       43.120    11726.040     3303.749     1859.346        2.276        0.844      165.999       33.854        0.042      346.523       24.829      859.709
05/23/2014  19:26:00     -109.740       41.382       -8.938       76.955       76.250       40.929     5922.017     5814.019     1675.195        1.362        0.671      117.283       45.261        0.149      346.474       24.746      859.693
05/23/2014  19:27:00     -112.489       -2.750       -8.320       53.565       80.691       35.406     2869.224     6511.060     1253.553        1.168        0.532      112.522       28.322        0.063      346.461       24.723      859.689
05/23/2014  19:28:00      -62.093       43.020        7.008       70.206       70.551       35.846     4928.896     4977.431     1284.951        0.847        0.560       75.540       34.932        0.214      346.418       24.650      859.693
05/23/2014  19:29:00     -105.690       25.068       -9.612       60.356       68.293       36.093     3642.807     4663.989     1302.669        1.075        0.480      108.622       40.686        0.140      346.418       24.650      859.693
05/23/2014  19:30:00     -111.995        0.896       -0.835       67.002       75.626       36.831     4489.323     5719.302     1356.521        1.205        0.578      111.999       32.078        0.082      346.344       24.522      859.686
05/23/2014  19:31:00      -97.909       43.402      -13.949       54.356       44.589       24.124     2954.573     1988.158      581.974        0.859        0.276      107.098       18.999        0.031      346.325       24.494      859.683
05/23/2014  19:32:00      -89.841       26.059       -4.211       45.553       33.116       32.182     2075.066     1096.686     1035.649        0.649        0.210       93.544       29.003        0.096      346.309       24.465      859.691
05/23/2014  19:33:00     -102.457      -32.770       -5.227       60.478       51.779       32.969     3657.609     2681.029     1086.926        0.951        0.371      107.570       34.328        0.102      346.358       24.547      859.689
05/23/2014  19:34:00     -150.390        9.238      -26.095       51.935       52.256       34.434     2697.208     2730.740     1185.707        1.500        0.331      150.674       19.832        0.017      346.280       24.414      859.680
05/23/2014  19:35:00     -165.827      -24.483      -10.412       69.595       51.218       33.082     4843.479     2623.268     1094.408        1.838        0.428      167.625       35.481        0.045      346.237       24.340      859.678
05/23/2014  19:36:00     -129.126      -10.904      -12.749       44.358       45.644       31.957     1967.591     2083.379     1021.221        1.101        0.254      129.585       23.309        0.032      346.226       24.320      859.688
05/23/2014  19:37:00      -87.049        9.980       -9.737       48.392       39.510       30.942     2341.777     1561.058      957.386        0.632        0.243       87.619       22.996        0.069      346.222       24.314      859.689
05/23/2014  19:38:00      -83.342       19.499       -8.080       48.183       65.244       34.289     2321.638     4256.755     1175.755        0.757        0.388       85.592       25.341        0.088      346.238       24.341      859.692
05/23/2014  19:39:00      -50.113       39.506      -10.210       43.064       55.849       24.585     1854.532     3119.089      604.403        0.488        0.279       63.813       26.643        0.174      346.166       24.217      859.698
05/23/2014  19:40:00      -77.759      107.448       -9.583       49.854       56.348       34.953     2485.374     3175.135     1221.694        1.228        0.344      132.633       25.414        0.037      346.162       24.212      859.719
05/23/2014  19:41:00     -109.610      162.508      -28.607       70.201       51.136       38.252     4928.196     2614.925     1463.179        2.412        0.450      196.018       33.430        0.029      346.195       24.266      859.732
05/23/2014  19:42:00      -24.731       94.833      -12.130       18.947       33.059       20.741      358.999     1092.904      430.179        0.582        0.094       98.005       19.265        0.039      346.256       24.372      859.750
05/23/2014  19:43:00      -66.183      125.892      -23.236       39.054       40.238       22.336     1525.200     1619.083      498.905        1.221        0.182      142.229       17.306        0.015      346.252       24.365      859.773
05/23/2014  19:44:00     -101.843       88.176      -14.235       39.424       46.290       27.656     1554.231     2142.783      764.837        1.140        0.223      134.711       28.032        0.043      346.290       24.431      859.791
05/23/2014  19:45:00      -47.882       38.600       -0.382       31.700       24.511       17.354     1004.891      600.785      301.176        0.284        0.095       61.503       15.641        0.065      346.323       24.488      859.792
05/23/2014  19:46:00      -10.403       68.571       -9.415       19.337       28.200       15.535      373.911      795.228      241.325        0.315        0.071       69.356       16.569        0.057      346.261       24.381      859.801
05/23/2014  19:47:00      -26.752       31.427        3.975       13.079       27.903       13.370      171.063      778.554      178.762        0.142        0.056       41.272       12.539        0.092      346.302       24.453      859.816
05/23/2014  19:48:00     -106.627       35.544      -16.507       49.559       26.634       20.530     2456.084      709.380      421.487        0.825        0.179      112.395       18.979        0.029      346.310       24.468      859.822
05/23/2014  19:49:00      -50.838       26.131       -8.361       36.742       22.190       12.626     1349.974      492.388      159.418        0.267        0.100       57.160       14.711        0.066      346.273       24.402      859.819
05/23/2014  19:50:00      -69.301       -0.218       -3.219       35.655       33.185       21.577     1271.311     1101.228      465.559        0.383        0.142       69.302       22.336        0.104      346.271       24.398      859.840
05/23/2014  19:51:00      -43.028       -1.913       -5.660       29.650       41.623       19.136      879.141     1732.501      366.194        0.243        0.149       43.071       14.245        0.109      346.277       24.409      859.847
05/23/2014  19:52:00      -74.860      -26.531        1.881       29.617       43.676       21.012      877.191     1907.602      441.517        0.477        0.161       79.423       21.091        0.071      346.295       24.441      859.855
05/23/2014  19:53:00      -77.112       -5.949       -3.884       38.390       35.975       19.801     1473.818     1294.209      392.061        0.458        0.158       77.341       14.266        0.034      346.252       24.367      859.863
05/23/2014  19:54:00     -164.046      -50.466      -13.496       40.934       29.535       17.150     1675.555      872.296      294.112        1.624        0.142      171.633       13.018        0.006      346.329       24.499      859.888
05/23/2014  19:55:00      -57.807      -23.414        7.842       43.180       34.021       24.932     1864.531     1157.456      621.619        0.380        0.182       62.368       23.313        0.140      346.314       24.473      859.898
05/23/2014  19:56:00      -64.445        4.296       -2.759       19.857       18.559       12.552      394.306      344.454      157.546        0.254        0.045       64.588        9.751        0.023      346.326       24.495      859.911
05/23/2014  19:57:00      -35.404      -12.323       -2.719       15.750       13.770        9.882      248.074      189.608       97.645        0.097        0.027       37.487        6.860        0.033      346.299       24.448      859.928
05/23/2014  19:58:00      -43.626        2.765        1.946       19.353       20.771       14.061      374.549      431.417      197.724        0.146        0.050       43.714       10.488        0.058      346.278       24.409      859.948
05/23/2014  19:59:00      -20.404        7.876        1.276       18.732       28.321       14.070      350.906      802.065      197.974        0.092        0.068       21.871        8.062        0.136      346.199       24.273      859.961
05/23/2014  20:00:00      -64.468      -15.560       -4.304       19.510       14.292       10.050      380.631      204.253      100.999        0.255        0.034       66.319        8.880        0.018      346.225       24.318      859.970
05/23/2014  20:01:00      -12.878       -2.219        3.830       16.911       10.570        9.389      285.987      111.716       88.157        0.034        0.024       13.068       10.154        0.604      346.175       24.234      859.985
05/23/2014  20:02:00      -17.851        2.037       -0.434       24.696       10.554        8.273      609.889      111.391       68.445        0.056        0.039       17.967       10.678        0.353      346.214       24.300      859.991
05/23/2014  20:03:00      -76.441      -24.716       -7.609       36.316       24.208       11.717     1318.851      586.035      137.289        0.428        0.102       80.337       12.016        0.022      346.308       24.462      860.009
05/23/2014  20:04:00      -62.019     -118.744       -1.863       79.294       59.182       25.572     6287.600     3502.526      653.952        1.419        0.522      133.965       32.300        0.058      346.206       24.286      860.022
05/23/2014  20:05:00     -111.353      -32.497        2.140       57.591      107.057       41.031     3316.724    11461.292     1683.538        1.496        0.823      115.998       31.743        0.075      346.079       24.067      860.005
05/23/2014  20:06:00     -159.692      -30.944       11.003       98.200       69.272       49.606     9643.158     4798.615     2460.740        2.174        0.845      162.663       49.507        0.093      345.931       23.812      860.040
05/23/2014  20:07:00     -121.539      -99.727        3.910       98.702       83.713       54.503     9742.169     7007.924     2970.539        2.222        0.986      157.217       53.465        0.116      345.970       23.881      860.046
05/23/2014  20:08:00     -108.592      -75.757        4.160       80.076       60.984       35.444     6412.115     3719.104     1256.301        1.447        0.569      132.406       36.844        0.077      345.935       23.819      860.039
05/23/2014  20:09:00     -131.661      -60.795        1.126       74.307       66.308       39.925     5521.575     4396.778     1594.005        1.627        0.576      145.020       36.157        0.062      345.897       23.754      860.043
05/23/2014  20:10:00     -184.269     -133.402        9.556      143.332      125.218       68.417    20544.170    15679.663     4680.932        4.637        2.045      227.489       69.846        0.094      345.870       23.707      860.063
05/23/2014  20:11:00     -232.020     -116.788      -12.708      105.630       97.838       46.038    11157.731     9572.337     2119.466        4.524        1.142      259.755       47.633        0.034      345.861       23.692      860.067
05/23/2014  20:12:00     -187.636      -82.615       -2.438      115.976       83.351       54.788    13450.349     6947.375     3001.703        3.271        1.170      205.018       58.491        0.081      345.839       23.654      860.078
05/23/2014  20:13:00     -176.688     -125.830       -0.367       80.792       84.818       44.777     6527.342     7194.009     2005.011        3.139        0.786      216.914       35.519        0.027      345.819       23.618      860.084
05/23/2014  20:14:00     -129.303      -81.124        3.558       87.535       78.547       45.685     7662.436     6169.692     2087.110        1.961        0.796      152.645       41.139        0.073      345.782       23.558      860.114
05/23/2014  20:15:00      -84.512      -75.858        8.369       68.370       65.815       37.239     4674.419     4331.643     1386.721        1.168        0.520      113.564       38.277        0.114      345.776       23.548      860.136
05/23/2014  20:16:00     -124.752     -105.809       10.659       90.218       73.331       40.932     8139.272     5377.369     1675.390        2.103        0.760      163.580       39.589        0.059      345.769       23.537      860.140
05/23/2014  20:17:00     -149.263      -26.639       -2.983      106.782       61.782       40.720    11402.340     3816.955     1658.103        1.993        0.844      151.621       49.037        0.105      345.749       23.501      860.149
05/23/2014  20:18:00     -100.689      -67.060       -0.935       87.455       60.812       37.870     7648.320     3698.118     1434.137        1.371        0.639      120.976       40.120        0.110      345.741       23.486      860.160
05/23/2014  20:19:00     -149.676     -122.064       -7.271       78.021       72.212       44.820     6087.350     5214.627     2008.862        2.533        0.666      193.139       42.960        0.049      345.721       23.452      860.161
05/23/2014  20:20:00     -121.629     -103.022       -0.769      114.041       86.338       49.379    13005.249     7454.242     2438.256        2.415        1.145      159.396       58.157        0.133      345.671       23.368      860.171
05/23/2014  20:21:00     -140.872      -81.562       -3.868      117.746       84.283       54.263    13864.170     7103.624     2944.480        2.521        1.196      162.779       64.879        0.159      345.662       23.350      860.189
05/23/2014  20:22:00     -172.148     -134.953       -8.174      126.099       99.713       64.691    15901.024     9942.613     4184.941        3.897        1.501      218.740       75.447        0.119      345.669       23.361      860.201
05/23/2014  20:23:00      -95.955      -65.679       -3.166       77.712       84.641       46.852     6039.146     7164.152     2195.129        1.446        0.770      116.280       43.378        0.139      345.607       23.256      860.204
05/23/2014  20:24:00     -197.223       -9.662       -6.366      116.892       70.936       39.074    13663.636     5031.880     1526.761        2.962        1.011      197.459       47.296        0.057      345.580       23.210      860.229
05/23/2014  20:25:00      -78.443      -66.574       19.130       85.530       71.033       41.955     7315.352     5045.675     1760.230        1.253        0.706      102.885       46.597        0.205      345.569       23.192      860.236
05/23/2014  20:26:00     -204.655      -18.245      -11.972       93.962       63.390       38.323     8828.923     4018.347     1468.659        2.833        0.716      205.466       36.194        0.031      345.555       23.165      860.243
05/23/2014  20:27:00     -150.531      -74.150       -1.869       79.549       43.021       35.503     6328.007     1850.791     1260.471        1.880        0.472      167.803       34.927        0.043      345.514       23.098      860.260
05/23/2014  20:28:00     -150.870     -100.606        8.350      113.673       81.018       51.918    12921.444     6563.951     2695.512        2.756        1.109      181.337       46.655        0.066      345.503       23.079      860.254
05/23/2014  20:29:00     -338.011      -47.616      -35.476      138.075      115.352       54.099    19064.661    13306.034     2926.678        7.653        1.765      341.348       62.828        0.034      345.581       23.210      860.249
05/23/2014  20:30:00     -194.604      -50.366       13.215      182.565       83.262       53.964    33330.102     6932.635     2912.088        4.187        2.159      201.016       67.559        0.113      345.542       23.145      860.246
05/23/2014  20:31:00     -306.255      -46.004      -21.701      152.808       78.045       53.834    23350.132     6091.018     2898.057        6.435        1.617      309.691       60.472        0.038      345.513       23.091      860.263
05/23/2014  20:32:00     -403.195     -154.169      -26.418      177.663      136.555       74.780    31564.127    18647.188     5592.016       12.141        2.790      431.664       69.589        0.026      345.527       23.117      860.229
05/23/2014  20:33:00     -394.127     -151.666      -11.163      166.469      127.064       73.099    27711.995    16145.233     5343.492       11.382        2.460      422.301       62.406        0.022      345.498       23.069      860.237
05/23/2014  20:34:00     -332.873      -59.063       -4.534      133.223       95.531       63.597    17748.409     9126.077     4044.530        7.261        1.546      338.072       69.176        0.042      345.490       23.053      860.251
05/23/2014  20:35:00     -305.910     -156.498        0.715      128.647      160.707       66.731    16550.135    25826.860     4453.074        8.244        2.342      343.616       75.842        0.049      345.473       23.023      860.250
05/23/2014  20:36:00     -285.815     -111.912       -3.961      171.371      112.300       70.111    29368.058    12611.261     4915.533        7.055        2.345      306.944       79.818        0.068      345.446       22.979      860.251
05/23/2014  20:37:00     -275.914      -94.305       -6.836      160.320       86.372       60.915    25702.662     7460.090     3710.606        6.096        1.844      291.585       74.596        0.065      345.460       23.002      860.252
05/23/2014  20:38:00     -213.716      -13.797       16.597      141.810      106.228       65.123    20109.937    11284.315     4240.999        4.088        1.782      214.161       73.443        0.118      345.458       22.997      860.234
05/23/2014  20:39:00     -361.653      -45.911      -34.685      165.945      129.991       63.351    27537.718    16897.705     4013.383        9.127        2.422      364.555       67.336        0.034      345.436       22.961      860.245
05/23/2014  20:40:00     -427.923      -10.956      -37.208      169.701      119.901       66.067    28798.262    14376.266     4364.840       11.607        2.377      428.063       63.140        0.022      345.441       22.969      860.250
05/23/2014  20:41:00     -309.908      -55.224        3.270      128.489      119.185       70.000    16509.350    14205.077     4900.006        6.735        1.781      314.790       54.058        0.029      345.406       22.910      860.268
05/23/2014  20:42:00     -297.175     -142.266      -23.030      222.030      150.809       73.501    49297.124    22743.264     5402.357        9.325        3.872      329.473       84.362        0.066      345.424       22.940      860.271
05/23/2014  20:43:00     -206.400      -79.689       11.350      196.418      137.737       91.040    38580.124    18971.539     8288.289        5.745        3.292      221.250      101.891        0.212      345.394       22.890      860.273
05/23/2014  20:44:00     -154.032      -53.915       -6.498      128.003      116.413       64.716    16384.794    13551.928     4188.171        3.039        1.706      163.195       60.784        0.139      345.374       22.855      860.279
05/23/2014  20:45:00     -165.173      -47.300      -20.422      158.028       98.434       74.736    24972.866     9689.276     5585.437        3.508        2.012      171.812       67.747        0.155      345.359       22.832      860.289
05/23/2014  20:46:00     -199.519      -41.334        6.610      126.589      121.553       66.573    16024.810    14775.148     4431.924        3.839        1.762      203.755       70.697        0.120      345.339       22.794      860.310
05/23/2014  20:47:00     -201.061     -129.464       -3.818      109.572      109.221       57.809    12005.993    11929.129     3341.892        4.223        1.364      239.137       58.300        0.059      345.331       22.781      860.305
05/23/2014  20:48:00     -356.183      -97.193      -16.095      186.901      124.560       70.052    34932.126    15515.214     4907.310        9.595        2.768      369.205       69.586        0.036      345.339       22.796      860.309
05/23/2014  20:49:00     -262.693      -33.468      -17.129      119.178       98.415       44.561    14203.294     9685.428     1985.681        4.814        1.294      264.816       56.721        0.046      345.294       22.718      860.323
05/23/2014  20:50:00     -316.932      -61.014      -31.269       97.305      110.823       57.790     9468.317    12281.764     3339.694        6.511        1.254      322.752       43.072        0.018      345.287       22.705      860.339
05/23/2014  20:51:00     -257.356      -47.752      -13.280       92.145       99.265       61.363     8490.617     9853.636     3765.405        4.539        1.105      261.748       51.326        0.038      345.259       22.658      860.339
05/23/2014  20:52:00     -170.356      -72.345        1.530      120.327      108.403       52.436    14478.548    11751.292     2749.523        3.161        1.449      185.081       51.017        0.076      345.249       22.641      860.363
05/23/2014  20:53:00     -200.516      -46.989      -14.384       95.316       92.369       42.689     9085.214     8532.112     1822.340        3.103        0.972      205.948       42.710        0.043      345.246       22.636      860.356
05/23/2014  20:54:00     -165.229      -60.389       -7.132      102.417       79.732       39.972    10489.310     6357.159     1597.786        2.472        0.922      175.919       46.235        0.069      345.242       22.630      860.380
05/23/2014  20:55:00     -137.367      -63.865        8.359       97.121       86.969       48.927     9432.519     7563.644     2393.816        2.120        0.969      151.487       48.802        0.104      345.221       22.594      860.390
05/23/2014  20:56:00     -229.347      -34.481        2.810      132.029       92.914       55.856    17431.561     8633.052     3119.915        4.148        1.459      231.925       64.360        0.077      345.199       22.555      860.406
05/23/2014  20:57:00     -388.937      -63.464      -15.451      118.553      121.429       57.112    14054.820    14744.984     3261.780        9.379        1.603      394.081       60.834        0.024      345.266       22.669      860.418
05/23/2014  20:58:00     -443.429      -28.756      -23.588      162.535      149.547       69.389    26417.562    22364.414     4814.799       12.579        2.680      444.360       64.049        0.021      345.281       22.695      860.426
05/23/2014  20:59:00     -324.731      -43.291      -11.306      206.828      139.612       76.600    42778.024    19491.375     5867.551        8.778        3.407      327.604       87.194        0.071      345.267       22.672      860.415
05/23/2014  21:00:00     -269.929      -53.549      -20.462      143.962      103.269       65.452    20725.006    10664.391     4283.959        5.590        1.784      275.189       69.520        0.064      345.251       22.644      860.443
05/23/2014  21:01:00     -226.512      -89.626      -12.759      139.138      144.493       55.860    19359.464    20878.361     3120.394        5.142        2.168      243.599       69.410        0.081      345.228       22.605      860.467
05/23/2014  21:02:00     -338.737     -101.530      -18.660      120.854      118.628       55.670    14605.676    14072.543     3099.142        7.858        1.589      353.626       56.626        0.026      345.243       22.631      860.482
05/23/2014  21:03:00     -269.882      -43.038       -7.496      105.093       68.895       48.562    11044.555     4746.522     2358.308        4.644        0.907      273.292       43.982        0.026      345.178       22.519      860.480
05/23/2014  21:04:00     -217.652     -102.150       -0.626      120.883       78.422       53.655    14612.709     6150.084     2878.869        4.072        1.182      240.431       66.092        0.076      345.153       22.475      860.483
05/23/2014  21:05:00     -243.778      -25.877       -8.279       98.439       85.080       49.036     9690.245     7238.622     2404.525        3.975        0.967      245.148       47.321        0.037      345.140       22.455      860.490
05/23/2014  21:06:00     -210.643        0.753      -11.739       79.796       61.832       41.122     6367.469     3823.230     1691.037        2.819        0.594      210.645       36.499        0.030      345.140       22.455      860.510
05/23/2014  21:07:00     -157.756       -4.452       -3.592       75.316       66.215       33.463     5672.494     4384.449     1119.782        1.805        0.559      157.819       34.490        0.048      345.080       22.354      860.521
05/23/2014  21:08:00     -147.400      -72.299        6.989      120.366       72.412       51.168    14487.950     5243.524     2618.203        2.467        1.117      164.176       59.718        0.132      345.074       22.343      860.543
05/23/2014  21:09:00     -204.859      -83.115       -5.160       89.506       89.598       42.949     8011.365     8027.760     1844.592        3.339        0.894      221.078       37.067        0.028      345.067       22.330      860.550
05/23/2014  21:10:00     -308.870      -24.539      -22.557      132.676       82.750       45.592    17602.823     6847.633     2078.637        6.151        1.326      309.843       53.931        0.030      345.063       22.324      860.566
05/23/2014  21:11:00     -317.361      -58.525      -17.505      105.513      101.463       59.600    11132.960    10294.792     3552.126        6.471        1.249      322.712       62.557        0.038      345.049       22.299      860.570
05/23/2014  21:12:00     -236.635      -13.285        5.226      135.556       83.994       59.564    18375.375     7055.024     3547.884        4.258        1.449      237.008       71.591        0.091      345.010       22.233      860.585
05/23/2014  21:13:00     -309.942      -12.110      -21.452      120.086       92.427       42.116    14420.537     8542.824     1773.749        6.070        1.237      310.178       49.024        0.025      345.000       22.215      860.609
05/23/2014  21:14:00     -213.572      -30.134       -8.059      128.965      115.406       60.137    16631.889    13318.605     3616.472        4.007        1.678      215.687       63.875        0.088      344.984       22.186      860.618
05/23/2014  21:15:00     -294.477      -66.158       -8.471      168.557       96.512       53.385    28411.371     9314.543     2849.932        6.586        2.029      301.817       72.969        0.058      344.933       22.100      860.643
05/23/2014  21:16:00     -233.917      -34.341        4.355      144.356       97.172       52.991    20838.535     9442.459     2808.060        4.450        1.654      236.424       64.903        0.075      344.940       22.114      860.651
05/23/2014  21:17:00     -331.406      -98.825      -12.850      205.993      124.545       69.472    42433.210    15511.514     4826.371        9.125        3.139      345.827       89.943        0.068      344.973       22.170      860.658
05/23/2014  21:18:00     -421.568      -50.695      -23.191      139.955      137.428       72.701    19587.441    18886.385     5285.500       11.228        2.188      424.605       75.321        0.031      345.003       22.221      860.655
05/23/2014  21:19:00     -276.270      -28.612      -10.404      159.506      100.250       63.626    25442.054    10050.058     4048.205        5.839        1.977      277.748       78.811        0.081      344.957       22.142      860.660
05/23/2014  21:20:00     -133.421      -94.929      -10.610      150.406      112.946       78.807    22622.025    12756.817     6210.546        3.425        2.079      163.746       84.938        0.269      344.939       22.115      860.674
05/23/2014  21:21:00     -301.960     -115.877      -19.835      145.151      104.003       66.598    21068.927    10816.608     4435.260        7.065        1.816      323.431       67.852        0.044      344.974       22.170      860.685
05/23/2014  21:22:00     -145.441      -64.249       -2.252      100.800       98.116       55.882    10160.712     9626.812     3122.802        2.409        1.146      159.000       46.688        0.086      344.925       22.087      860.707
05/23/2014  21:23:00     -206.835      -72.515        1.163      101.376       75.147       45.383    10277.143     5647.096     2059.631        3.301        0.899      219.178       50.262        0.053      344.859       21.974      860.726
05/23/2014  21:24:00     -271.787      -93.802      -12.751      129.178      107.005       58.951    16687.023    11450.085     3475.244        5.721        1.581      287.519       66.591        0.054      344.885       22.018      860.740
05/23/2014  21:25:00     -182.327     -112.195       -4.342      133.833      115.492       61.550    17911.199    13338.439     3788.407        4.044        1.752      214.082       68.762        0.103      344.856       21.970      860.759
05/23/2014  21:26:00     -377.705      -74.845      -20.929      106.406      109.529       63.379    11322.207    11996.667     4016.879        8.801        1.367      385.049       55.636        0.021      344.866       21.985      860.757
05/23/2014  21:27:00     -307.369      -90.088      -19.423      107.555      113.210       45.415    11568.083    12816.569     2062.487        6.470        1.322      320.299       38.943        0.015      344.848       21.955      860.778
05/23/2014  21:28:00     -289.475        8.310       -7.972      120.890      102.616       64.149    14614.506    10530.025     4115.141        5.659        1.463      289.595       58.667        0.041      344.844       21.948      860.785
05/23/2014  21:29:00     -347.969      -53.237       -8.017      105.419      106.030       58.039    11113.164    11242.344     3368.486        7.485        1.286      352.018       57.910        0.027      344.808       21.885      860.802
05/23/2014  21:30:00     -263.383      -68.387      -13.840       93.441       67.029       44.290     8731.248     4492.844     1961.615        4.471        0.759      272.116       43.888        0.026      344.792       21.858      860.815
05/23/2014  21:31:00     -226.086      -34.294      -12.223      102.462       82.171       45.206    10498.552     6752.089     2043.553        3.586        0.965      228.673       44.077        0.037      344.749       21.785      860.823
05/23/2014  21:32:00     -258.459      -15.548      -13.545      123.947       76.031       51.803    15362.740     5780.721     2683.512        4.552        1.191      258.926       63.488        0.060      344.754       21.793      860.817
05/23/2014  21:33:00     -305.419      -51.191      -14.213      117.286       77.029       50.735    13755.975     5933.423     2574.001        5.918        1.113      309.680       57.192        0.034      344.763       21.807      860.830
05/23/2014  21:34:00     -267.193      -27.039      -25.578      127.731       71.273       42.602    16315.173     5079.861     1814.931        4.799        1.160      268.557       39.314        0.021      344.758       21.801      860.826
05/23/2014  21:35:00     -106.748      -17.675        9.803      112.718      104.538       56.110    12705.378    10928.229     3148.322        1.929        1.339      108.201       73.780        0.465      344.679       21.667      860.818
05/23/2014  21:36:00     -225.992      -79.098        5.035      138.518      111.742       60.173    19187.280    12486.172     3620.842        4.632        1.765      239.434       53.459        0.050      344.725       21.745      860.826
05/23/2014  21:37:00     -243.174      -29.300       12.104      131.746      116.632       66.026    17356.896    13603.079     4359.434        4.772        1.766      244.933       69.807        0.081      344.704       21.708      860.839
05/23/2014  21:38:00     -325.263      -28.397      -20.003      147.594      123.152       62.438    21783.870    15166.496     3898.544        7.392        2.042      326.500       56.088        0.030      344.732       21.757      860.847
05/23/2014  21:39:00     -179.603      -92.423       13.700      117.591      110.686       59.990    13827.557    12251.327     3598.774        3.533        1.484      201.989       55.866        0.076      344.698       21.698      860.852
05/23/2014  21:40:00     -335.238     -128.127      -12.121      176.116      135.033       54.881    31016.945    18234.025     3011.947        9.059        2.613      358.888       59.163        0.027      344.739       21.768      860.861
05/23/2014  21:41:00     -354.282      -57.977      -12.533      195.235       94.584       66.434    38116.886     8946.172     4413.457        9.025        2.574      358.994       79.091        0.049      344.721       21.737      860.858
05/23/2014  21:42:00     -186.952      -23.187       -1.599      140.692       95.554       60.099    19794.103     9130.585     3611.854        3.401        1.627      188.384       68.095        0.131      344.677       21.664      860.860
05/23/2014  21:43:00     -295.149      -58.067      -22.057      127.202      100.687       53.194    16180.463    10137.826     2829.573        6.005        1.457      300.807       57.078        0.036      344.665       21.641      860.878
05/23/2014  21:44:00     -238.665      -40.247       -4.838      164.696      112.762       62.070    27124.925    12715.309     3852.737        5.114        2.185      242.034       72.609        0.090      344.666       21.644      860.887
05/23/2014  21:45:00     -134.461      -11.817      -15.092       97.126       61.808       38.758     9433.387     3820.286     1502.159        1.660        0.738      134.979       40.047        0.088      344.656       21.629      860.879
05/23/2014  21:46:00     -251.329     -127.157        4.710      132.740      116.381       65.486    17619.796    13544.646     4288.455        5.740        1.773      281.664       60.988        0.047      344.672       21.653      860.884
05/23/2014  21:47:00     -264.016      -48.216        1.820      129.720      106.634       54.651    16827.199    11370.814     2986.760        5.160        1.559      268.383       57.732        0.046      344.656       21.626      860.893
05/23/2014  21:48:00     -389.168      -59.731      -15.552      164.118      151.003       74.583    26934.668    22801.878     5562.663       10.527        2.765      393.725       75.718        0.037      344.713       21.721      860.876
05/23/2014  21:49:00     -355.784      -21.691      -15.269      158.709      125.927       67.560    25188.701    15857.500     4564.321        8.644        2.281      356.445       64.884        0.033      344.695       21.693      860.904
05/23/2014  21:50:00     -291.217      -31.466       -6.594      138.539      108.920       66.372    19193.165    11863.673     4405.191        6.064        1.773      292.912       72.155        0.061      344.684       21.673      860.905
05/23/2014  21:51:00     -245.830      -52.883       -7.265       95.110       84.155       49.158     9045.927     7082.033     2416.538        4.091        0.927      251.454       43.877        0.030      344.670       21.649      860.940
05/23/2014  21:52:00     -289.693      -11.254       -4.239      173.460       65.151       60.228    30088.416     4244.626     3627.364        6.101        1.898      289.911       74.533        0.066      344.667       21.646      860.955
05/23/2014  21:53:00     -438.962        7.565      -44.988       93.234      112.828       50.993     8692.534    12730.233     2600.314       10.939        1.201      439.027       37.991        0.007      344.673       21.654      860.971
05/23/2014  21:54:00     -394.977      -46.313      -26.226      220.915      131.070       74.584    48803.583    17179.472     5562.705       11.518        3.577      397.683       97.395        0.060      344.680       21.667      860.993
05/23/2014  21:55:00     -255.079     -101.296       -2.408      163.725      102.871       70.923    26805.735    10582.542     5030.108        5.887        2.121      274.457       85.544        0.097      344.653       21.620      861.017
05/23/2014  21:56:00     -329.991      -44.081       -6.370      172.527      144.513       77.088    29765.672    20884.008     5942.501        8.372        2.830      332.922       81.192        0.059      344.673       21.655      861.021
05/23/2014  21:57:00     -279.060       -6.938      -11.285      137.348      102.831       66.126    18864.511    10574.264     4372.682        5.592        1.691      279.146       68.227        0.060      344.677       21.663      861.040
05/23/2014  21:58:00     -346.194      -63.850       -7.083      153.954      109.340       59.655    23701.976    11955.269     3558.705        8.159        1.961      352.033       44.801        0.016      344.697       21.695      861.037
05/23/2014  21:59:00     -308.812      -56.408      -17.607      131.110      103.447       51.559    17189.906    10701.321     2658.284        6.470        1.527      313.921       58.483        0.035      344.657       21.627      861.050
05/23/2014  22:00:00     -349.285       15.008      -31.816      136.153      113.545       63.532    18537.585    12892.507     4036.266        7.934        1.773      349.608       61.700        0.031      344.698       21.697      861.058
05/23/2014  22:01:00     -335.586      -94.248      -26.945      133.347       98.487       61.657    17781.306     9699.765     3801.627        7.675        1.564      348.570       71.326        0.042      344.665       21.641      861.062
05/23/2014  22:02:00     -398.835      -28.488      -21.981      152.669      128.995       69.227    23307.854    16639.746     4792.332       10.254        2.237      399.851       69.386        0.030      344.662       21.636      861.066
05/23/2014  22:03:00     -408.688      -70.864      -11.225      165.880      123.123       79.790    27516.135    15159.181     6366.418       11.060        2.452      414.786       63.906        0.024      344.689       21.681      861.079
05/23/2014  22:04:00     -352.094     -105.232       -0.457      129.406      128.183       76.887    16745.922    16430.947     5911.667        8.706        1.954      367.483       58.045        0.025      344.686       21.677      861.070
05/23/2014  22:05:00     -337.308      -60.114      -10.515      142.353       95.849       59.744    20264.397     9187.033     3569.339        7.525        1.651      342.622       68.475        0.040      344.705       21.708      861.083
05/23/2014  22:06:00     -287.703      -25.264      -10.241      116.270      117.203       60.668    13518.688    13736.651     3680.571        5.722        1.547      288.810       58.592        0.041      344.676       21.659      861.105
05/23/2014  22:07:00     -377.892      -39.094      -33.291      157.737      141.212       67.766    24880.812    19940.694     4592.263        9.742        2.471      379.908       79.272        0.044      344.701       21.702      861.118
05/23/2014  22:08:00     -307.048      -24.677      -23.356      108.483      118.612       49.444    11768.579    14068.814     2444.720        6.185        1.414      308.038       43.554        0.020      344.654       21.621      861.145
05/23/2014  22:09:00     -463.678       54.563      -51.298       88.718       92.099       59.402     7870.796     8482.172     3528.545       12.024        0.994      466.877       48.035        0.011      344.671       21.651      861.157
05/23/2014  22:10:00     -428.594       35.895      -38.332      135.163      127.895       65.101    18269.149    16357.124     4238.126       11.265        1.943      430.095       60.968        0.020      344.638       21.594      861.178
05/23/2014  22:11:00     -294.854      -64.313      -10.191      140.146       98.372       52.990    19640.767     9677.118     2807.976        6.165        1.606      301.787       57.008        0.036      344.620       21.566      861.213
05/23/2014  22:12:00     -196.965      -78.394      -12.935      146.107       94.497       58.163    21347.396     8929.651     3382.902        3.938        1.683      211.992       50.845        0.058      344.587       21.509      861.208
05/23/2014  22:13:00     -349.993      -12.846      -25.489      185.026       67.765       59.017    34234.716     4592.106     3483.002        8.280        2.115      350.229       79.640        0.052      344.594       21.520      861.242
05/23/2014  22:14:00     -361.537      -36.232      -24.241      106.224       89.682       50.160    11283.472     8042.875     2515.983        7.722        1.092      363.348       46.416        0.016      344.581       21.497      861.271
05/23/2014  22:15:00     -319.690      -36.825      -14.558      137.426       84.529       60.629    18885.991     7145.119     3675.877        6.673        1.485      321.804       65.971        0.042      344.556       21.455      861.268
05/23/2014  22:16:00     -370.676       -6.819      -20.172      112.962      123.232       64.351    12760.440    15186.003     4141.032        8.496        1.604      370.739       53.087        0.021      344.570       21.479      861.261
05/23/2014  22:17:00     -412.116      -61.237      -25.071      110.368       83.338       57.951    12181.059     6945.285     3358.322        9.835        1.124      416.641       56.838        0.019      344.608       21.543      861.266
05/23/2014  22:18:00     -393.368       -5.038      -43.254      117.723      129.784       59.418    13858.648    16844.005     3530.447        9.543        1.712      393.400       54.934        0.019      344.606       21.538      861.275
05/23/2014  22:19:00     -183.732      -54.737        6.070      122.827      114.223       53.632    15086.363    13046.890     2876.415        3.389        1.550      191.712       53.227        0.077      344.556       21.458      861.263
05/23/2014  22:20:00     -233.164       -6.941       -5.836      104.743      123.486       51.179    10971.052    15248.758     2619.252        4.164        1.442      233.267       51.441        0.049      344.553       21.449      861.247
05/23/2014  22:21:00     -227.745      -52.650       -7.478       94.612       88.577       50.685     8951.503     7845.882     2568.944        3.703        0.968      233.751       34.369        0.022      344.591       21.515      861.259
05/23/2014  22:22:00     -306.841      -63.308      -21.008      135.951       85.703       67.828    18482.772     7345.030     4600.688        6.451        1.521      313.304       72.048        0.053      344.615       21.556      861.266
05/23/2014  22:23:00     -427.792      -19.845      -34.179      209.020       99.520       63.419    43689.188     9904.257     4022.010       12.108        2.881      428.252       85.274        0.040      344.664       21.640      861.259
05/23/2014  22:24:00     -350.345      -35.441      -18.334      142.139      115.084       67.986    20203.357    13244.314     4622.147        8.119        1.903      352.133       70.533        0.040      344.623       21.570      861.249
05/23/2014  22:25:00     -386.418      -68.181      -32.642      119.214      140.256       57.049    14211.975    19671.811     3254.640        9.608        1.857      392.387       45.474        0.013      344.653       21.620      861.258
05/23/2014  22:26:00     -366.865       -1.021      -36.524      110.950      117.088       50.113    12309.987    13709.608     2511.306        8.222        1.427      366.866       42.238        0.013      344.634       21.587      861.276
05/23/2014  22:27:00     -307.818      -29.642      -25.279      101.782       93.394       47.495    10359.502     8722.352     2255.762        5.880        1.067      309.242       40.055        0.017      344.615       21.554      861.285
05/23/2014  22:28:00     -380.564      -36.614      -29.121      134.529      123.961       70.111    18098.046    15366.286     4915.491        9.269        1.919      382.321       69.432        0.033      344.629       21.580      861.282
05/23/2014  22:29:00     -290.154      -24.342      -15.604      118.156       85.732       51.704    13960.889     7350.002     2673.264        5.450        1.199      291.173       58.307        0.040      344.561       21.464      861.289
05/23/2014  22:30:00     -214.692      -37.739      -12.386      126.169       65.945       50.654    15918.666     4348.757     2565.786        3.525        1.142      217.984       58.558        0.072      344.507       21.373      861.288
05/23/2014  22:31:00     -214.025      -30.767      -18.003      142.567       68.610       47.513    20325.279     4707.266     2257.485        3.718        1.365      216.225       53.851        0.062      344.520       21.395      861.272
05/23/2014  22:32:00      -94.257      -22.796        9.856       74.599       57.930       46.751     5564.994     3355.834     2185.692        1.030        0.555       96.975       33.842        0.122      344.481       21.330      861.271
05/23/2014  22:33:00     -160.387     -106.371       12.129      106.691      124.470       60.004    11382.913    15492.658     3600.450        3.382        1.524      192.455       66.604        0.120      344.482       21.329      861.292
05/23/2014  22:34:00     -151.550       -7.538       -7.531       98.898       58.597       46.262     9780.726     3433.601     2140.161        1.921        0.768      151.737       48.893        0.104      344.459       21.292      861.289
05/23/2014  22:35:00     -356.209      -62.552      -12.806      165.504      117.898       75.057    27391.559    13899.949     5633.620        8.893        2.346      361.659       88.010        0.059      344.505       21.369      861.305
05/23/2014  22:36:00     -245.179      -66.985       -2.945      142.000       97.549       62.358    20164.088     9515.749     3888.580        4.908        1.678      254.165       70.352        0.077      344.461       21.293      861.308
05/23/2014  22:37:00     -306.386      -17.095       -7.570      106.913       92.700       66.381    11430.448     8593.352     4406.469        5.932        1.222      306.862       59.540        0.038      344.484       21.333      861.302
05/23/2014  22:38:00     -379.289      -89.959      -21.559      122.844      111.794       59.847    15090.598    12497.931     3581.689        9.179        1.559      389.811       68.037        0.030      344.510       21.376      861.309
05/23/2014  22:39:00     -292.080      -47.276      -20.313      110.851       87.859       50.917    12287.951     7719.136     2592.566        5.527        1.130      295.881       60.995        0.042      344.478       21.321      861.318
05/23/2014  22:40:00     -273.494      -53.864      -15.666      117.576      116.461       55.013    13824.148    13563.150     3026.398        5.417        1.521      278.747       55.250        0.039      344.476       21.318      861.314
05/23/2014  22:41:00     -216.425      -46.395      -22.329      100.328       98.339       43.333    10065.757     9670.581     1877.741        3.555        1.081      221.342       28.500        0.017      344.461       21.292      861.293
05/23/2014  22:42:00     -249.043      -67.637       -5.156      107.130       90.265       60.451    11476.938     8147.771     3654.359        4.495        1.164      258.064       65.474        0.064      344.407       21.200      861.305
05/23/2014  22:43:00     -165.131      -67.157        8.686      119.706       80.496       58.984    14329.527     6479.621     3479.132        2.807        1.214      178.265       66.922        0.141      344.449       21.272      861.288
05/23/2014  22:44:00     -168.752     -123.698        0.739       98.414       90.275       59.771     9685.352     8149.582     3572.521        3.259        1.070      209.233       46.922        0.050      344.466       21.302      861.280
05/23/2014  22:45:00     -194.992      -86.575        5.381      144.990      109.945       63.982    21022.138    12087.798     4093.702        4.137        1.860      213.348       74.748        0.123      344.462       21.296      861.291
05/23/2014  22:46:00     -136.841      -74.369       14.316      129.393      109.092       59.879    16742.521    11901.089     3585.483        2.834        1.611      155.744       61.030        0.154      344.448       21.272      861.302
05/23/2014  22:47:00     -276.157        9.620       -9.112      146.853      102.911       68.419    21565.755    10590.628     4681.175        5.663        1.842      276.325       72.188        0.068      344.457       21.287      861.313
05/23/2014  22:48:00     -298.815      -85.361      -24.666      154.065       74.723       54.320    23736.085     5583.535     2950.668        6.472        1.614      310.769       55.207        0.032      344.501       21.362      861.322
05/23/2014  22:49:00     -115.069      -60.921        6.138      111.689       81.798       46.177    12474.327     6690.838     2132.295        1.914        1.065      130.201       53.896        0.171      344.411       21.210      861.314
05/23/2014  22:50:00     -199.144      -78.528       -1.976      140.500      100.068       56.627    19740.387    10013.644     3206.633        3.939        1.648      214.068       68.431        0.102      344.477       21.320      861.325
05/23/2014  22:51:00     -217.615      -92.503       -9.468       91.226       93.598       53.956     8322.148     8760.540     2911.211        3.799        1.000      236.460       46.225        0.038      344.501       21.362      861.336
05/23/2014  22:52:00     -192.308      -17.928       -9.934      119.257       84.992       56.525    14222.273     7223.668     3195.119        3.102        1.232      193.142       58.850        0.093      344.445       21.266      861.352
05/23/2014  22:53:00     -180.068      -81.267      -10.064       79.460       72.894       39.259     6313.948     5313.477     1541.240        2.615        0.658      197.557       39.216        0.039      344.468       21.306      861.343
05/23/2014  22:54:00     -135.721       -7.416        1.763      103.727       55.925       45.276    10759.267     3127.591     2049.919        1.720        0.797      135.923       58.060        0.182      344.326       21.064      861.348
05/23/2014  22:55:00     -241.359      -49.782      -18.755      109.184       78.307       49.834    11921.171     6131.986     2483.381        4.081        1.027      246.439       47.863        0.038      344.433       21.245      861.351
05/23/2014  22:56:00     -214.450      -48.793       -0.843      146.637       95.801       64.775    21502.538     9177.823     4195.795        4.162        1.744      219.931       74.414        0.114      344.426       21.234      861.351
05/23/2014  22:57:00      -96.742      -82.773       16.341      129.308      109.210       63.390    16720.638    11926.847     4018.315        2.457        1.633      127.320       61.917        0.236      344.402       21.193      861.358
05/23/2014  22:58:00     -172.955      -54.205       -9.731       90.750       81.052       51.898     8235.552     6569.501     2693.382        2.522        0.875      181.251       42.808        0.056      344.473       21.313      861.378
05/23/2014  22:59:00     -151.639      -22.129       16.036      132.449       93.406       53.535    17542.688     8724.643     2865.987        2.643        1.457      153.245       63.093        0.170      344.400       21.189      861.395
05/23/2014  23:00:00     -247.747     -154.419       -9.553      137.875       93.366       55.188    19009.382     8717.245     3045.756        5.804        1.539      291.931       59.115        0.041      344.444       21.263      861.407
05/23/2014  23:01:00     -261.536      -88.775       -2.328      107.144       89.522       56.397    11479.844     8014.154     3180.604        4.948        1.134      276.192       58.504        0.045      344.435       21.246      861.421
05/23/2014  23:02:00     -209.392      -51.276       -2.863       81.670       75.055       43.016     6670.050     5633.272     1850.366        3.032        0.708      215.579       36.925        0.029      344.418       21.219      861.433
05/23/2014  23:03:00     -129.560      -79.654        7.701       86.629       90.792       46.149     7504.511     8243.191     2129.729        2.053        0.894      152.087       39.330        0.067      344.364       21.127      861.447
05/23/2014  23:04:00     -287.493      -82.165      -10.037      106.450       73.486       54.086    11331.634     5400.180     2925.281        5.458        0.983      299.004       50.758        0.029      344.415       21.214      861.451
05/23/2014  23:05:00     -202.763      -63.405       -1.193       90.306      114.310       52.410     8155.244    13066.817     2746.767        3.455        1.198      212.446       42.402        0.040      344.370       21.138      861.442
05/23/2014  23:06:00     -312.085      -30.251      -19.576      146.523       72.086       51.706    21469.136     5196.339     2673.486        6.401        1.467      313.548       58.748        0.035      344.383       21.161      861.447
05/23/2014  23:07:00     -271.307      -60.041      -14.259       66.367       64.395       42.963     4404.571     4146.660     1845.827        4.390        0.520      277.871       36.867        0.018      344.352       21.105      861.455
05/23/2014  23:08:00     -215.192      -62.321      -14.215       73.444       79.701       44.872     5394.041     6352.239     2013.481        3.207        0.688      224.035       41.611        0.034      344.343       21.089      861.451
05/23/2014  23:09:00     -177.168      -24.392       -5.441       82.366       91.371       51.634     6784.173     8348.703     2666.074        2.490        0.890      178.839       52.311        0.086      344.330       21.069      861.451
05/23/2014  23:10:00     -255.874      -26.687      -32.389       45.126       59.110       31.239     2036.383     3494.033      975.901        3.687        0.325      257.262       22.107        0.007      344.325       21.058      861.464
05/23/2014  23:11:00     -195.128       -0.525      -16.735      105.086       78.381       37.220    11043.166     6143.573     1385.319        2.846        0.929      195.129       33.205        0.029      344.312       21.039      861.488
05/23/2014  23:12:00      -56.449        7.038       -7.741       84.736       63.958       36.103     7180.235     4090.579     1303.431        0.793        0.629       56.887       16.736        0.087      344.270       20.970      861.484
05/23/2014  23:13:00      -34.363       19.489       13.552       51.815       61.429       30.261     2684.803     3773.567      915.724        0.456        0.369       39.505       21.027        0.283      344.211       20.870      861.486
05/23/2014  23:14:00       -6.767       41.531       21.924       45.019       40.721       33.553     2026.672     1658.211     1125.834        0.353        0.241       42.079       34.015        0.653      344.220       20.886      861.488
05/23/2014  23:15:00      -24.074      146.416      -10.128       56.315       43.764       32.235     3171.390     1915.249     1039.083        1.412        0.306      148.382       25.756        0.030      344.268       20.967      861.500
05/23/2014  23:16:00       -1.940      161.687      -15.223       36.652       65.009       29.276     1343.398     4226.224      857.064        1.640        0.321      161.698       32.450        0.040      344.244       20.924      861.524
05/23/2014  23:17:00      -15.139      124.089      -19.774       57.289       42.571       25.718     3282.031     1812.273      661.433        1.089        0.288      125.009       17.622        0.020      344.238       20.914      861.558
05/23/2014  23:18:00      -18.507      203.727      -28.953       34.540       46.098       21.805     1192.979     2125.002      475.451        2.324        0.190      204.566       12.056        0.003      344.178       20.811      861.568
05/23/2014  23:19:00      -52.446      120.487      -23.887       64.587       85.855       21.921     4171.439     7371.029      480.544        1.493        0.601      131.406       29.320        0.050      344.137       20.742      861.583
05/23/2014  23:20:00       11.242       61.432       13.675       54.051       46.273       35.304     2921.528     2141.162     1246.360        0.520        0.315       62.452       17.244        0.076      344.081       20.646      861.585
05/23/2014  23:21:00       55.030       76.297       -2.433       37.116       49.971       36.047     1377.579     2497.105     1299.395        0.701        0.259       94.072       33.993        0.131      344.092       20.666      861.574
05/23/2014  23:22:00       16.490       90.156      -10.717       28.062       39.353       24.608      787.492     1548.667      605.532        0.573        0.147       91.652       27.087        0.087      344.078       20.643      861.576
05/23/2014  23:23:00        9.512      120.888      -20.087       25.684       21.378       13.560      659.677      457.038      183.874        0.820        0.065      121.262       10.579        0.008      344.219       20.881      861.586
05/23/2014  23:24:00       -7.407      109.595      -22.754       38.968       77.849       21.261     1518.498     6060.473      452.019        1.031        0.402      109.845       24.991        0.052      344.167       20.794      861.594
05/23/2014  23:25:00      -47.924      134.900      -15.545       56.155       66.650       27.043     3153.367     4442.227      731.349        1.453        0.416      143.160       22.896        0.026      344.126       20.723      861.587
05/23/2014  23:26:00      -33.139      114.612      -10.228       36.698       59.170       24.776     1346.767     3501.104      613.858        0.990        0.273      119.307       23.373        0.038      344.116       20.707      861.593
05/23/2014  23:27:00      -57.759       53.498      -15.458       31.464       44.569       15.038      989.982     1986.353      226.149        0.482        0.160       78.729       20.220        0.066      344.157       20.777      861.602
05/23/2014  23:28:00      -41.798       54.266       -5.978       51.195       45.749       27.492     2620.911     2093.016      755.822        0.510        0.273       68.497       25.680        0.141      344.191       20.836      861.603
05/23/2014  23:29:00      -36.652       98.104       -9.734       41.139       34.471       26.892     1692.441     1188.243      723.160        0.733        0.180      104.727       26.795        0.065      344.229       20.900      861.599
05/23/2014  23:30:00      -13.380      135.767      -17.554       59.101       77.226       37.797     3492.878     5963.866     1428.627        1.490        0.544      136.425       29.047        0.045      344.172       20.802      861.599
05/23/2014  23:31:00      -69.046       21.631      -13.665       45.727       44.108       25.419     2090.994     1945.542      646.133        0.505        0.234       72.355       11.880        0.027      344.069       20.626      861.595
05/23/2014  23:32:00     -181.582       16.214      -27.718       51.934       77.227       33.132     2697.150     5964.068     1097.726        2.188        0.488      182.304       19.593        0.012      344.041       20.577      861.618
05/23/2014  23:33:00      -49.719       69.576      -17.435       41.140       30.129       28.273     1692.495      907.761      799.383        0.551        0.170       85.514       18.687        0.048      344.344       21.097      861.608
05/23/2014  23:34:00     -147.859       25.716      -19.270       55.080       64.768       27.490     3033.852     4194.868      755.698        1.544        0.399      150.078       19.862        0.018      344.356       21.115      861.624
05/23/2014  23:35:00     -157.040       79.890      -26.432       58.045       84.119       51.004     3369.209     7075.958     2601.368        2.239        0.652      176.193       31.551        0.032      344.320       21.054      861.623
05/23/2014  23:36:00     -161.321      -41.192      -21.670       43.305       45.448       24.273     1875.313     2065.564      589.188        1.636        0.227      166.497       16.590        0.010      344.422       21.230      861.606
05/23/2014  23:37:00      -64.632       20.756       -0.236       16.449       20.699       15.910      270.574      428.443      253.114        0.278        0.048       67.883       12.124        0.032      344.478       21.326      861.610
05/23/2014  23:38:00      -97.550       92.534      -12.685       52.282       36.873       29.823     2733.412     1359.651      889.437        1.161        0.249      134.457        9.272        0.005      344.365       21.131      861.614
05/23/2014  23:39:00     -105.952      127.183      -15.617       47.820       79.958       30.309     2286.711     6393.311      918.628        1.862        0.480      165.533       31.994        0.037      344.337       21.082      861.611
05/23/2014  23:40:00      -91.546      193.048      -26.923       32.901       50.195       27.028     1082.490     2519.582      730.540        2.535        0.217      213.654       19.045        0.008      344.367       21.132      861.596
05/23/2014  23:41:00      -56.428      115.347      -24.705       44.062       32.465       19.504     1941.482     1053.954      380.414        1.024        0.169      128.410       12.619        0.010      344.373       21.145      861.596
05/23/2014  23:42:00      -50.145      142.084      -16.135       27.698       58.690       25.516      767.193     3444.551      651.084        1.391        0.243      150.673       25.857        0.029      344.340       21.090      861.590
05/23/2014  23:43:00      -52.490       82.072       -0.094       38.543       55.472       31.802     1485.595     3077.090     1011.396        0.753        0.279       97.422       33.425        0.118      344.284       20.994      861.583
05/23/2014  23:44:00      -77.941       60.482        0.952       43.525       41.107       32.027     1894.406     1689.790     1025.725        0.717        0.230       98.656       22.682        0.053      344.217       20.879      861.578
05/23/2014  23:45:00      -85.804       84.024      -23.058       31.953       31.661       22.484     1020.969     1002.407      505.517        0.874        0.126      120.093       22.591        0.035      344.223       20.889      861.584
05/23/2014  23:46:00     -101.331       81.087      -21.599       31.134       37.343       21.294      969.334     1394.477      453.414        1.006        0.141      129.781       20.036        0.024      344.187       20.827      861.600
05/23/2014  23:47:00     -101.940        6.176      -15.709       55.667       36.984       23.195     3098.786     1367.789      538.021        0.784        0.250      102.127       30.156        0.087      344.137       20.741      861.609
05/23/2014  23:48:00      -83.719       98.299      -22.077       37.561       41.212       24.138     1410.829     1698.424      582.660        1.042        0.185      129.118       22.319        0.030      344.106       20.689      861.625
05/23/2014  23:49:00      -93.033      106.657      -12.442       38.041       47.289       33.455     1447.099     2236.286     1119.223        1.249        0.240      141.530       27.814        0.039      344.097       20.673      861.642
05/23/2014  23:50:00     -110.518       65.881      -14.439       38.994       56.460       26.947     1520.536     3187.765      726.115        1.110        0.272      128.664       31.487        0.060      344.073       20.632      861.647
05/23/2014  23:51:00     -102.350       88.896      -15.427       41.141       49.321       32.442     1692.549     2432.582     1052.510        1.190        0.259      135.566       27.611        0.041      344.043       20.582      861.658
05/23/2014  23:52:00     -120.528       74.238      -15.209       45.791       31.560       26.694     2096.796      996.048      712.596        1.204        0.190      141.556       24.420        0.030      344.047       20.590      861.656
05/23/2014  23:53:00     -119.280      101.076      -20.458       36.516       41.486       26.947     1333.449     1721.115      726.155        1.432        0.189      156.346       26.192        0.028      343.987       20.485      861.648
05/23/2014  23:54:00      -96.147       88.483      -15.857       30.972       48.647       22.384      959.295     2366.558      501.048        1.058        0.191      130.666       20.314        0.024      343.946       20.415      861.639
05/23/2014  23:55:00     -122.577       44.676      -17.899       34.109       66.144       21.020     1163.423     4375.010      441.846        1.166        0.299      130.465       20.683        0.025      343.929       20.387      861.639
05/23/2014  23:56:00     -163.938      -47.572       -9.416       38.934       42.459       28.695     1515.861     1802.791      823.378        1.668        0.207      170.701       11.369        0.004      343.728       20.044      861.642
05/23/2014  23:57:00     -115.402      -11.577       -7.737       38.969       45.064       22.626     1518.552     2030.786      511.931        0.879        0.203      115.982       16.638        0.021      343.672       19.948      861.644
05/23/2014  23:58:00      -36.929       32.505       -3.573       33.012       34.878       20.083     1089.800     1216.467      403.333        0.257        0.135       49.197       16.625        0.114      343.656       19.920      861.651
05/23/2014  23:59:00     -101.623      110.630      -28.132       31.823       47.694       26.096     1012.717     2274.670      680.976        1.366        0.198      150.221       24.963        0.028      343.780       20.133      861.639
